﻿<?xml version="1.0" encoding="utf-8"?><gpx creator="Garmin Desktop App" version="1.1" xsi:schemaLocation="http://www.topografix.com/GPX/1/1 http://www.topografix.com/GPX/1/1/gpx.xsd http://www.garmin.com/xmlschemas/WaypointExtension/v1 http://www8.garmin.com/xmlschemas/WaypointExtensionv1.xsd http://www.garmin.com/xmlschemas/TrackPointExtension/v1 http://www.garmin.com/xmlschemas/TrackPointExtensionv1.xsd http://www.garmin.com/xmlschemas/GpxExtensions/v3 http://www8.garmin.com/xmlschemas/GpxExtensionsv3.xsd http://www.garmin.com/xmlschemas/ActivityExtension/v1 http://www8.garmin.com/xmlschemas/ActivityExtensionv1.xsd http://www.garmin.com/xmlschemas/AdventuresExtensions/v1 http://www8.garmin.com/xmlschemas/AdventuresExtensionv1.xsd http://www.garmin.com/xmlschemas/PressureExtension/v1 http://www.garmin.com/xmlschemas/PressureExtensionv1.xsd http://www.garmin.com/xmlschemas/TripExtensions/v1 http://www.garmin.com/xmlschemas/TripExtensionsv1.xsd http://www.garmin.com/xmlschemas/TripMetaDataExtensions/v1 http://www.garmin.com/xmlschemas/TripMetaDataExtensionsv1.xsd http://www.garmin.com/xmlschemas/ViaPointTransportationModeExtensions/v1 http://www.garmin.com/xmlschemas/ViaPointTransportationModeExtensionsv1.xsd http://www.garmin.com/xmlschemas/CreationTimeExtension/v1 http://www.garmin.com/xmlschemas/CreationTimeExtensionsv1.xsd http://www.garmin.com/xmlschemas/AccelerationExtension/v1 http://www.garmin.com/xmlschemas/AccelerationExtensionv1.xsd http://www.garmin.com/xmlschemas/PowerExtension/v1 http://www.garmin.com/xmlschemas/PowerExtensionv1.xsd http://www.garmin.com/xmlschemas/VideoExtension/v1 http://www.garmin.com/xmlschemas/VideoExtensionv1.xsd" xmlns="http://www.topografix.com/GPX/1/1" xmlns:xsi="http://www.w3.org/2001/XMLSchema-instance" xmlns:wptx1="http://www.garmin.com/xmlschemas/WaypointExtension/v1" xmlns:gpxtrx="http://www.garmin.com/xmlschemas/GpxExtensions/v3" xmlns:gpxtpx="http://www.garmin.com/xmlschemas/TrackPointExtension/v1" xmlns:gpxx="http://www.garmin.com/xmlschemas/GpxExtensions/v3" xmlns:trp="http://www.garmin.com/xmlschemas/TripExtensions/v1" xmlns:adv="http://www.garmin.com/xmlschemas/AdventuresExtensions/v1" xmlns:prs="http://www.garmin.com/xmlschemas/PressureExtension/v1" xmlns:tmd="http://www.garmin.com/xmlschemas/TripMetaDataExtensions/v1" xmlns:vptm="http://www.garmin.com/xmlschemas/ViaPointTransportationModeExtensions/v1" xmlns:ctx="http://www.garmin.com/xmlschemas/CreationTimeExtension/v1" xmlns:gpxacc="http://www.garmin.com/xmlschemas/AccelerationExtension/v1" xmlns:gpxpx="http://www.garmin.com/xmlschemas/PowerExtension/v1" xmlns:vidx1="http://www.garmin.com/xmlschemas/VideoExtension/v1">

  <metadata>
    <link href="http://www.garmin.com">
      <text>Garmin International</text>
    </link>
    <time>2026-03-09T14:13:18Z</time>
    <bounds maxlat="52.339600687846541" maxlon="8.041024161502719" minlat="52.258911794051528" minlon="7.767436411231756" />
  </metadata>

  <trk>
    <name>20260309Laggenbeck</name>
    <extensions>
      <gpxx:TrackExtension>
        <gpxx:DisplayColor>Red</gpxx:DisplayColor>
      </gpxx:TrackExtension>
    </extensions>
    <trkseg>
      <trkpt lat="52.27757167071104" lon="8.039747262373567">
        <ele>69.42578125</ele>
        <time>2026-03-09T08:54:58Z</time>
      </trkpt>
      <trkpt lat="52.277663368731737" lon="8.039930323138833">
        <ele>69.20703125</ele>
        <time>2026-03-09T08:55:08Z</time>
      </trkpt>
      <trkpt lat="52.27780083194375" lon="8.039827896282077">
        <ele>69.328125</ele>
        <time>2026-03-09T09:01:47Z</time>
      </trkpt>
      <trkpt lat="52.277986239641905" lon="8.039862681180239">
        <ele>69.28515625</ele>
        <time>2026-03-09T09:01:53Z</time>
      </trkpt>
      <trkpt lat="52.278210036456585" lon="8.03987592458725">
        <ele>69.34765625</ele>
        <time>2026-03-09T09:02:00Z</time>
      </trkpt>
      <trkpt lat="52.278409190475941" lon="8.039933005347848">
        <ele>69.515625</ele>
        <time>2026-03-09T09:02:08Z</time>
      </trkpt>
      <trkpt lat="52.278572889044881" lon="8.039746088907123">
        <ele>69.9375</ele>
        <time>2026-03-09T09:02:16Z</time>
      </trkpt>
      <trkpt lat="52.27866567671299" lon="8.039450291544199">
        <ele>70.40234375</ele>
        <time>2026-03-09T09:02:22Z</time>
      </trkpt>
      <trkpt lat="52.278717728331685" lon="8.039165642112494">
        <ele>70.80859375</ele>
        <time>2026-03-09T09:02:32Z</time>
      </trkpt>
      <trkpt lat="52.278817472979426" lon="8.038881495594978">
        <ele>71.26953125</ele>
        <time>2026-03-09T09:03:22Z</time>
      </trkpt>
      <trkpt lat="52.278982931748033" lon="8.038680078461766">
        <ele>71.6953125</ele>
        <time>2026-03-09T09:03:26Z</time>
      </trkpt>
      <trkpt lat="52.279131039977074" lon="8.038456114009023">
        <ele>71.25390625</ele>
        <time>2026-03-09T09:03:30Z</time>
      </trkpt>
      <trkpt lat="52.279279818758368" lon="8.038232987746596">
        <ele>70.734375</ele>
        <time>2026-03-09T09:03:34Z</time>
      </trkpt>
      <trkpt lat="52.279484421014786" lon="8.037970717996359">
        <ele>70.25390625</ele>
        <time>2026-03-09T09:03:40Z</time>
      </trkpt>
      <trkpt lat="52.279654489830136" lon="8.037801990285516">
        <ele>69.9921875</ele>
        <time>2026-03-09T09:03:44Z</time>
      </trkpt>
      <trkpt lat="52.279824139550328" lon="8.037641309201717">
        <ele>69.87890625</ele>
        <time>2026-03-09T09:03:48Z</time>
      </trkpt>
      <trkpt lat="52.279988760128617" lon="8.037482891231775">
        <ele>70.0078125</ele>
        <time>2026-03-09T09:03:52Z</time>
      </trkpt>
      <trkpt lat="52.28015991859138" lon="8.037302931770682">
        <ele>70.24609375</ele>
        <time>2026-03-09T09:03:56Z</time>
      </trkpt>
      <trkpt lat="52.280323281884193" lon="8.037170330062509">
        <ele>70.33203125</ele>
        <time>2026-03-09T09:04:00Z</time>
      </trkpt>
      <trkpt lat="52.28049024939537" lon="8.037018282338977">
        <ele>70.48046875</ele>
        <time>2026-03-09T09:04:04Z</time>
      </trkpt>
      <trkpt lat="52.280687391757965" lon="8.036833293735981">
        <ele>70.62890625</ele>
        <time>2026-03-09T09:04:10Z</time>
      </trkpt>
      <trkpt lat="52.280858047306538" lon="8.036751570180059">
        <ele>70.33984375</ele>
        <time>2026-03-09T09:04:24Z</time>
      </trkpt>
      <trkpt lat="52.281084442511201" lon="8.036628188565373">
        <ele>70.1796875</ele>
        <time>2026-03-09T09:04:32Z</time>
      </trkpt>
      <trkpt lat="52.281262138858438" lon="8.036539675667882">
        <ele>69.95703125</ele>
        <time>2026-03-09T09:04:36Z</time>
      </trkpt>
      <trkpt lat="52.281525749713182" lon="8.036358375102282">
        <ele>69.94921875</ele>
        <time>2026-03-09T09:04:42Z</time>
      </trkpt>
      <trkpt lat="52.281714342534542" lon="8.036199035122991">
        <ele>70.546875</ele>
        <time>2026-03-09T09:04:46Z</time>
      </trkpt>
      <trkpt lat="52.281913831830025" lon="8.036070289090276">
        <ele>70.921875</ele>
        <time>2026-03-09T09:04:50Z</time>
      </trkpt>
      <trkpt lat="52.282127318903804" lon="8.035958809778094">
        <ele>71.13671875</ele>
        <time>2026-03-09T09:04:54Z</time>
      </trkpt>
      <trkpt lat="52.282316498458385" lon="8.035805756226182">
        <ele>71.46484375</ele>
        <time>2026-03-09T09:04:58Z</time>
      </trkpt>
      <trkpt lat="52.28251364082098" lon="8.03561900742352">
        <ele>71.53125</ele>
        <time>2026-03-09T09:05:02Z</time>
      </trkpt>
      <trkpt lat="52.282764595001936" lon="8.035448770970106">
        <ele>70.9375</ele>
        <time>2026-03-09T09:05:07Z</time>
      </trkpt>
      <trkpt lat="52.282969783991575" lon="8.035311307758093">
        <ele>70.08984375</ele>
        <time>2026-03-09T09:05:11Z</time>
      </trkpt>
      <trkpt lat="52.283159298822284" lon="8.035194212570787">
        <ele>69.1015625</ele>
        <time>2026-03-09T09:05:15Z</time>
      </trkpt>
      <trkpt lat="52.283346299082041" lon="8.035045266151428">
        <ele>69.4453125</ele>
        <time>2026-03-09T09:05:19Z</time>
      </trkpt>
      <trkpt lat="52.283519888296723" lon="8.034890368580818">
        <ele>70.44921875</ele>
        <time>2026-03-09T09:05:23Z</time>
      </trkpt>
      <trkpt lat="52.283702529966831" lon="8.034748630598187">
        <ele>71.12890625</ele>
        <time>2026-03-09T09:05:27Z</time>
      </trkpt>
      <trkpt lat="52.283885339275002" lon="8.034620974212885">
        <ele>71.51171875</ele>
        <time>2026-03-09T09:05:33Z</time>
      </trkpt>
      <trkpt lat="52.284084158018231" lon="8.034510584548116">
        <ele>71.19140625</ele>
        <time>2026-03-09T09:06:47Z</time>
      </trkpt>
      <trkpt lat="52.284269062802196" lon="8.0343680921942">
        <ele>70.5546875</ele>
        <time>2026-03-09T09:06:51Z</time>
      </trkpt>
      <trkpt lat="52.284436449408531" lon="8.034229204058647">
        <ele>69.89453125</ele>
        <time>2026-03-09T09:06:55Z</time>
      </trkpt>
      <trkpt lat="52.284608362242579" lon="8.034095093607903">
        <ele>69.30078125</ele>
        <time>2026-03-09T09:06:59Z</time>
      </trkpt>
      <trkpt lat="52.284783460199833" lon="8.033970119431615">
        <ele>68.63671875</ele>
        <time>2026-03-09T09:07:03Z</time>
      </trkpt>
      <trkpt lat="52.284956211224198" lon="8.033834081143141">
        <ele>68.3984375</ele>
        <time>2026-03-09T09:07:07Z</time>
      </trkpt>
      <trkpt lat="52.285144049674273" lon="8.033565692603588">
        <ele>68.78515625</ele>
        <time>2026-03-09T09:07:13Z</time>
      </trkpt>
      <trkpt lat="52.285174811258912" lon="8.033105609938502">
        <ele>70.171875</ele>
        <time>2026-03-09T09:07:19Z</time>
      </trkpt>
      <trkpt lat="52.285286458209157" lon="8.032805034890771">
        <ele>70.77734375</ele>
        <time>2026-03-09T09:07:23Z</time>
      </trkpt>
      <trkpt lat="52.285387124866247" lon="8.032529186457396">
        <ele>71.42578125</ele>
        <time>2026-03-09T09:07:27Z</time>
      </trkpt>
      <trkpt lat="52.285485109314322" lon="8.03224453702569">
        <ele>71.70703125</ele>
        <time>2026-03-09T09:07:31Z</time>
      </trkpt>
      <trkpt lat="52.285567168146372" lon="8.031947482377291">
        <ele>71.953125</ele>
        <time>2026-03-09T09:07:35Z</time>
      </trkpt>
      <trkpt lat="52.285646041855216" lon="8.031630059704185">
        <ele>71.98046875</ele>
        <time>2026-03-09T09:07:39Z</time>
      </trkpt>
      <trkpt lat="52.285714186728001" lon="8.03131029009819">
        <ele>71.6171875</ele>
        <time>2026-03-09T09:07:43Z</time>
      </trkpt>
      <trkpt lat="52.285789791494608" lon="8.030965626239777">
        <ele>71.2890625</ele>
        <time>2026-03-09T09:07:47Z</time>
      </trkpt>
      <trkpt lat="52.285869419574738" lon="8.030610485002399">
        <ele>71.01953125</ele>
        <time>2026-03-09T09:07:51Z</time>
      </trkpt>
      <trkpt lat="52.285930272191763" lon="8.030242519453168">
        <ele>70.91015625</ele>
        <time>2026-03-09T09:07:55Z</time>
      </trkpt>
      <trkpt lat="52.286008391529322" lon="8.029877152293921">
        <ele>70.68359375</ele>
        <time>2026-03-09T09:07:59Z</time>
      </trkpt>
      <trkpt lat="52.286094557493925" lon="8.029524860903621">
        <ele>70.37109375</ele>
        <time>2026-03-09T09:08:03Z</time>
      </trkpt>
      <trkpt lat="52.286158762872219" lon="8.029186734929681">
        <ele>69.8671875</ele>
        <time>2026-03-09T09:08:07Z</time>
      </trkpt>
      <trkpt lat="52.286200420930982" lon="8.02887886762619">
        <ele>68.72265625</ele>
        <time>2026-03-09T09:08:11Z</time>
      </trkpt>
      <trkpt lat="52.286263117566705" lon="8.028593296185136">
        <ele>67.51953125</ele>
        <time>2026-03-09T09:08:15Z</time>
      </trkpt>
      <trkpt lat="52.286365041509271" lon="8.02829883992672">
        <ele>66.5078125</ele>
        <time>2026-03-09T09:08:21Z</time>
      </trkpt>
      <trkpt lat="52.286464031785727" lon="8.028013352304697">
        <ele>66.046875</ele>
        <time>2026-03-09T09:08:45Z</time>
      </trkpt>
      <trkpt lat="52.286510383710265" lon="8.027641866356134">
        <ele>65.91796875</ele>
        <time>2026-03-09T09:08:51Z</time>
      </trkpt>
      <trkpt lat="52.286400748416781" lon="8.02725219167769">
        <ele>67.0859375</ele>
        <time>2026-03-09T09:08:57Z</time>
      </trkpt>
      <trkpt lat="52.286405442282557" lon="8.026929991319776">
        <ele>67.8125</ele>
        <time>2026-03-09T09:09:01Z</time>
      </trkpt>
      <trkpt lat="52.286418098956347" lon="8.026552889496088">
        <ele>68.63671875</ele>
        <time>2026-03-09T09:09:05Z</time>
      </trkpt>
      <trkpt lat="52.286412650719285" lon="8.026240915060043">
        <ele>69.33984375</ele>
        <time>2026-03-09T09:09:09Z</time>
      </trkpt>
      <trkpt lat="52.286433689296246" lon="8.025891808792949">
        <ele>69.875</ele>
        <time>2026-03-09T09:09:13Z</time>
      </trkpt>
      <trkpt lat="52.286481466144323" lon="8.025528872385621">
        <ele>68.97265625</ele>
        <time>2026-03-09T09:09:17Z</time>
      </trkpt>
      <trkpt lat="52.286505606025457" lon="8.025143556296825">
        <ele>67.96875</ele>
        <time>2026-03-09T09:09:21Z</time>
      </trkpt>
      <trkpt lat="52.286528740078211" lon="8.024831330403686">
        <ele>67.55859375</ele>
        <time>2026-03-09T09:09:25Z</time>
      </trkpt>
      <trkpt lat="52.286582048982382" lon="8.024505777284503">
        <ele>67.26171875</ele>
        <time>2026-03-09T09:10:11Z</time>
      </trkpt>
      <trkpt lat="52.286644829437137" lon="8.024181565269828">
        <ele>67.2734375</ele>
        <time>2026-03-09T09:10:17Z</time>
      </trkpt>
      <trkpt lat="52.286682799458504" lon="8.023860035464168">
        <ele>67.5</ele>
        <time>2026-03-09T09:10:21Z</time>
      </trkpt>
      <trkpt lat="52.286722529679537" lon="8.023489555343986">
        <ele>67.6796875</ele>
        <time>2026-03-09T09:10:27Z</time>
      </trkpt>
      <trkpt lat="52.286777850240469" lon="8.023039950057864">
        <ele>67.328125</ele>
        <time>2026-03-09T09:10:33Z</time>
      </trkpt>
      <trkpt lat="52.286815484985709" lon="8.022686066105962">
        <ele>67.05078125</ele>
        <time>2026-03-09T09:10:37Z</time>
      </trkpt>
      <trkpt lat="52.286835098639131" lon="8.022333020344377">
        <ele>67.14453125</ele>
        <time>2026-03-09T09:10:41Z</time>
      </trkpt>
      <trkpt lat="52.286854544654489" lon="8.02199799567461">
        <ele>67.3359375</ele>
        <time>2026-03-09T09:10:45Z</time>
      </trkpt>
      <trkpt lat="52.286898549646139" lon="8.021663809195161">
        <ele>67.78515625</ele>
        <time>2026-03-09T09:10:49Z</time>
      </trkpt>
      <trkpt lat="52.286942889913917" lon="8.02132903598249">
        <ele>68.640625</ele>
        <time>2026-03-09T09:10:53Z</time>
      </trkpt>
      <trkpt lat="52.286972980946302" lon="8.021015971899033">
        <ele>69.4296875</ele>
        <time>2026-03-09T09:10:57Z</time>
      </trkpt>
      <trkpt lat="52.287006340920925" lon="8.020708858966827">
        <ele>69.94921875</ele>
        <time>2026-03-09T09:11:01Z</time>
      </trkpt>
      <trkpt lat="52.287050010636449" lon="8.020418174564838">
        <ele>70.28125</ele>
        <time>2026-03-09T09:11:05Z</time>
      </trkpt>
      <trkpt lat="52.287087058648467" lon="8.020095806568861">
        <ele>70.5625</ele>
        <time>2026-03-09T09:11:09Z</time>
      </trkpt>
      <trkpt lat="52.287116730585694" lon="8.01979573443532">
        <ele>71.015625</ele>
        <time>2026-03-09T09:11:13Z</time>
      </trkpt>
      <trkpt lat="52.287154700607061" lon="8.01948694512248">
        <ele>71.3984375</ele>
        <time>2026-03-09T09:11:17Z</time>
      </trkpt>
      <trkpt lat="52.287192000076175" lon="8.019165834411979">
        <ele>72.05078125</ele>
        <time>2026-03-09T09:11:21Z</time>
      </trkpt>
      <trkpt lat="52.287217313423753" lon="8.0188556201756">
        <ele>73.3125</ele>
        <time>2026-03-09T09:11:25Z</time>
      </trkpt>
      <trkpt lat="52.287259139120579" lon="8.01855068653822">
        <ele>74.5859375</ele>
        <time>2026-03-09T09:11:29Z</time>
      </trkpt>
      <trkpt lat="52.287286799401045" lon="8.018232090398669">
        <ele>75.265625</ele>
        <time>2026-03-09T09:11:33Z</time>
      </trkpt>
      <trkpt lat="52.287338599562645" lon="8.017915170639753">
        <ele>75.421875</ele>
        <time>2026-03-09T09:11:37Z</time>
      </trkpt>
      <trkpt lat="52.287368858233094" lon="8.017620630562306">
        <ele>75.55859375</ele>
        <time>2026-03-09T09:11:41Z</time>
      </trkpt>
      <trkpt lat="52.287399368360639" lon="8.017311589792371">
        <ele>74.6953125</ele>
        <time>2026-03-09T09:11:45Z</time>
      </trkpt>
      <trkpt lat="52.287440439686179" lon="8.016994670033455">
        <ele>73.796875</ele>
        <time>2026-03-09T09:11:49Z</time>
      </trkpt>
      <trkpt lat="52.287489390000701" lon="8.016659393906593">
        <ele>72.8984375</ele>
        <time>2026-03-09T09:11:53Z</time>
      </trkpt>
      <trkpt lat="52.287526018917561" lon="8.016295367851853">
        <ele>72.08984375</ele>
        <time>2026-03-09T09:11:57Z</time>
      </trkpt>
      <trkpt lat="52.287566671147943" lon="8.015923211351037">
        <ele>71.30859375</ele>
        <time>2026-03-09T09:12:01Z</time>
      </trkpt>
      <trkpt lat="52.287612268701196" lon="8.015542924404144">
        <ele>70.1171875</ele>
        <time>2026-03-09T09:12:05Z</time>
      </trkpt>
      <trkpt lat="52.287637079134583" lon="8.015175964683294">
        <ele>68.98828125</ele>
        <time>2026-03-09T09:12:09Z</time>
      </trkpt>
      <trkpt lat="52.287677647545934" lon="8.014820488169789">
        <ele>68.8671875</ele>
        <time>2026-03-09T09:12:13Z</time>
      </trkpt>
      <trkpt lat="52.287717796862125" lon="8.01448093727231">
        <ele>68.9140625</ele>
        <time>2026-03-09T09:12:17Z</time>
      </trkpt>
      <trkpt lat="52.287749648094177" lon="8.014150941744447">
        <ele>68.87890625</ele>
        <time>2026-03-09T09:12:21Z</time>
      </trkpt>
      <trkpt lat="52.287796754390001" lon="8.013786496594548">
        <ele>68.65625</ele>
        <time>2026-03-09T09:12:25Z</time>
      </trkpt>
      <trkpt lat="52.287832042202353" lon="8.013450969010592">
        <ele>68.484375</ele>
        <time>2026-03-09T09:12:29Z</time>
      </trkpt>
      <trkpt lat="52.287898007780313" lon="8.013121895492077">
        <ele>68.49609375</ele>
        <time>2026-03-09T09:12:33Z</time>
      </trkpt>
      <trkpt lat="52.287955172359943" lon="8.012775890529156">
        <ele>68.7890625</ele>
        <time>2026-03-09T09:12:37Z</time>
      </trkpt>
      <trkpt lat="52.287999428808689" lon="8.012424940243363">
        <ele>69.34375</ele>
        <time>2026-03-09T09:12:41Z</time>
      </trkpt>
      <trkpt lat="52.288076290860772" lon="8.012077677994967">
        <ele>70.14453125</ele>
        <time>2026-03-09T09:12:45Z</time>
      </trkpt>
      <trkpt lat="52.288178130984306" lon="8.011809708550572">
        <ele>70.89453125</ele>
        <time>2026-03-09T09:12:49Z</time>
      </trkpt>
      <trkpt lat="52.288239067420363" lon="8.0114905256778">
        <ele>70.83984375</ele>
        <time>2026-03-09T09:12:53Z</time>
      </trkpt>
      <trkpt lat="52.288273265585303" lon="8.011134546250105">
        <ele>70.71875</ele>
        <time>2026-03-09T09:12:57Z</time>
      </trkpt>
      <trkpt lat="52.288356246426702" lon="8.010774711146951">
        <ele>70.484375</ele>
        <time>2026-03-09T09:13:01Z</time>
      </trkpt>
      <trkpt lat="52.288452554494143" lon="8.010451588779688">
        <ele>70.25390625</ele>
        <time>2026-03-09T09:13:05Z</time>
      </trkpt>
      <trkpt lat="52.288559759035707" lon="8.010103069245815">
        <ele>69.99609375</ele>
        <time>2026-03-09T09:13:09Z</time>
      </trkpt>
      <trkpt lat="52.288658916950226" lon="8.009780365973711">
        <ele>69.7578125</ele>
        <time>2026-03-09T09:13:13Z</time>
      </trkpt>
      <trkpt lat="52.288748351857066" lon="8.009470487013459">
        <ele>69.54296875</ele>
        <time>2026-03-09T09:13:17Z</time>
      </trkpt>
      <trkpt lat="52.288875672966242" lon="8.009061114862561">
        <ele>69.203125</ele>
        <time>2026-03-09T09:13:23Z</time>
      </trkpt>
      <trkpt lat="52.288990337401628" lon="8.008756348863244">
        <ele>69.03125</ele>
        <time>2026-03-09T09:13:27Z</time>
      </trkpt>
      <trkpt lat="52.289106678217649" lon="8.008453510701656">
        <ele>69.31640625</ele>
        <time>2026-03-09T09:13:31Z</time>
      </trkpt>
      <trkpt lat="52.289231400936842" lon="8.008165005594492">
        <ele>69.484375</ele>
        <time>2026-03-09T09:13:35Z</time>
      </trkpt>
      <trkpt lat="52.289348328486085" lon="8.007852612063289">
        <ele>69.82421875</ele>
        <time>2026-03-09T09:13:39Z</time>
      </trkpt>
      <trkpt lat="52.28944581001997" lon="8.007560335099697">
        <ele>70.19140625</ele>
        <time>2026-03-09T09:13:43Z</time>
      </trkpt>
      <trkpt lat="52.289541698992252" lon="8.007246516644955">
        <ele>70.27734375</ele>
        <time>2026-03-09T09:13:47Z</time>
      </trkpt>
      <trkpt lat="52.289639683440328" lon="8.006961029022932">
        <ele>70.40625</ele>
        <time>2026-03-09T09:13:51Z</time>
      </trkpt>
      <trkpt lat="52.289743702858686" lon="8.006668835878372">
        <ele>70.59765625</ele>
        <time>2026-03-09T09:13:55Z</time>
      </trkpt>
      <trkpt lat="52.28983229957521" lon="8.006341690197587">
        <ele>70.56640625</ele>
        <time>2026-03-09T09:13:59Z</time>
      </trkpt>
      <trkpt lat="52.2899105027318" lon="8.0060198251158">
        <ele>70.35546875</ele>
        <time>2026-03-09T09:14:03Z</time>
      </trkpt>
      <trkpt lat="52.289993651211262" lon="8.005711706355214">
        <ele>71.0625</ele>
        <time>2026-03-09T09:14:07Z</time>
      </trkpt>
      <trkpt lat="52.290061712265015" lon="8.005397552624345">
        <ele>71.80078125</ele>
        <time>2026-03-09T09:14:11Z</time>
      </trkpt>
      <trkpt lat="52.290130946785212" lon="8.005076190456748">
        <ele>72.25390625</ele>
        <time>2026-03-09T09:14:15Z</time>
      </trkpt>
      <trkpt lat="52.290181992575526" lon="8.004749966785312">
        <ele>72.34375</ele>
        <time>2026-03-09T09:14:19Z</time>
      </trkpt>
      <trkpt lat="52.290237648412585" lon="8.004421982914209">
        <ele>72.37109375</ele>
        <time>2026-03-09T09:14:23Z</time>
      </trkpt>
      <trkpt lat="52.290296070277691" lon="8.004085449501872">
        <ele>71.74609375</ele>
        <time>2026-03-09T09:14:27Z</time>
      </trkpt>
      <trkpt lat="52.290361868217587" lon="8.003764422610402">
        <ele>70.73828125</ele>
        <time>2026-03-09T09:14:31Z</time>
      </trkpt>
      <trkpt lat="52.290428169071674" lon="8.003410790115595">
        <ele>69.9140625</ele>
        <time>2026-03-09T09:14:35Z</time>
      </trkpt>
      <trkpt lat="52.290506288409233" lon="8.003081046044827">
        <ele>70.76171875</ele>
        <time>2026-03-09T09:14:39Z</time>
      </trkpt>
      <trkpt lat="52.290560100227594" lon="8.002719115465879">
        <ele>71.859375</ele>
        <time>2026-03-09T09:14:43Z</time>
      </trkpt>
      <trkpt lat="52.290618354454637" lon="8.002406302839518">
        <ele>73.62109375</ele>
        <time>2026-03-09T09:14:47Z</time>
      </trkpt>
      <trkpt lat="52.290682559832931" lon="8.002069015055895">
        <ele>75.89453125</ele>
        <time>2026-03-09T09:14:51Z</time>
      </trkpt>
      <trkpt lat="52.290743663907051" lon="8.00173457711935">
        <ele>77.88671875</ele>
        <time>2026-03-09T09:14:55Z</time>
      </trkpt>
      <trkpt lat="52.290823711082339" lon="8.001362755894661">
        <ele>78.5859375</ele>
        <time>2026-03-09T09:14:59Z</time>
      </trkpt>
      <trkpt lat="52.290901998057961" lon="8.000987498089671">
        <ele>79.30078125</ele>
        <time>2026-03-09T09:15:03Z</time>
      </trkpt>
      <trkpt lat="52.29096301831305" lon="8.00061902962625">
        <ele>77.8203125</ele>
        <time>2026-03-09T09:15:07Z</time>
      </trkpt>
      <trkpt lat="52.291045831516385" lon="8.000227510929108">
        <ele>76.34765625</ele>
        <time>2026-03-09T09:15:11Z</time>
      </trkpt>
      <trkpt lat="52.291124621406198" lon="7.999817300587893">
        <ele>75.20703125</ele>
        <time>2026-03-09T09:15:15Z</time>
      </trkpt>
      <trkpt lat="52.291185222566128" lon="7.999407006427646">
        <ele>74.01953125</ele>
        <time>2026-03-09T09:15:19Z</time>
      </trkpt>
      <trkpt lat="52.291237358003855" lon="7.999021774157882">
        <ele>72.08203125</ele>
        <time>2026-03-09T09:15:23Z</time>
      </trkpt>
      <trkpt lat="52.291302401572466" lon="7.998623549938202">
        <ele>69.3203125</ele>
        <time>2026-03-09T09:15:27Z</time>
      </trkpt>
      <trkpt lat="52.291347663849592" lon="7.998253405094147">
        <ele>67.515625</ele>
        <time>2026-03-09T09:15:31Z</time>
      </trkpt>
      <trkpt lat="52.291400553658605" lon="7.99786607734859">
        <ele>66.27734375</ele>
        <time>2026-03-09T09:15:35Z</time>
      </trkpt>
      <trkpt lat="52.291447157040238" lon="7.997515378519893">
        <ele>65.78515625</ele>
        <time>2026-03-09T09:15:39Z</time>
      </trkpt>
      <trkpt lat="52.291497280821204" lon="7.997170798480511">
        <ele>67.11328125</ele>
        <time>2026-03-09T09:15:43Z</time>
      </trkpt>
      <trkpt lat="52.291543381288648" lon="7.996816830709577">
        <ele>68.55859375</ele>
        <time>2026-03-09T09:15:47Z</time>
      </trkpt>
      <trkpt lat="52.291586631909013" lon="7.996476357802749">
        <ele>68.88671875</ele>
        <time>2026-03-09T09:15:51Z</time>
      </trkpt>
      <trkpt lat="52.291626781225204" lon="7.996140494942665">
        <ele>69.19140625</ele>
        <time>2026-03-09T09:15:55Z</time>
      </trkpt>
      <trkpt lat="52.291679503396153" lon="7.995809661224484">
        <ele>69.34375</ele>
        <time>2026-03-09T09:15:59Z</time>
      </trkpt>
      <trkpt lat="52.291738092899323" lon="7.995454519987106">
        <ele>69.4296875</ele>
        <time>2026-03-09T09:16:03Z</time>
      </trkpt>
      <trkpt lat="52.29179659858346" lon="7.995085045695305">
        <ele>69.49609375</ele>
        <time>2026-03-09T09:16:07Z</time>
      </trkpt>
      <trkpt lat="52.291864491999149" lon="7.994720516726375">
        <ele>68.51953125</ele>
        <time>2026-03-09T09:16:11Z</time>
      </trkpt>
      <trkpt lat="52.2919084969908" lon="7.994370656087995">
        <ele>67.69921875</ele>
        <time>2026-03-09T09:16:15Z</time>
      </trkpt>
      <trkpt lat="52.291950490325689" lon="7.994026578962803">
        <ele>67.33984375</ele>
        <time>2026-03-09T09:16:19Z</time>
      </trkpt>
      <trkpt lat="52.291991226375103" lon="7.993667665868998">
        <ele>66.96875</ele>
        <time>2026-03-09T09:16:23Z</time>
      </trkpt>
      <trkpt lat="52.292046630755067" lon="7.993337418884039">
        <ele>66.8671875</ele>
        <time>2026-03-09T09:16:27Z</time>
      </trkpt>
      <trkpt lat="52.292099604383111" lon="7.992988647893071">
        <ele>67.34375</ele>
        <time>2026-03-09T09:16:31Z</time>
      </trkpt>
      <trkpt lat="52.292147800326347" lon="7.992651611566544">
        <ele>67.72265625</ele>
        <time>2026-03-09T09:16:35Z</time>
      </trkpt>
      <trkpt lat="52.292187949642539" lon="7.992291776463389">
        <ele>69.01171875</ele>
        <time>2026-03-09T09:16:39Z</time>
      </trkpt>
      <trkpt lat="52.292226925492287" lon="7.991956165060401">
        <ele>70.109375</ele>
        <time>2026-03-09T09:16:43Z</time>
      </trkpt>
      <trkpt lat="52.292265482246876" lon="7.991608064621687">
        <ele>70.58984375</ele>
        <time>2026-03-09T09:16:47Z</time>
      </trkpt>
      <trkpt lat="52.292327089235187" lon="7.991280918940902">
        <ele>70.515625</ele>
        <time>2026-03-09T09:16:51Z</time>
      </trkpt>
      <trkpt lat="52.292460948228836" lon="7.990911947563291">
        <ele>69.9609375</ele>
        <time>2026-03-09T09:16:57Z</time>
      </trkpt>
      <trkpt lat="52.292491625994444" lon="7.990583041682839">
        <ele>68.01953125</ele>
        <time>2026-03-09T09:17:01Z</time>
      </trkpt>
      <trkpt lat="52.292522387579083" lon="7.990266541019082">
        <ele>66.203125</ele>
        <time>2026-03-09T09:17:05Z</time>
      </trkpt>
      <trkpt lat="52.292588520795107" lon="7.98993268981576">
        <ele>64.5234375</ele>
        <time>2026-03-09T09:17:09Z</time>
      </trkpt>
      <trkpt lat="52.292599501088262" lon="7.989596240222454">
        <ele>63.13671875</ele>
        <time>2026-03-09T09:17:13Z</time>
      </trkpt>
      <trkpt lat="52.292632022872567" lon="7.989219641312957">
        <ele>62.05078125</ele>
        <time>2026-03-09T09:17:17Z</time>
      </trkpt>
      <trkpt lat="52.292668567970395" lon="7.98884890973568">
        <ele>63.0078125</ele>
        <time>2026-03-09T09:17:21Z</time>
      </trkpt>
      <trkpt lat="52.292705280706286" lon="7.988480944186449">
        <ele>63.99609375</ele>
        <time>2026-03-09T09:17:25Z</time>
      </trkpt>
      <trkpt lat="52.29273428209126" lon="7.988128652796149">
        <ele>65.22265625</ele>
        <time>2026-03-09T09:17:29Z</time>
      </trkpt>
      <trkpt lat="52.292783567681909" lon="7.987714000046253">
        <ele>66.9609375</ele>
        <time>2026-03-09T09:17:35Z</time>
      </trkpt>
      <trkpt lat="52.292807791382074" lon="7.987336227670312">
        <ele>65.98828125</ele>
        <time>2026-03-09T09:17:41Z</time>
      </trkpt>
      <trkpt lat="52.29288674890995" lon="7.986951414495707">
        <ele>64.51953125</ele>
        <time>2026-03-09T09:17:45Z</time>
      </trkpt>
      <trkpt lat="52.29292924515903" lon="7.986530140042305">
        <ele>63.51171875</ele>
        <time>2026-03-09T09:17:49Z</time>
      </trkpt>
      <trkpt lat="52.292971322312951" lon="7.98617759719491">
        <ele>63.00390625</ele>
        <time>2026-03-09T09:17:53Z</time>
      </trkpt>
      <trkpt lat="52.293002251535654" lon="7.985832262784243">
        <ele>62.69921875</ele>
        <time>2026-03-09T09:17:57Z</time>
      </trkpt>
      <trkpt lat="52.293011639267206" lon="7.985472260043025">
        <ele>62.78515625</ele>
        <time>2026-03-09T09:18:01Z</time>
      </trkpt>
      <trkpt lat="52.292996468022466" lon="7.985123656690121">
        <ele>62.84375</ele>
        <time>2026-03-09T09:18:05Z</time>
      </trkpt>
      <trkpt lat="52.292986996471882" lon="7.984789302572608">
        <ele>63.234375</ele>
        <time>2026-03-09T09:18:09Z</time>
      </trkpt>
      <trkpt lat="52.292968388646841" lon="7.984458636492491">
        <ele>63.609375</ele>
        <time>2026-03-09T09:18:13Z</time>
      </trkpt>
      <trkpt lat="52.292951289564371" lon="7.984144147485495">
        <ele>64.15625</ele>
        <time>2026-03-09T09:18:17Z</time>
      </trkpt>
      <trkpt lat="52.292946511879563" lon="7.983826557174325">
        <ele>64.91015625</ele>
        <time>2026-03-09T09:18:21Z</time>
      </trkpt>
      <trkpt lat="52.292956234887242" lon="7.983520114794374">
        <ele>65.66015625</ele>
        <time>2026-03-09T09:18:25Z</time>
      </trkpt>
      <trkpt lat="52.292948104441166" lon="7.983211493119597">
        <ele>66.15234375</ele>
        <time>2026-03-09T09:18:29Z</time>
      </trkpt>
      <trkpt lat="52.292934525758028" lon="7.9828348942101">
        <ele>66.703125</ele>
        <time>2026-03-09T09:18:37Z</time>
      </trkpt>
      <trkpt lat="52.292936202138662" lon="7.982484698295593">
        <ele>67.40625</ele>
        <time>2026-03-09T09:18:43Z</time>
      </trkpt>
      <trkpt lat="52.292985990643501" lon="7.982157887890935">
        <ele>68.25390625</ele>
        <time>2026-03-09T09:18:49Z</time>
      </trkpt>
      <trkpt lat="52.293080957606435" lon="7.981880027800798">
        <ele>68.87890625</ele>
        <time>2026-03-09T09:18:55Z</time>
      </trkpt>
      <trkpt lat="52.29318531230092" lon="7.981640053912997">
        <ele>69.59765625</ele>
        <time>2026-03-09T09:19:01Z</time>
      </trkpt>
      <trkpt lat="52.293351357802749" lon="7.981418520212174">
        <ele>70.50390625</ele>
        <time>2026-03-09T09:19:09Z</time>
      </trkpt>
      <trkpt lat="52.293571969494224" lon="7.981589175760746">
        <ele>69.90625</ele>
        <time>2026-03-09T09:19:17Z</time>
      </trkpt>
      <trkpt lat="52.29370323009789" lon="7.981816492974758">
        <ele>68.94921875</ele>
        <time>2026-03-09T09:19:21Z</time>
      </trkpt>
      <trkpt lat="52.293868185952306" lon="7.982088318094611">
        <ele>67.71484375</ele>
        <time>2026-03-09T09:19:25Z</time>
      </trkpt>
      <trkpt lat="52.294048732146621" lon="7.982395766302943">
        <ele>66.140625</ele>
        <time>2026-03-09T09:19:29Z</time>
      </trkpt>
      <trkpt lat="52.294246461242437" lon="7.982724756002426">
        <ele>64.52734375</ele>
        <time>2026-03-09T09:19:33Z</time>
      </trkpt>
      <trkpt lat="52.294447207823396" lon="7.983050309121609">
        <ele>63.6484375</ele>
        <time>2026-03-09T09:19:37Z</time>
      </trkpt>
      <trkpt lat="52.294641751796007" lon="7.983371084555984">
        <ele>62.6015625</ele>
        <time>2026-03-09T09:19:41Z</time>
      </trkpt>
      <trkpt lat="52.294827494770288" lon="7.983681047335267">
        <ele>62.09375</ele>
        <time>2026-03-09T09:19:45Z</time>
      </trkpt>
      <trkpt lat="52.295024804770947" lon="7.984023028984666">
        <ele>62.97265625</ele>
        <time>2026-03-09T09:19:49Z</time>
      </trkpt>
      <trkpt lat="52.295221360400319" lon="7.984335003420711">
        <ele>64.00390625</ele>
        <time>2026-03-09T09:19:53Z</time>
      </trkpt>
      <trkpt lat="52.295400146394968" lon="7.98460565507412">
        <ele>64.70703125</ele>
        <time>2026-03-09T09:19:57Z</time>
      </trkpt>
      <trkpt lat="52.295558648183942" lon="7.984837917611003">
        <ele>65.1015625</ele>
        <time>2026-03-09T09:20:01Z</time>
      </trkpt>
      <trkpt lat="52.29577356018126" lon="7.985037742182612">
        <ele>64.7890625</ele>
        <time>2026-03-09T09:20:07Z</time>
      </trkpt>
      <trkpt lat="52.295969780534506" lon="7.985198255628347">
        <ele>64.21484375</ele>
        <time>2026-03-09T09:20:11Z</time>
      </trkpt>
      <trkpt lat="52.29616834782064" lon="7.985310908406973">
        <ele>63.91796875</ele>
        <time>2026-03-09T09:20:15Z</time>
      </trkpt>
      <trkpt lat="52.296414859592915" lon="7.985484078526497">
        <ele>63.88671875</ele>
        <time>2026-03-09T09:20:21Z</time>
      </trkpt>
      <trkpt lat="52.296432461589575" lon="7.985193058848381">
        <ele>63.21875</ele>
        <time>2026-03-09T09:20:25Z</time>
      </trkpt>
      <trkpt lat="52.296468755230308" lon="7.984841521829367">
        <ele>63.35546875</ele>
        <time>2026-03-09T09:20:29Z</time>
      </trkpt>
      <trkpt lat="52.296538827940822" lon="7.984503312036395">
        <ele>63.546875</ele>
        <time>2026-03-09T09:20:33Z</time>
      </trkpt>
      <trkpt lat="52.296598758548498" lon="7.984177172183991">
        <ele>63.66015625</ele>
        <time>2026-03-09T09:20:37Z</time>
      </trkpt>
      <trkpt lat="52.296674279496074" lon="7.983849523589015">
        <ele>63.671875</ele>
        <time>2026-03-09T09:20:41Z</time>
      </trkpt>
      <trkpt lat="52.296751560643315" lon="7.983544673770666">
        <ele>63.5859375</ele>
        <time>2026-03-09T09:20:45Z</time>
      </trkpt>
      <trkpt lat="52.296833619475365" lon="7.98320185393095">
        <ele>63.53125</ele>
        <time>2026-03-09T09:20:49Z</time>
      </trkpt>
      <trkpt lat="52.296926826238632" lon="7.982855848968029">
        <ele>63.61328125</ele>
        <time>2026-03-09T09:20:53Z</time>
      </trkpt>
      <trkpt lat="52.297024140134454" lon="7.98254806548357">
        <ele>63.7734375</ele>
        <time>2026-03-09T09:20:57Z</time>
      </trkpt>
      <trkpt lat="52.297118520364165" lon="7.982214717194438">
        <ele>63.94921875</ele>
        <time>2026-03-09T09:21:01Z</time>
      </trkpt>
      <trkpt lat="52.297217510640621" lon="7.98188203945756">
        <ele>64.109375</ele>
        <time>2026-03-09T09:21:05Z</time>
      </trkpt>
      <trkpt lat="52.297324044629931" lon="7.981541147455573">
        <ele>63.95703125</ele>
        <time>2026-03-09T09:21:09Z</time>
      </trkpt>
      <trkpt lat="52.297410378232598" lon="7.981214169412851">
        <ele>63.83203125</ele>
        <time>2026-03-09T09:21:13Z</time>
      </trkpt>
      <trkpt lat="52.297515822574496" lon="7.980904625728726">
        <ele>63.765625</ele>
        <time>2026-03-09T09:21:17Z</time>
      </trkpt>
      <trkpt lat="52.297618668526411" lon="7.98055250197649">
        <ele>63.8125</ele>
        <time>2026-03-09T09:21:21Z</time>
      </trkpt>
      <trkpt lat="52.297707600519061" lon="7.98021144233644">
        <ele>63.95703125</ele>
        <time>2026-03-09T09:21:25Z</time>
      </trkpt>
      <trkpt lat="52.297813380137086" lon="7.979883793741465">
        <ele>64.1171875</ele>
        <time>2026-03-09T09:21:29Z</time>
      </trkpt>
      <trkpt lat="52.297932654619217" lon="7.979545500129461">
        <ele>64.171875</ele>
        <time>2026-03-09T09:21:33Z</time>
      </trkpt>
      <trkpt lat="52.298019994050264" lon="7.97921122983098">
        <ele>64.25</ele>
        <time>2026-03-09T09:21:37Z</time>
      </trkpt>
      <trkpt lat="52.29811898432672" lon="7.9788579326123">
        <ele>64.5546875</ele>
        <time>2026-03-09T09:21:41Z</time>
      </trkpt>
      <trkpt lat="52.298227529972792" lon="7.978520896285772">
        <ele>64.61328125</ele>
        <time>2026-03-09T09:21:45Z</time>
      </trkpt>
      <trkpt lat="52.298317970708013" lon="7.978187631815672">
        <ele>64.7578125</ele>
        <time>2026-03-09T09:21:49Z</time>
      </trkpt>
      <trkpt lat="52.298431880772114" lon="7.977845650166273">
        <ele>64.953125</ele>
        <time>2026-03-09T09:21:53Z</time>
      </trkpt>
      <trkpt lat="52.298537157475948" lon="7.977508027106524">
        <ele>65.0390625</ele>
        <time>2026-03-09T09:21:57Z</time>
      </trkpt>
      <trkpt lat="52.298632208257914" lon="7.977188508957624">
        <ele>64.703125</ele>
        <time>2026-03-09T09:22:01Z</time>
      </trkpt>
      <trkpt lat="52.298714434728026" lon="7.976848538964987">
        <ele>64.23828125</ele>
        <time>2026-03-09T09:22:05Z</time>
      </trkpt>
      <trkpt lat="52.298805881291628" lon="7.976518208160996">
        <ele>64.40234375</ele>
        <time>2026-03-09T09:22:09Z</time>
      </trkpt>
      <trkpt lat="52.29890369810164" lon="7.976178321987391">
        <ele>64.7578125</ele>
        <time>2026-03-09T09:22:13Z</time>
      </trkpt>
      <trkpt lat="52.298997240141034" lon="7.97584405168891">
        <ele>65.05078125</ele>
        <time>2026-03-09T09:22:17Z</time>
      </trkpt>
      <trkpt lat="52.29910503141582" lon="7.975517241284251">
        <ele>65.0546875</ele>
        <time>2026-03-09T09:22:21Z</time>
      </trkpt>
      <trkpt lat="52.299220869317651" lon="7.975208535790443">
        <ele>65.0078125</ele>
        <time>2026-03-09T09:22:25Z</time>
      </trkpt>
      <trkpt lat="52.299312148243189" lon="7.974883737042546">
        <ele>65.1953125</ele>
        <time>2026-03-09T09:22:29Z</time>
      </trkpt>
      <trkpt lat="52.299382891505957" lon="7.974545191973448">
        <ele>65.578125</ele>
        <time>2026-03-09T09:22:33Z</time>
      </trkpt>
      <trkpt lat="52.299490515142679" lon="7.974231624975801">
        <ele>65.99609375</ele>
        <time>2026-03-09T09:22:37Z</time>
      </trkpt>
      <trkpt lat="52.299590008333325" lon="7.973914537578821">
        <ele>66.69140625</ele>
        <time>2026-03-09T09:22:41Z</time>
      </trkpt>
      <trkpt lat="52.299685310572386" lon="7.973598958924413">
        <ele>67.21484375</ele>
        <time>2026-03-09T09:22:45Z</time>
      </trkpt>
      <trkpt lat="52.299786899238825" lon="7.973275585100055">
        <ele>67.56640625</ele>
        <time>2026-03-09T09:22:49Z</time>
      </trkpt>
      <trkpt lat="52.299884632229805" lon="7.97295531257987">
        <ele>67.8203125</ele>
        <time>2026-03-09T09:22:53Z</time>
      </trkpt>
      <trkpt lat="52.300000973045826" lon="7.972560692578554">
        <ele>67.8203125</ele>
        <time>2026-03-09T09:22:58Z</time>
      </trkpt>
      <trkpt lat="52.300102980807424" lon="7.972247209399939">
        <ele>67.359375</ele>
        <time>2026-03-09T09:23:02Z</time>
      </trkpt>
      <trkpt lat="52.300190990790725" lon="7.971925092861056">
        <ele>67.0625</ele>
        <time>2026-03-09T09:23:06Z</time>
      </trkpt>
      <trkpt lat="52.30027087032795" lon="7.971610939130187">
        <ele>66.98046875</ele>
        <time>2026-03-09T09:23:10Z</time>
      </trkpt>
      <trkpt lat="52.300356449559331" lon="7.971282955259085">
        <ele>66.96484375</ele>
        <time>2026-03-09T09:23:14Z</time>
      </trkpt>
      <trkpt lat="52.300471197813749" lon="7.970976429060102">
        <ele>66.78125</ele>
        <time>2026-03-09T09:23:18Z</time>
      </trkpt>
      <trkpt lat="52.300557950511575" lon="7.970667136833072">
        <ele>67.17578125</ele>
        <time>2026-03-09T09:23:22Z</time>
      </trkpt>
      <trkpt lat="52.300658281892538" lon="7.970359353348613">
        <ele>67.40234375</ele>
        <time>2026-03-09T09:23:26Z</time>
      </trkpt>
      <trkpt lat="52.300744699314237" lon="7.970051318407059">
        <ele>68.109375</ele>
        <time>2026-03-09T09:23:30Z</time>
      </trkpt>
      <trkpt lat="52.300835391506553" lon="7.969745211303234">
        <ele>69.3203125</ele>
        <time>2026-03-09T09:23:34Z</time>
      </trkpt>
      <trkpt lat="52.300907811149955" lon="7.969452263787389">
        <ele>70.34375</ele>
        <time>2026-03-09T09:23:38Z</time>
      </trkpt>
      <trkpt lat="52.300986181944609" lon="7.969171134755015">
        <ele>71.18359375</ele>
        <time>2026-03-09T09:23:42Z</time>
      </trkpt>
      <trkpt lat="52.301055667921901" lon="7.968881204724312">
        <ele>72.01171875</ele>
        <time>2026-03-09T09:23:46Z</time>
      </trkpt>
      <trkpt lat="52.301159771159291" lon="7.968493206426501">
        <ele>72.62109375</ele>
        <time>2026-03-09T09:23:52Z</time>
      </trkpt>
      <trkpt lat="52.301258929073811" lon="7.968115266412497">
        <ele>72.90625</ele>
        <time>2026-03-09T09:23:58Z</time>
      </trkpt>
      <trkpt lat="52.301347022876143" lon="7.967759286984801">
        <ele>73.1484375</ele>
        <time>2026-03-09T09:24:04Z</time>
      </trkpt>
      <trkpt lat="52.301440313458443" lon="7.967391153797507">
        <ele>73.26171875</ele>
        <time>2026-03-09T09:24:10Z</time>
      </trkpt>
      <trkpt lat="52.301524970680475" lon="7.967018662020564">
        <ele>73.64453125</ele>
        <time>2026-03-09T09:24:16Z</time>
      </trkpt>
      <trkpt lat="52.301608873531222" lon="7.966633345931768">
        <ele>73.85546875</ele>
        <time>2026-03-09T09:24:22Z</time>
      </trkpt>
      <trkpt lat="52.301696548238397" lon="7.96625423245132">
        <ele>73.66796875</ele>
        <time>2026-03-09T09:24:28Z</time>
      </trkpt>
      <trkpt lat="52.301789168268442" lon="7.965886266902089">
        <ele>73.41796875</ele>
        <time>2026-03-09T09:24:34Z</time>
      </trkpt>
      <trkpt lat="52.301853708922863" lon="7.965592565014958">
        <ele>73.52734375</ele>
        <time>2026-03-09T09:24:38Z</time>
      </trkpt>
      <trkpt lat="52.301924536004663" lon="7.96529995277524">
        <ele>73.5</ele>
        <time>2026-03-09T09:24:42Z</time>
      </trkpt>
      <trkpt lat="52.301999218761921" lon="7.965001054108143">
        <ele>73.203125</ele>
        <time>2026-03-09T09:24:46Z</time>
      </trkpt>
      <trkpt lat="52.302084714174271" lon="7.964698802679777">
        <ele>72.51171875</ele>
        <time>2026-03-09T09:24:50Z</time>
      </trkpt>
      <trkpt lat="52.302165180444717" lon="7.964375596493483">
        <ele>71.84765625</ele>
        <time>2026-03-09T09:24:54Z</time>
      </trkpt>
      <trkpt lat="52.302243551239371" lon="7.964043840765953">
        <ele>70.82421875</ele>
        <time>2026-03-09T09:24:58Z</time>
      </trkpt>
      <trkpt lat="52.302325610071421" lon="7.963697081431747">
        <ele>69.76171875</ele>
        <time>2026-03-09T09:25:02Z</time>
      </trkpt>
      <trkpt lat="52.302419571205974" lon="7.963320733979344">
        <ele>68.48828125</ele>
        <time>2026-03-09T09:25:06Z</time>
      </trkpt>
      <trkpt lat="52.302507162094116" lon="7.962931813672185">
        <ele>66.84765625</ele>
        <time>2026-03-09T09:25:10Z</time>
      </trkpt>
      <trkpt lat="52.302611349150538" lon="7.962508443742991">
        <ele>65.2734375</ele>
        <time>2026-03-09T09:25:14Z</time>
      </trkpt>
      <trkpt lat="52.302724337205291" lon="7.962052803486586">
        <ele>64.078125</ele>
        <time>2026-03-09T09:25:18Z</time>
      </trkpt>
      <trkpt lat="52.302855933085084" lon="7.961567239835858">
        <ele>63.08984375</ele>
        <time>2026-03-09T09:25:22Z</time>
      </trkpt>
      <trkpt lat="52.303028851747513" lon="7.961058877408505">
        <ele>62.42578125</ele>
        <time>2026-03-09T09:25:26Z</time>
      </trkpt>
      <trkpt lat="52.303224317729473" lon="7.960561830550432">
        <ele>61.328125</ele>
        <time>2026-03-09T09:25:30Z</time>
      </trkpt>
      <trkpt lat="52.303332192823291" lon="7.96031934209168">
        <ele>60.9140625</ele>
        <time>2026-03-09T09:25:32Z</time>
      </trkpt>
      <trkpt lat="52.303565377369523" lon="7.959914328530431">
        <ele>60.33203125</ele>
        <time>2026-03-09T09:25:36Z</time>
      </trkpt>
      <trkpt lat="52.303776349872351" lon="7.959585255011916">
        <ele>59.703125</ele>
        <time>2026-03-09T09:25:40Z</time>
      </trkpt>
      <trkpt lat="52.303993944078684" lon="7.959292139858007">
        <ele>59.0390625</ele>
        <time>2026-03-09T09:25:44Z</time>
      </trkpt>
      <trkpt lat="52.3042107000947" lon="7.959066415205598">
        <ele>59.2890625</ele>
        <time>2026-03-09T09:25:48Z</time>
      </trkpt>
      <trkpt lat="52.30441982857883" lon="7.958900118246675">
        <ele>59.58984375</ele>
        <time>2026-03-09T09:25:52Z</time>
      </trkpt>
      <trkpt lat="52.304628118872643" lon="7.958760978654027">
        <ele>59.92578125</ele>
        <time>2026-03-09T09:25:56Z</time>
      </trkpt>
      <trkpt lat="52.304830374196172" lon="7.958585545420647">
        <ele>60.1640625</ele>
        <time>2026-03-09T09:26:00Z</time>
      </trkpt>
      <trkpt lat="52.305024331435561" lon="7.958419835194945">
        <ele>60.1953125</ele>
        <time>2026-03-09T09:26:04Z</time>
      </trkpt>
      <trkpt lat="52.305214013904333" lon="7.958268038928509">
        <ele>60.23828125</ele>
        <time>2026-03-09T09:26:08Z</time>
      </trkpt>
      <trkpt lat="52.305410820990801" lon="7.958079865202308">
        <ele>60.25</ele>
        <time>2026-03-09T09:26:12Z</time>
      </trkpt>
      <trkpt lat="52.305452562868595" lon="7.957731848582625">
        <ele>59.8828125</ele>
        <time>2026-03-09T09:26:16Z</time>
      </trkpt>
      <trkpt lat="52.305446779355407" lon="7.957369415089488">
        <ele>59.58984375</ele>
        <time>2026-03-09T09:26:20Z</time>
      </trkpt>
      <trkpt lat="52.305450635030866" lon="7.957038162276149">
        <ele>59.3671875</ele>
        <time>2026-03-09T09:26:24Z</time>
      </trkpt>
      <trkpt lat="52.305450299754739" lon="7.956717554479837">
        <ele>59.3125</ele>
        <time>2026-03-09T09:26:28Z</time>
      </trkpt>
      <trkpt lat="52.305445605888963" lon="7.956335674971342">
        <ele>59.671875</ele>
        <time>2026-03-09T09:26:34Z</time>
      </trkpt>
      <trkpt lat="52.305467147380114" lon="7.956041218712926">
        <ele>59.9453125</ele>
        <time>2026-03-09T09:26:52Z</time>
      </trkpt>
      <trkpt lat="52.305455999448895" lon="7.955642491579056">
        <ele>59.67578125</ele>
        <time>2026-03-09T09:26:58Z</time>
      </trkpt>
      <trkpt lat="52.30545474216342" lon="7.955310149118304">
        <ele>59.359375</ele>
        <time>2026-03-09T09:27:02Z</time>
      </trkpt>
      <trkpt lat="52.305444935336709" lon="7.954981327056885">
        <ele>58.90234375</ele>
        <time>2026-03-09T09:27:06Z</time>
      </trkpt>
      <trkpt lat="52.305448539555073" lon="7.954619899392128">
        <ele>58.21875</ele>
        <time>2026-03-09T09:27:10Z</time>
      </trkpt>
      <trkpt lat="52.305432446300983" lon="7.954220417886972">
        <ele>57.71484375</ele>
        <time>2026-03-09T09:27:14Z</time>
      </trkpt>
      <trkpt lat="52.30542398057878" lon="7.953819260001183">
        <ele>57.74609375</ele>
        <time>2026-03-09T09:27:18Z</time>
      </trkpt>
      <trkpt lat="52.305418448522687" lon="7.953445175662637">
        <ele>57.71484375</ele>
        <time>2026-03-09T09:27:22Z</time>
      </trkpt>
      <trkpt lat="52.305425154045224" lon="7.95307151041925">
        <ele>57.2421875</ele>
        <time>2026-03-09T09:27:26Z</time>
      </trkpt>
      <trkpt lat="52.305425237864256" lon="7.952718883752823">
        <ele>56.81640625</ele>
        <time>2026-03-09T09:27:30Z</time>
      </trkpt>
      <trkpt lat="52.305426662787795" lon="7.952385535463691">
        <ele>57.30078125</ele>
        <time>2026-03-09T09:27:34Z</time>
      </trkpt>
      <trkpt lat="52.305416101589799" lon="7.952052354812622">
        <ele>58.03125</ele>
        <time>2026-03-09T09:27:38Z</time>
      </trkpt>
      <trkpt lat="52.305414592847228" lon="7.951722024008632">
        <ele>58.60546875</ele>
        <time>2026-03-09T09:27:42Z</time>
      </trkpt>
      <trkpt lat="52.305418280884624" lon="7.951393285766244">
        <ele>58.89453125</ele>
        <time>2026-03-09T09:27:46Z</time>
      </trkpt>
      <trkpt lat="52.305415011942387" lon="7.951059602200985">
        <ele>59.1953125</ele>
        <time>2026-03-09T09:27:50Z</time>
      </trkpt>
      <trkpt lat="52.30541517958045" lon="7.950726924464107">
        <ele>59.57421875</ele>
        <time>2026-03-09T09:27:54Z</time>
      </trkpt>
      <trkpt lat="52.305406210944057" lon="7.950389636680484">
        <ele>59.98828125</ele>
        <time>2026-03-09T09:27:58Z</time>
      </trkpt>
      <trkpt lat="52.305398499593139" lon="7.950046481564641">
        <ele>60.484375</ele>
        <time>2026-03-09T09:28:02Z</time>
      </trkpt>
      <trkpt lat="52.305402271449566" lon="7.949712546542287">
        <ele>61.09765625</ele>
        <time>2026-03-09T09:28:06Z</time>
      </trkpt>
      <trkpt lat="52.305396068841219" lon="7.949395962059498">
        <ele>61.70703125</ele>
        <time>2026-03-09T09:28:10Z</time>
      </trkpt>
      <trkpt lat="52.305544093251228" lon="7.9491610173136">
        <ele>61.484375</ele>
        <time>2026-03-09T09:28:16Z</time>
      </trkpt>
      <trkpt lat="52.305714329704642" lon="7.949296049773693">
        <ele>60.9296875</ele>
        <time>2026-03-09T09:28:20Z</time>
      </trkpt>
      <trkpt lat="52.305916417390108" lon="7.949468633159995">
        <ele>60.48046875</ele>
        <time>2026-03-09T09:28:24Z</time>
      </trkpt>
      <trkpt lat="52.306130910292268" lon="7.949628392234445">
        <ele>60.03125</ele>
        <time>2026-03-09T09:28:28Z</time>
      </trkpt>
      <trkpt lat="52.306334087625146" lon="7.949777171015739">
        <ele>59.609375</ele>
        <time>2026-03-09T09:28:32Z</time>
      </trkpt>
      <trkpt lat="52.306542880833149" lon="7.949936427175999">
        <ele>59.33203125</ele>
        <time>2026-03-09T09:28:36Z</time>
      </trkpt>
      <trkpt lat="52.306734239682555" lon="7.950090486556292">
        <ele>59.37890625</ele>
        <time>2026-03-09T09:28:40Z</time>
      </trkpt>
      <trkpt lat="52.306924927979708" lon="7.950227111577988">
        <ele>59.5546875</ele>
        <time>2026-03-09T09:28:44Z</time>
      </trkpt>
      <trkpt lat="52.307118885219097" lon="7.950387457385659">
        <ele>59.78515625</ele>
        <time>2026-03-09T09:28:48Z</time>
      </trkpt>
      <trkpt lat="52.307312339544296" lon="7.950568841770291">
        <ele>60.01953125</ele>
        <time>2026-03-09T09:28:52Z</time>
      </trkpt>
      <trkpt lat="52.307555666193366" lon="7.950643105432391">
        <ele>60.2578125</ele>
        <time>2026-03-09T09:28:56Z</time>
      </trkpt>
      <trkpt lat="52.307798657566309" lon="7.950610918924213">
        <ele>60.546875</ele>
        <time>2026-03-09T09:29:00Z</time>
      </trkpt>
      <trkpt lat="52.308028321713209" lon="7.950563477352262">
        <ele>60.8984375</ele>
        <time>2026-03-09T09:29:04Z</time>
      </trkpt>
      <trkpt lat="52.308248430490494" lon="7.950522322207689">
        <ele>60.8984375</ele>
        <time>2026-03-09T09:29:08Z</time>
      </trkpt>
      <trkpt lat="52.308471640571952" lon="7.950490806251764">
        <ele>60.5390625</ele>
        <time>2026-03-09T09:29:12Z</time>
      </trkpt>
      <trkpt lat="52.308684289455414" lon="7.950471360236406">
        <ele>60.16015625</ele>
        <time>2026-03-09T09:29:16Z</time>
      </trkpt>
      <trkpt lat="52.308895932510495" lon="7.950466331094503">
        <ele>59.7578125</ele>
        <time>2026-03-09T09:29:20Z</time>
      </trkpt>
      <trkpt lat="52.309108749032021" lon="7.950486112385988">
        <ele>59.359375</ele>
        <time>2026-03-09T09:29:24Z</time>
      </trkpt>
      <trkpt lat="52.309313267469406" lon="7.950527686625719">
        <ele>58.9453125</ele>
        <time>2026-03-09T09:29:28Z</time>
      </trkpt>
      <trkpt lat="52.309520551934838" lon="7.950559537857771">
        <ele>58.51953125</ele>
        <time>2026-03-09T09:29:32Z</time>
      </trkpt>
      <trkpt lat="52.309713670983911" lon="7.950591472908855">
        <ele>58.1015625</ele>
        <time>2026-03-09T09:29:36Z</time>
      </trkpt>
      <trkpt lat="52.309903604909778" lon="7.950666574761272">
        <ele>58.296875</ele>
        <time>2026-03-09T09:29:40Z</time>
      </trkpt>
      <trkpt lat="52.31008599512279" lon="7.950688870623708">
        <ele>59.12109375</ele>
        <time>2026-03-09T09:29:46Z</time>
      </trkpt>
      <trkpt lat="52.310279197990894" lon="7.950370609760284">
        <ele>60.8125</ele>
        <time>2026-03-09T09:29:52Z</time>
      </trkpt>
      <trkpt lat="52.310416325926781" lon="7.950097108259797">
        <ele>62.28515625</ele>
        <time>2026-03-09T09:29:56Z</time>
      </trkpt>
      <trkpt lat="52.310567451640964" lon="7.949842130765319">
        <ele>64.24609375</ele>
        <time>2026-03-09T09:30:00Z</time>
      </trkpt>
      <trkpt lat="52.310711620375514" lon="7.949623614549637">
        <ele>65.5390625</ele>
        <time>2026-03-09T09:30:04Z</time>
      </trkpt>
      <trkpt lat="52.310857800766826" lon="7.949368553236127">
        <ele>66.3046875</ele>
        <time>2026-03-09T09:30:08Z</time>
      </trkpt>
      <trkpt lat="52.311014290899038" lon="7.949162526056171">
        <ele>66.17578125</ele>
        <time>2026-03-09T09:30:12Z</time>
      </trkpt>
      <trkpt lat="52.311167260631919" lon="7.948925904929638">
        <ele>65.87109375</ele>
        <time>2026-03-09T09:30:16Z</time>
      </trkpt>
      <trkpt lat="52.311319727450609" lon="7.948689199984074">
        <ele>65.46484375</ele>
        <time>2026-03-09T09:30:20Z</time>
      </trkpt>
      <trkpt lat="52.311476301401854" lon="7.948444448411465">
        <ele>64.9609375</ele>
        <time>2026-03-09T09:30:24Z</time>
      </trkpt>
      <trkpt lat="52.31163295917213" lon="7.948199110105634">
        <ele>64.65625</ele>
        <time>2026-03-09T09:30:28Z</time>
      </trkpt>
      <trkpt lat="52.311801770702004" lon="7.947930805385113">
        <ele>64.45703125</ele>
        <time>2026-03-09T09:30:32Z</time>
      </trkpt>
      <trkpt lat="52.31196915730834" lon="7.947655543684959">
        <ele>64.390625</ele>
        <time>2026-03-09T09:30:36Z</time>
      </trkpt>
      <trkpt lat="52.312133777886629" lon="7.947417329996824">
        <ele>64.19140625</ele>
        <time>2026-03-09T09:30:40Z</time>
      </trkpt>
      <trkpt lat="52.312334440648556" lon="7.94736485928297">
        <ele>63.94921875</ele>
        <time>2026-03-09T09:30:46Z</time>
      </trkpt>
      <trkpt lat="52.312567457556725" lon="7.94720602221787">
        <ele>63.46484375</ele>
        <time>2026-03-09T09:30:52Z</time>
      </trkpt>
      <trkpt lat="52.312738867476583" lon="7.947030253708363">
        <ele>62.7890625</ele>
        <time>2026-03-09T09:30:56Z</time>
      </trkpt>
      <trkpt lat="52.312924358993769" lon="7.946960097178817">
        <ele>62.09765625</ele>
        <time>2026-03-09T09:31:00Z</time>
      </trkpt>
      <trkpt lat="52.313104569911957" lon="7.947028242051601">
        <ele>61.79296875</ele>
        <time>2026-03-09T09:31:04Z</time>
      </trkpt>
      <trkpt lat="52.313377149403095" lon="7.947133183479309">
        <ele>61.921875</ele>
        <time>2026-03-09T09:31:10Z</time>
      </trkpt>
      <trkpt lat="52.313610669225454" lon="7.947192443534732">
        <ele>62</ele>
        <time>2026-03-09T09:31:16Z</time>
      </trkpt>
      <trkpt lat="52.313849050551653" lon="7.947324626147747">
        <ele>62.453125</ele>
        <time>2026-03-09T09:31:22Z</time>
      </trkpt>
      <trkpt lat="52.314117858186364" lon="7.947400147095323">
        <ele>62.6328125</ele>
        <time>2026-03-09T09:31:28Z</time>
      </trkpt>
      <trkpt lat="52.314353892579675" lon="7.947382880374789">
        <ele>62.36328125</ele>
        <time>2026-03-09T09:31:32Z</time>
      </trkpt>
      <trkpt lat="52.314601242542267" lon="7.947421856224537">
        <ele>62.31640625</ele>
        <time>2026-03-09T09:31:36Z</time>
      </trkpt>
      <trkpt lat="52.314822357147932" lon="7.947494275867939">
        <ele>62.375</ele>
        <time>2026-03-09T09:31:40Z</time>
      </trkpt>
      <trkpt lat="52.315048417076468" lon="7.947568539530039">
        <ele>62.37109375</ele>
        <time>2026-03-09T09:31:44Z</time>
      </trkpt>
      <trkpt lat="52.315257210284472" lon="7.947660153731704">
        <ele>62.44921875</ele>
        <time>2026-03-09T09:31:48Z</time>
      </trkpt>
      <trkpt lat="52.315474301576614" lon="7.947800718247891">
        <ele>62.5546875</ele>
        <time>2026-03-09T09:31:52Z</time>
      </trkpt>
      <trkpt lat="52.315670438110828" lon="7.947996854782105">
        <ele>62.59375</ele>
        <time>2026-03-09T09:31:56Z</time>
      </trkpt>
      <trkpt lat="52.31587328016758" lon="7.948192488402128">
        <ele>62.08984375</ele>
        <time>2026-03-09T09:32:00Z</time>
      </trkpt>
      <trkpt lat="52.316087689250708" lon="7.948406562209129">
        <ele>61.57421875</ele>
        <time>2026-03-09T09:32:04Z</time>
      </trkpt>
      <trkpt lat="52.316292794421315" lon="7.948577050119638">
        <ele>61.3515625</ele>
        <time>2026-03-09T09:32:08Z</time>
      </trkpt>
      <trkpt lat="52.316503934562206" lon="7.94874963350594">
        <ele>61.37109375</ele>
        <time>2026-03-09T09:32:12Z</time>
      </trkpt>
      <trkpt lat="52.316692611202598" lon="7.948939232155681">
        <ele>61.6953125</ele>
        <time>2026-03-09T09:32:16Z</time>
      </trkpt>
      <trkpt lat="52.316849352791905" lon="7.949174176901579">
        <ele>62.3046875</ele>
        <time>2026-03-09T09:32:20Z</time>
      </trkpt>
      <trkpt lat="52.316996119916439" lon="7.94942295178771">
        <ele>63.46875</ele>
        <time>2026-03-09T09:32:24Z</time>
      </trkpt>
      <trkpt lat="52.317142635583878" lon="7.949666613712907">
        <ele>64.765625</ele>
        <time>2026-03-09T09:32:28Z</time>
      </trkpt>
      <trkpt lat="52.31728739105165" lon="7.949919495731592">
        <ele>65.328125</ele>
        <time>2026-03-09T09:32:32Z</time>
      </trkpt>
      <trkpt lat="52.317430134862661" lon="7.950171707198024">
        <ele>65.9140625</ele>
        <time>2026-03-09T09:32:36Z</time>
      </trkpt>
      <trkpt lat="52.31757421977818" lon="7.950429450720549">
        <ele>66.140625</ele>
        <time>2026-03-09T09:32:40Z</time>
      </trkpt>
      <trkpt lat="52.317697685211897" lon="7.950690379366279">
        <ele>66.46875</ele>
        <time>2026-03-09T09:32:44Z</time>
      </trkpt>
      <trkpt lat="52.31780681759119" lon="7.950995564460754">
        <ele>67.0546875</ele>
        <time>2026-03-09T09:32:48Z</time>
      </trkpt>
      <trkpt lat="52.317896503955126" lon="7.951336959376931">
        <ele>67.27734375</ele>
        <time>2026-03-09T09:32:52Z</time>
      </trkpt>
      <trkpt lat="52.317994236946106" lon="7.951652621850371">
        <ele>67.80859375</ele>
        <time>2026-03-09T09:32:56Z</time>
      </trkpt>
      <trkpt lat="52.318142931908369" lon="7.951891757547855">
        <ele>68.19140625</ele>
        <time>2026-03-09T09:33:00Z</time>
      </trkpt>
      <trkpt lat="52.318296739831567" lon="7.952098790556192">
        <ele>68.0078125</ele>
        <time>2026-03-09T09:33:04Z</time>
      </trkpt>
      <trkpt lat="52.318458091467619" lon="7.952282186597586">
        <ele>67.57421875</ele>
        <time>2026-03-09T09:33:08Z</time>
      </trkpt>
      <trkpt lat="52.318695550784469" lon="7.952443454414606">
        <ele>66.34765625</ele>
        <time>2026-03-09T09:33:12Z</time>
      </trkpt>
      <trkpt lat="52.318933261558414" lon="7.952555269002914">
        <ele>64.828125</ele>
        <time>2026-03-09T09:33:16Z</time>
      </trkpt>
      <trkpt lat="52.319176169112325" lon="7.952661048620939">
        <ele>63.44921875</ele>
        <time>2026-03-09T09:33:20Z</time>
      </trkpt>
      <trkpt lat="52.319416562095284" lon="7.952759619802237">
        <ele>62.16015625</ele>
        <time>2026-03-09T09:33:24Z</time>
      </trkpt>
      <trkpt lat="52.319648656994104" lon="7.952872272580862">
        <ele>60.70703125</ele>
        <time>2026-03-09T09:33:28Z</time>
      </trkpt>
      <trkpt lat="52.319876812398434" lon="7.952990708872676">
        <ele>59.3828125</ele>
        <time>2026-03-09T09:33:32Z</time>
      </trkpt>
      <trkpt lat="52.320109745487571" lon="7.953103696927428">
        <ele>58.53515625</ele>
        <time>2026-03-09T09:33:36Z</time>
      </trkpt>
      <trkpt lat="52.320356173440814" lon="7.953236801549792">
        <ele>57.671875</ele>
        <time>2026-03-09T09:33:40Z</time>
      </trkpt>
      <trkpt lat="52.320600505918264" lon="7.953367307782173">
        <ele>56.8125</ele>
        <time>2026-03-09T09:33:44Z</time>
      </trkpt>
      <trkpt lat="52.320828661322594" lon="7.953508626669645">
        <ele>56.81640625</ele>
        <time>2026-03-09T09:33:48Z</time>
      </trkpt>
      <trkpt lat="52.321038376539946" lon="7.95371457003057">
        <ele>57.04296875</ele>
        <time>2026-03-09T09:33:52Z</time>
      </trkpt>
      <trkpt lat="52.321231411769986" lon="7.953915065154433">
        <ele>57.0546875</ele>
        <time>2026-03-09T09:33:56Z</time>
      </trkpt>
      <trkpt lat="52.321427799761295" lon="7.95412939041853">
        <ele>56.8515625</ele>
        <time>2026-03-09T09:34:00Z</time>
      </trkpt>
      <trkpt lat="52.321618068963289" lon="7.954336674883962">
        <ele>57.62109375</ele>
        <time>2026-03-09T09:34:04Z</time>
      </trkpt>
      <trkpt lat="52.321801548823714" lon="7.954540438950062">
        <ele>58.55859375</ele>
        <time>2026-03-09T09:34:08Z</time>
      </trkpt>
      <trkpt lat="52.321983939036727" lon="7.95473288744688">
        <ele>59.26953125</ele>
        <time>2026-03-09T09:34:12Z</time>
      </trkpt>
      <trkpt lat="52.322166664525867" lon="7.954937154427171">
        <ele>59.78125</ele>
        <time>2026-03-09T09:34:16Z</time>
      </trkpt>
      <trkpt lat="52.322351736947894" lon="7.955142846331">
        <ele>59.61328125</ele>
        <time>2026-03-09T09:34:20Z</time>
      </trkpt>
      <trkpt lat="52.322547370567918" lon="7.955347700044513">
        <ele>58.1171875</ele>
        <time>2026-03-09T09:34:24Z</time>
      </trkpt>
      <trkpt lat="52.32273755595088" lon="7.955530509352684">
        <ele>56.87890625</ele>
        <time>2026-03-09T09:34:28Z</time>
      </trkpt>
      <trkpt lat="52.322913240641356" lon="7.955555822700262">
        <ele>56</ele>
        <time>2026-03-09T09:34:34Z</time>
      </trkpt>
      <trkpt lat="52.32297845184803" lon="7.955116527155042">
        <ele>55.88671875</ele>
        <time>2026-03-09T09:34:40Z</time>
      </trkpt>
      <trkpt lat="52.323044249787927" lon="7.954766247421503">
        <ele>55.875</ele>
        <time>2026-03-09T09:34:44Z</time>
      </trkpt>
      <trkpt lat="52.32310158200562" lon="7.954417057335377">
        <ele>55.97265625</ele>
        <time>2026-03-09T09:34:48Z</time>
      </trkpt>
      <trkpt lat="52.323170900344849" lon="7.95408152975142">
        <ele>55.921875</ele>
        <time>2026-03-09T09:34:52Z</time>
      </trkpt>
      <trkpt lat="52.323255892843008" lon="7.953767292201519">
        <ele>55.7265625</ele>
        <time>2026-03-09T09:34:56Z</time>
      </trkpt>
      <trkpt lat="52.323361421003938" lon="7.953443834558129">
        <ele>55.3828125</ele>
        <time>2026-03-09T09:35:00Z</time>
      </trkpt>
      <trkpt lat="52.323480946943164" lon="7.953158430755138">
        <ele>54.91015625</ele>
        <time>2026-03-09T09:35:04Z</time>
      </trkpt>
      <trkpt lat="52.323618661612272" lon="7.95290102250874">
        <ele>54.51953125</ele>
        <time>2026-03-09T09:35:08Z</time>
      </trkpt>
      <trkpt lat="52.323752352967858" lon="7.95265325345099">
        <ele>54.2421875</ele>
        <time>2026-03-09T09:35:12Z</time>
      </trkpt>
      <trkpt lat="52.323913034051657" lon="7.952464744448662">
        <ele>54.25390625</ele>
        <time>2026-03-09T09:35:16Z</time>
      </trkpt>
      <trkpt lat="52.324103387072682" lon="7.95230682939291">
        <ele>54.62890625</ele>
        <time>2026-03-09T09:35:20Z</time>
      </trkpt>
      <trkpt lat="52.324282340705395" lon="7.952151596546173">
        <ele>54.91796875</ele>
        <time>2026-03-09T09:35:24Z</time>
      </trkpt>
      <trkpt lat="52.324345540255308" lon="7.951823528856039">
        <ele>55</ele>
        <time>2026-03-09T09:35:30Z</time>
      </trkpt>
      <trkpt lat="52.32428016141057" lon="7.951473668217659">
        <ele>54.1640625</ele>
        <time>2026-03-09T09:35:34Z</time>
      </trkpt>
      <trkpt lat="52.324245208874345" lon="7.951074270531535">
        <ele>53.20703125</ele>
        <time>2026-03-09T09:35:38Z</time>
      </trkpt>
      <trkpt lat="52.324238587170839" lon="7.950670262798667">
        <ele>53</ele>
        <time>2026-03-09T09:35:42Z</time>
      </trkpt>
      <trkpt lat="52.324240850284696" lon="7.9502834379673">
        <ele>53</ele>
        <time>2026-03-09T09:35:46Z</time>
      </trkpt>
      <trkpt lat="52.324235402047634" lon="7.949908683076501">
        <ele>53.6875</ele>
        <time>2026-03-09T09:35:50Z</time>
      </trkpt>
      <trkpt lat="52.32420246116817" lon="7.949550272896886">
        <ele>54.74609375</ele>
        <time>2026-03-09T09:35:54Z</time>
      </trkpt>
      <trkpt lat="52.324112020432949" lon="7.949223797768354">
        <ele>56.05078125</ele>
        <time>2026-03-09T09:35:58Z</time>
      </trkpt>
      <trkpt lat="52.324035996571183" lon="7.948916014283896">
        <ele>57.65625</ele>
        <time>2026-03-09T09:36:02Z</time>
      </trkpt>
      <trkpt lat="52.323994338512421" lon="7.948604123666883">
        <ele>59.26953125</ele>
        <time>2026-03-09T09:36:06Z</time>
      </trkpt>
      <trkpt lat="52.323964666575193" lon="7.948303800076246">
        <ele>60.1640625</ele>
        <time>2026-03-09T09:36:10Z</time>
      </trkpt>
      <trkpt lat="52.323933653533459" lon="7.947967685759068">
        <ele>60.703125</ele>
        <time>2026-03-09T09:36:14Z</time>
      </trkpt>
      <trkpt lat="52.323895851150155" lon="7.947623776271939">
        <ele>61.19921875</ele>
        <time>2026-03-09T09:36:18Z</time>
      </trkpt>
      <trkpt lat="52.323845140635967" lon="7.947174506261945">
        <ele>60.58203125</ele>
        <time>2026-03-09T09:36:24Z</time>
      </trkpt>
      <trkpt lat="52.323812199756503" lon="7.946835709735751">
        <ele>60.19921875</ele>
        <time>2026-03-09T09:36:28Z</time>
      </trkpt>
      <trkpt lat="52.323764255270362" lon="7.946486854925752">
        <ele>59.55078125</ele>
        <time>2026-03-09T09:36:32Z</time>
      </trkpt>
      <trkpt lat="52.323715388774872" lon="7.946147471666336">
        <ele>59.01953125</ele>
        <time>2026-03-09T09:36:36Z</time>
      </trkpt>
      <trkpt lat="52.32367523945868" lon="7.945816470310092">
        <ele>58.578125</ele>
        <time>2026-03-09T09:36:40Z</time>
      </trkpt>
      <trkpt lat="52.32363224029541" lon="7.945502148941159">
        <ele>58.1953125</ele>
        <time>2026-03-09T09:36:44Z</time>
      </trkpt>
      <trkpt lat="52.323591588065028" lon="7.945166788995266">
        <ele>57.625</ele>
        <time>2026-03-09T09:36:48Z</time>
      </trkpt>
      <trkpt lat="52.32351103797555" lon="7.94483277015388">
        <ele>57.55859375</ele>
        <time>2026-03-09T09:36:52Z</time>
      </trkpt>
      <trkpt lat="52.323407856747508" lon="7.944512329995632">
        <ele>57.40234375</ele>
        <time>2026-03-09T09:36:56Z</time>
      </trkpt>
      <trkpt lat="52.323302999138832" lon="7.944178814068437">
        <ele>57.578125</ele>
        <time>2026-03-09T09:37:00Z</time>
      </trkpt>
      <trkpt lat="52.323240051046014" lon="7.94384035281837">
        <ele>58.48046875</ele>
        <time>2026-03-09T09:37:04Z</time>
      </trkpt>
      <trkpt lat="52.323221527040005" lon="7.94349585659802">
        <ele>59.26171875</ele>
        <time>2026-03-09T09:37:08Z</time>
      </trkpt>
      <trkpt lat="52.323210127651691" lon="7.943144235759974">
        <ele>59.44140625</ele>
        <time>2026-03-09T09:37:12Z</time>
      </trkpt>
      <trkpt lat="52.323200069367886" lon="7.942826142534614">
        <ele>59.578125</ele>
        <time>2026-03-09T09:37:16Z</time>
      </trkpt>
      <trkpt lat="52.323189005255699" lon="7.942518778145313">
        <ele>59.35546875</ele>
        <time>2026-03-09T09:37:20Z</time>
      </trkpt>
      <trkpt lat="52.323175761848688" lon="7.942191045731306">
        <ele>58.6796875</ele>
        <time>2026-03-09T09:37:24Z</time>
      </trkpt>
      <trkpt lat="52.323179868981242" lon="7.941893571987748">
        <ele>58.00390625</ele>
        <time>2026-03-09T09:37:28Z</time>
      </trkpt>
      <trkpt lat="52.32318707741797" lon="7.941559217870235">
        <ele>57.56640625</ele>
        <time>2026-03-09T09:37:34Z</time>
      </trkpt>
      <trkpt lat="52.323191268369555" lon="7.941209441050887">
        <ele>57.21484375</ele>
        <time>2026-03-09T09:37:40Z</time>
      </trkpt>
      <trkpt lat="52.323214067146182" lon="7.940848600119352">
        <ele>57</ele>
        <time>2026-03-09T09:37:44Z</time>
      </trkpt>
      <trkpt lat="52.323240470141172" lon="7.940491698682308">
        <ele>57</ele>
        <time>2026-03-09T09:37:48Z</time>
      </trkpt>
      <trkpt lat="52.32328288257122" lon="7.940158434212208">
        <ele>56.99609375</ele>
        <time>2026-03-09T09:37:52Z</time>
      </trkpt>
      <trkpt lat="52.32332294806838" lon="7.939810082316399">
        <ele>56.78515625</ele>
        <time>2026-03-09T09:37:56Z</time>
      </trkpt>
      <trkpt lat="52.323369719088078" lon="7.939474303275347">
        <ele>56.66796875</ele>
        <time>2026-03-09T09:38:00Z</time>
      </trkpt>
      <trkpt lat="52.323423363268375" lon="7.939149169251323">
        <ele>57.1796875</ele>
        <time>2026-03-09T09:38:04Z</time>
      </trkpt>
      <trkpt lat="52.323486730456352" lon="7.938821101561189">
        <ele>58.296875</ele>
        <time>2026-03-09T09:38:08Z</time>
      </trkpt>
      <trkpt lat="52.323564179241657" lon="7.938509713858366">
        <ele>59.625</ele>
        <time>2026-03-09T09:38:12Z</time>
      </trkpt>
      <trkpt lat="52.323682364076376" lon="7.938169240951538">
        <ele>61.4375</ele>
        <time>2026-03-09T09:38:17Z</time>
      </trkpt>
      <trkpt lat="52.323784288018942" lon="7.937906216830015">
        <ele>63.25</ele>
        <time>2026-03-09T09:38:21Z</time>
      </trkpt>
      <trkpt lat="52.323883194476366" lon="7.937642522156239">
        <ele>65.2265625</ele>
        <time>2026-03-09T09:38:25Z</time>
      </trkpt>
      <trkpt lat="52.324015377089381" lon="7.937273969873786">
        <ele>66.55078125</ele>
        <time>2026-03-09T09:38:31Z</time>
      </trkpt>
      <trkpt lat="52.324149990454316" lon="7.936918325722218">
        <ele>68.20703125</ele>
        <time>2026-03-09T09:38:37Z</time>
      </trkpt>
      <trkpt lat="52.324280077591538" lon="7.936611715704203">
        <ele>69.01171875</ele>
        <time>2026-03-09T09:38:43Z</time>
      </trkpt>
      <trkpt lat="52.324412679299712" lon="7.936284402385354">
        <ele>69.125</ele>
        <time>2026-03-09T09:38:49Z</time>
      </trkpt>
      <trkpt lat="52.324559697881341" lon="7.935976954177022">
        <ele>69.18359375</ele>
        <time>2026-03-09T09:38:55Z</time>
      </trkpt>
      <trkpt lat="52.324722558259964" lon="7.935642935335636">
        <ele>69.20703125</ele>
        <time>2026-03-09T09:39:01Z</time>
      </trkpt>
      <trkpt lat="52.324856501072645" lon="7.935368260368705">
        <ele>69.2421875</ele>
        <time>2026-03-09T09:39:05Z</time>
      </trkpt>
      <trkpt lat="52.324978038668633" lon="7.935033906251192">
        <ele>69.26171875</ele>
        <time>2026-03-09T09:39:09Z</time>
      </trkpt>
      <trkpt lat="52.325145257636905" lon="7.934762584045529">
        <ele>70.5234375</ele>
        <time>2026-03-09T09:39:13Z</time>
      </trkpt>
      <trkpt lat="52.325290180742741" lon="7.934467289596796">
        <ele>71.25</ele>
        <time>2026-03-09T09:39:17Z</time>
      </trkpt>
      <trkpt lat="52.325410461053252" lon="7.934147603809834">
        <ele>71.86328125</ele>
        <time>2026-03-09T09:39:21Z</time>
      </trkpt>
      <trkpt lat="52.325520599260926" lon="7.933856584131718">
        <ele>72.328125</ele>
        <time>2026-03-09T09:39:25Z</time>
      </trkpt>
      <trkpt lat="52.325647501274943" lon="7.933574113994837">
        <ele>72.27734375</ele>
        <time>2026-03-09T09:39:29Z</time>
      </trkpt>
      <trkpt lat="52.325760154053569" lon="7.93327328749001">
        <ele>71.23046875</ele>
        <time>2026-03-09T09:39:33Z</time>
      </trkpt>
      <trkpt lat="52.325861910358071" lon="7.933026105165482">
        <ele>70.4609375</ele>
        <time>2026-03-09T09:39:37Z</time>
      </trkpt>
      <trkpt lat="52.325988812372088" lon="7.932738270610571">
        <ele>69.6640625</ele>
        <time>2026-03-09T09:39:41Z</time>
      </trkpt>
      <trkpt lat="52.32612082734704" lon="7.932473318651319">
        <ele>69.328125</ele>
        <time>2026-03-09T09:39:45Z</time>
      </trkpt>
      <trkpt lat="52.326309671625495" lon="7.932156398892403">
        <ele>69.515625</ele>
        <time>2026-03-09T09:39:51Z</time>
      </trkpt>
      <trkpt lat="52.326437411829829" lon="7.931903768330813">
        <ele>69.9375</ele>
        <time>2026-03-09T09:39:55Z</time>
      </trkpt>
      <trkpt lat="52.326596835628152" lon="7.931651640683413">
        <ele>69.90625</ele>
        <time>2026-03-09T09:39:59Z</time>
      </trkpt>
      <trkpt lat="52.326791798695922" lon="7.931405380368233">
        <ele>69.89453125</ele>
        <time>2026-03-09T09:40:03Z</time>
      </trkpt>
      <trkpt lat="52.326976368203759" lon="7.931188372895122">
        <ele>70.0546875</ele>
        <time>2026-03-09T09:40:07Z</time>
      </trkpt>
      <trkpt lat="52.327165380120277" lon="7.930975807830691">
        <ele>70.3515625</ele>
        <time>2026-03-09T09:40:11Z</time>
      </trkpt>
      <trkpt lat="52.327350871637464" lon="7.930822502821684">
        <ele>70.78515625</ele>
        <time>2026-03-09T09:40:15Z</time>
      </trkpt>
      <trkpt lat="52.327522030100226" lon="7.930659307166934">
        <ele>71.1328125</ele>
        <time>2026-03-09T09:40:19Z</time>
      </trkpt>
      <trkpt lat="52.327686315402389" lon="7.930491836741567">
        <ele>71.1796875</ele>
        <time>2026-03-09T09:40:23Z</time>
      </trkpt>
      <trkpt lat="52.327861245721579" lon="7.930380692705512">
        <ele>71.375</ele>
        <time>2026-03-09T09:40:27Z</time>
      </trkpt>
      <trkpt lat="52.328044138848782" lon="7.930242894217372">
        <ele>71.25390625</ele>
        <time>2026-03-09T09:40:31Z</time>
      </trkpt>
      <trkpt lat="52.328254356980324" lon="7.930027227848768">
        <ele>70.484375</ele>
        <time>2026-03-09T09:40:37Z</time>
      </trkpt>
      <trkpt lat="52.328435573726892" lon="7.9298494476825">
        <ele>69.8515625</ele>
        <time>2026-03-09T09:40:41Z</time>
      </trkpt>
      <trkpt lat="52.328615868464112" lon="7.92966621927917">
        <ele>69.18359375</ele>
        <time>2026-03-09T09:40:45Z</time>
      </trkpt>
      <trkpt lat="52.328808987513185" lon="7.92952548712492">
        <ele>68.8046875</ele>
        <time>2026-03-09T09:40:49Z</time>
      </trkpt>
      <trkpt lat="52.328977128490806" lon="7.929374277591705">
        <ele>68.3828125</ele>
        <time>2026-03-09T09:40:53Z</time>
      </trkpt>
      <trkpt lat="52.329144682735205" lon="7.92921812273562">
        <ele>68.5</ele>
        <time>2026-03-09T09:40:57Z</time>
      </trkpt>
      <trkpt lat="52.329122805967927" lon="7.928817132487893">
        <ele>66.05859375</ele>
        <time>2026-03-09T09:41:03Z</time>
      </trkpt>
      <trkpt lat="52.329088440164924" lon="7.928346320986748">
        <ele>63.90625</ele>
        <time>2026-03-09T09:41:09Z</time>
      </trkpt>
      <trkpt lat="52.329079890623689" lon="7.927977265790105">
        <ele>63.6796875</ele>
        <time>2026-03-09T09:41:13Z</time>
      </trkpt>
      <trkpt lat="52.329089445993304" lon="7.927580550312996">
        <ele>63.94140625</ele>
        <time>2026-03-09T09:41:17Z</time>
      </trkpt>
      <trkpt lat="52.329100677743554" lon="7.927196659147739">
        <ele>65.78125</ele>
        <time>2026-03-09T09:41:21Z</time>
      </trkpt>
      <trkpt lat="52.32913370244205" lon="7.926843948662281">
        <ele>67.19921875</ele>
        <time>2026-03-09T09:41:25Z</time>
      </trkpt>
      <trkpt lat="52.329088607802987" lon="7.926508253440261">
        <ele>67.73046875</ele>
        <time>2026-03-09T09:41:29Z</time>
      </trkpt>
      <trkpt lat="52.329016607254744" lon="7.926189238205552">
        <ele>68.41796875</ele>
        <time>2026-03-09T09:41:33Z</time>
      </trkpt>
      <trkpt lat="52.328923400491476" lon="7.925767796114087">
        <ele>68.5546875</ele>
        <time>2026-03-09T09:41:39Z</time>
      </trkpt>
      <trkpt lat="52.328891381621361" lon="7.92541416361928">
        <ele>67.94140625</ele>
        <time>2026-03-09T09:41:43Z</time>
      </trkpt>
      <trkpt lat="52.328915437683463" lon="7.925081150606275">
        <ele>66.91796875</ele>
        <time>2026-03-09T09:41:47Z</time>
      </trkpt>
      <trkpt lat="52.328957179561257" lon="7.924733804538846">
        <ele>65.39453125</ele>
        <time>2026-03-09T09:41:51Z</time>
      </trkpt>
      <trkpt lat="52.328989198431373" lon="7.92441931553185">
        <ele>64.18359375</ele>
        <time>2026-03-09T09:41:55Z</time>
      </trkpt>
      <trkpt lat="52.329035131260753" lon="7.924128379672766">
        <ele>64.01953125</ele>
        <time>2026-03-09T09:41:59Z</time>
      </trkpt>
      <trkpt lat="52.329087853431702" lon="7.923824368044734">
        <ele>64.18359375</ele>
        <time>2026-03-09T09:42:03Z</time>
      </trkpt>
      <trkpt lat="52.329142838716507" lon="7.923529157415032">
        <ele>64.28125</ele>
        <time>2026-03-09T09:42:07Z</time>
      </trkpt>
      <trkpt lat="52.329235710203648" lon="7.923103692010045">
        <ele>65.0859375</ele>
        <time>2026-03-09T09:42:13Z</time>
      </trkpt>
      <trkpt lat="52.329307040199637" lon="7.922785598784685">
        <ele>65.56640625</ele>
        <time>2026-03-09T09:42:17Z</time>
      </trkpt>
      <trkpt lat="52.329366719350219" lon="7.922480748966336">
        <ele>66.41796875</ele>
        <time>2026-03-09T09:42:21Z</time>
      </trkpt>
      <trkpt lat="52.32941223308444" lon="7.922134827822447">
        <ele>67.59375</ele>
        <time>2026-03-09T09:42:25Z</time>
      </trkpt>
      <trkpt lat="52.32945280149579" lon="7.921774992719293">
        <ele>68.7109375</ele>
        <time>2026-03-09T09:42:29Z</time>
      </trkpt>
      <trkpt lat="52.32948113232851" lon="7.921463018283248">
        <ele>69.9921875</ele>
        <time>2026-03-09T09:42:33Z</time>
      </trkpt>
      <trkpt lat="52.329493369907141" lon="7.921140901744366">
        <ele>71.50390625</ele>
        <time>2026-03-09T09:42:37Z</time>
      </trkpt>
      <trkpt lat="52.329495213925838" lon="7.920836471021175">
        <ele>72.30859375</ele>
        <time>2026-03-09T09:42:41Z</time>
      </trkpt>
      <trkpt lat="52.329519269987941" lon="7.920524496585131">
        <ele>72.13671875</ele>
        <time>2026-03-09T09:42:45Z</time>
      </trkpt>
      <trkpt lat="52.329531088471413" lon="7.920229788869619">
        <ele>72.1796875</ele>
        <time>2026-03-09T09:42:49Z</time>
      </trkpt>
      <trkpt lat="52.32955832965672" lon="7.919912366196513">
        <ele>71.9140625</ele>
        <time>2026-03-09T09:42:53Z</time>
      </trkpt>
      <trkpt lat="52.329570818692446" lon="7.919572060927749">
        <ele>71.9140625</ele>
        <time>2026-03-09T09:42:57Z</time>
      </trkpt>
      <trkpt lat="52.329593449831009" lon="7.919241143390536">
        <ele>71.76171875</ele>
        <time>2026-03-09T09:43:01Z</time>
      </trkpt>
      <trkpt lat="52.329618344083428" lon="7.918896563351154">
        <ele>71.5859375</ele>
        <time>2026-03-09T09:43:05Z</time>
      </trkpt>
      <trkpt lat="52.329633850604296" lon="7.918546032160521">
        <ele>71.5859375</ele>
        <time>2026-03-09T09:43:09Z</time>
      </trkpt>
      <trkpt lat="52.329655308276415" lon="7.918214192613959">
        <ele>70.96875</ele>
        <time>2026-03-09T09:43:13Z</time>
      </trkpt>
      <trkpt lat="52.329675760120153" lon="7.917864331975579">
        <ele>70.28125</ele>
        <time>2026-03-09T09:43:17Z</time>
      </trkpt>
      <trkpt lat="52.329686572775245" lon="7.917517237365246">
        <ele>69.51953125</ele>
        <time>2026-03-09T09:43:21Z</time>
      </trkpt>
      <trkpt lat="52.329707695171237" lon="7.917196210473776">
        <ele>68.515625</ele>
        <time>2026-03-09T09:43:25Z</time>
      </trkpt>
      <trkpt lat="52.329725967720151" lon="7.916864873841405">
        <ele>67.53125</ele>
        <time>2026-03-09T09:43:29Z</time>
      </trkpt>
      <trkpt lat="52.32974449172616" lon="7.916554659605026">
        <ele>67.3203125</ele>
        <time>2026-03-09T09:43:33Z</time>
      </trkpt>
      <trkpt lat="52.329758321866393" lon="7.91620010510087">
        <ele>67.203125</ele>
        <time>2026-03-09T09:43:37Z</time>
      </trkpt>
      <trkpt lat="52.329768966883421" lon="7.915834905579686">
        <ele>67.53515625</ele>
        <time>2026-03-09T09:43:41Z</time>
      </trkpt>
      <trkpt lat="52.329783551394939" lon="7.915470879524946">
        <ele>68.28515625</ele>
        <time>2026-03-09T09:43:45Z</time>
      </trkpt>
      <trkpt lat="52.329799393191934" lon="7.915117582306266">
        <ele>68.76953125</ele>
        <time>2026-03-09T09:43:49Z</time>
      </trkpt>
      <trkpt lat="52.329827304929495" lon="7.914759255945683">
        <ele>68.12109375</ele>
        <time>2026-03-09T09:43:53Z</time>
      </trkpt>
      <trkpt lat="52.329845912754536" lon="7.91438726708293">
        <ele>67.5859375</ele>
        <time>2026-03-09T09:43:57Z</time>
      </trkpt>
      <trkpt lat="52.329903412610292" lon="7.913991389796138">
        <ele>66.34375</ele>
        <time>2026-03-09T09:44:01Z</time>
      </trkpt>
      <trkpt lat="52.329961415380239" lon="7.913623508065939">
        <ele>65.1640625</ele>
        <time>2026-03-09T09:44:05Z</time>
      </trkpt>
      <trkpt lat="52.330017909407616" lon="7.913255374878645">
        <ele>64.5390625</ele>
        <time>2026-03-09T09:44:09Z</time>
      </trkpt>
      <trkpt lat="52.330067865550518" lon="7.912845248356462">
        <ele>64.30859375</ele>
        <time>2026-03-09T09:44:13Z</time>
      </trkpt>
      <trkpt lat="52.33012268319726" lon="7.912438223138452">
        <ele>64.3671875</ele>
        <time>2026-03-09T09:44:17Z</time>
      </trkpt>
      <trkpt lat="52.330188229680061" lon="7.912009404972196">
        <ele>64.7890625</ele>
        <time>2026-03-09T09:44:21Z</time>
      </trkpt>
      <trkpt lat="52.330287303775549" lon="7.911567511036992">
        <ele>64.74609375</ele>
        <time>2026-03-09T09:44:25Z</time>
      </trkpt>
      <trkpt lat="52.33034941367805" lon="7.91109443642199">
        <ele>64.171875</ele>
        <time>2026-03-09T09:44:29Z</time>
      </trkpt>
      <trkpt lat="52.330356119200587" lon="7.910655559971929">
        <ele>64.65625</ele>
        <time>2026-03-09T09:44:33Z</time>
      </trkpt>
      <trkpt lat="52.33020331710577" lon="7.910315506160259">
        <ele>64.36328125</ele>
        <time>2026-03-09T09:44:37Z</time>
      </trkpt>
      <trkpt lat="52.330135591328144" lon="7.909919964149594">
        <ele>64.56640625</ele>
        <time>2026-03-09T09:44:41Z</time>
      </trkpt>
      <trkpt lat="52.330072307959199" lon="7.909566583111882">
        <ele>64.734375</ele>
        <time>2026-03-09T09:44:45Z</time>
      </trkpt>
      <trkpt lat="52.330032158643007" lon="7.90920926257968">
        <ele>65.03125</ele>
        <time>2026-03-09T09:44:49Z</time>
      </trkpt>
      <trkpt lat="52.330009443685412" lon="7.908880775794387">
        <ele>65.44921875</ele>
        <time>2026-03-09T09:44:53Z</time>
      </trkpt>
      <trkpt lat="52.32996778562665" lon="7.908547259867191">
        <ele>65.828125</ele>
        <time>2026-03-09T09:44:57Z</time>
      </trkpt>
      <trkpt lat="52.329920930787921" lon="7.908224556595087">
        <ele>65.55078125</ele>
        <time>2026-03-09T09:45:01Z</time>
      </trkpt>
      <trkpt lat="52.329898970201612" lon="7.907911660149694">
        <ele>65.35546875</ele>
        <time>2026-03-09T09:45:05Z</time>
      </trkpt>
      <trkpt lat="52.329903496429324" lon="7.907611504197121">
        <ele>64.92578125</ele>
        <time>2026-03-09T09:45:09Z</time>
      </trkpt>
      <trkpt lat="52.330047329887748" lon="7.907406901940703">
        <ele>64.10546875</ele>
        <time>2026-03-09T09:45:13Z</time>
      </trkpt>
      <trkpt lat="52.330253189429641" lon="7.907240940257907">
        <ele>63.4140625</ele>
        <time>2026-03-09T09:45:17Z</time>
      </trkpt>
      <trkpt lat="52.330476399511099" lon="7.907083611935377">
        <ele>62.59375</ele>
        <time>2026-03-09T09:45:21Z</time>
      </trkpt>
      <trkpt lat="52.33067974448204" lon="7.906933408230543">
        <ele>61.96875</ele>
        <time>2026-03-09T09:45:25Z</time>
      </trkpt>
      <trkpt lat="52.330882837995887" lon="7.906772224232554">
        <ele>62.0859375</ele>
        <time>2026-03-09T09:45:29Z</time>
      </trkpt>
      <trkpt lat="52.331072269007564" lon="7.906607436016202">
        <ele>61.97265625</ele>
        <time>2026-03-09T09:45:33Z</time>
      </trkpt>
      <trkpt lat="52.331279218196869" lon="7.906455136835575">
        <ele>61.8671875</ele>
        <time>2026-03-09T09:45:37Z</time>
      </trkpt>
      <trkpt lat="52.331475103273988" lon="7.906291522085667">
        <ele>61.25</ele>
        <time>2026-03-09T09:45:41Z</time>
      </trkpt>
      <trkpt lat="52.331681130453944" lon="7.906121956184506">
        <ele>59.50390625</ele>
        <time>2026-03-09T09:45:45Z</time>
      </trkpt>
      <trkpt lat="52.331893695518374" lon="7.905968734994531">
        <ele>58.328125</ele>
        <time>2026-03-09T09:45:49Z</time>
      </trkpt>
      <trkpt lat="52.33208647929132" lon="7.905798079445958">
        <ele>57.7890625</ele>
        <time>2026-03-09T09:45:53Z</time>
      </trkpt>
      <trkpt lat="52.332220505923033" lon="7.905538408085704">
        <ele>57.375</ele>
        <time>2026-03-09T09:45:57Z</time>
      </trkpt>
      <trkpt lat="52.332315137609839" lon="7.905231043696404">
        <ele>57.2578125</ele>
        <time>2026-03-09T09:46:01Z</time>
      </trkpt>
      <trkpt lat="52.332422845065594" lon="7.90494061075151">
        <ele>57.66015625</ele>
        <time>2026-03-09T09:46:05Z</time>
      </trkpt>
      <trkpt lat="52.332555530592799" lon="7.904649758711457">
        <ele>58.4296875</ele>
        <time>2026-03-09T09:46:09Z</time>
      </trkpt>
      <trkpt lat="52.332708332687616" lon="7.904391176998615">
        <ele>59.58984375</ele>
        <time>2026-03-09T09:46:13Z</time>
      </trkpt>
      <trkpt lat="52.332873791456223" lon="7.904156483709812">
        <ele>60.18359375</ele>
        <time>2026-03-09T09:46:17Z</time>
      </trkpt>
      <trkpt lat="52.333022151142359" lon="7.90391743183136">
        <ele>60.26171875</ele>
        <time>2026-03-09T09:46:21Z</time>
      </trkpt>
      <trkpt lat="52.333185011520982" lon="7.903665136545897">
        <ele>59.68359375</ele>
        <time>2026-03-09T09:46:25Z</time>
      </trkpt>
      <trkpt lat="52.333340914919972" lon="7.903419882059097">
        <ele>58.203125</ele>
        <time>2026-03-09T09:46:29Z</time>
      </trkpt>
      <trkpt lat="52.333517940714955" lon="7.903163898736239">
        <ele>56.80078125</ele>
        <time>2026-03-09T09:46:33Z</time>
      </trkpt>
      <trkpt lat="52.333685327321291" lon="7.902901377528906">
        <ele>55.62890625</ele>
        <time>2026-03-09T09:46:37Z</time>
      </trkpt>
      <trkpt lat="52.333849361166358" lon="7.902663499116898">
        <ele>54.90234375</ele>
        <time>2026-03-09T09:46:41Z</time>
      </trkpt>
      <trkpt lat="52.334013478830457" lon="7.902399469166994">
        <ele>55.2890625</ele>
        <time>2026-03-09T09:46:45Z</time>
      </trkpt>
      <trkpt lat="52.334169968962669" lon="7.902132254093885">
        <ele>55.57421875</ele>
        <time>2026-03-09T09:46:49Z</time>
      </trkpt>
      <trkpt lat="52.334329979494214" lon="7.901865122839809">
        <ele>55.9765625</ele>
        <time>2026-03-09T09:46:53Z</time>
      </trkpt>
      <trkpt lat="52.334491331130266" lon="7.901601092889905">
        <ele>56</ele>
        <time>2026-03-09T09:46:57Z</time>
      </trkpt>
      <trkpt lat="52.334661735221744" lon="7.901336895301938">
        <ele>56</ele>
        <time>2026-03-09T09:47:01Z</time>
      </trkpt>
      <trkpt lat="52.334831552579999" lon="7.9010677523911">
        <ele>56.1875</ele>
        <time>2026-03-09T09:47:05Z</time>
      </trkpt>
      <trkpt lat="52.33499675989151" lon="7.900806907564402">
        <ele>56.20703125</ele>
        <time>2026-03-09T09:47:09Z</time>
      </trkpt>
      <trkpt lat="52.335168169811368" lon="7.900553522631526">
        <ele>56.01953125</ele>
        <time>2026-03-09T09:47:13Z</time>
      </trkpt>
      <trkpt lat="52.335330359637737" lon="7.900285050272942">
        <ele>55.63671875</ele>
        <time>2026-03-09T09:47:17Z</time>
      </trkpt>
      <trkpt lat="52.335503529757261" lon="7.900052536278963">
        <ele>55.296875</ele>
        <time>2026-03-09T09:47:21Z</time>
      </trkpt>
      <trkpt lat="52.33569111675024" lon="7.899844916537404">
        <ele>54.73046875</ele>
        <time>2026-03-09T09:47:25Z</time>
      </trkpt>
      <trkpt lat="52.335883732885122" lon="7.89965070784092">
        <ele>53.859375</ele>
        <time>2026-03-09T09:47:29Z</time>
      </trkpt>
      <trkpt lat="52.336077522486448" lon="7.899457337334752">
        <ele>52.8828125</ele>
        <time>2026-03-09T09:47:33Z</time>
      </trkpt>
      <trkpt lat="52.336273239925504" lon="7.899251980707049">
        <ele>52.1796875</ele>
        <time>2026-03-09T09:47:37Z</time>
      </trkpt>
      <trkpt lat="52.336468119174242" lon="7.899064561352134">
        <ele>52.0390625</ele>
        <time>2026-03-09T09:47:41Z</time>
      </trkpt>
      <trkpt lat="52.336652521044016" lon="7.898871023207903">
        <ele>52.39453125</ele>
        <time>2026-03-09T09:47:45Z</time>
      </trkpt>
      <trkpt lat="52.336848070845008" lon="7.898680670186877">
        <ele>52.875</ele>
        <time>2026-03-09T09:47:49Z</time>
      </trkpt>
      <trkpt lat="52.337042111903429" lon="7.898490568622947">
        <ele>53.46875</ele>
        <time>2026-03-09T09:47:53Z</time>
      </trkpt>
      <trkpt lat="52.337242607027292" lon="7.898287307471037">
        <ele>54.1953125</ele>
        <time>2026-03-09T09:47:57Z</time>
      </trkpt>
      <trkpt lat="52.337427511811256" lon="7.898101815953851">
        <ele>55.0390625</ele>
        <time>2026-03-09T09:48:01Z</time>
      </trkpt>
      <trkpt lat="52.337606297805905" lon="7.897922610864043">
        <ele>55.73046875</ele>
        <time>2026-03-09T09:48:05Z</time>
      </trkpt>
      <trkpt lat="52.33779463917017" lon="7.897741477936506">
        <ele>56.2578125</ele>
        <time>2026-03-09T09:48:09Z</time>
      </trkpt>
      <trkpt lat="52.337977280840278" lon="7.897563362494111">
        <ele>56.50390625</ele>
        <time>2026-03-09T09:48:13Z</time>
      </trkpt>
      <trkpt lat="52.338152881711721" lon="7.897397736087441">
        <ele>56.63671875</ele>
        <time>2026-03-09T09:48:17Z</time>
      </trkpt>
      <trkpt lat="52.338316161185503" lon="7.89721735753119">
        <ele>56.46875</ele>
        <time>2026-03-09T09:48:21Z</time>
      </trkpt>
      <trkpt lat="52.338391430675983" lon="7.896928936243057">
        <ele>56.3671875</ele>
        <time>2026-03-09T09:48:27Z</time>
      </trkpt>
      <trkpt lat="52.338411882519722" lon="7.896473631262779">
        <ele>56.8203125</ele>
        <time>2026-03-09T09:48:33Z</time>
      </trkpt>
      <trkpt lat="52.338432418182492" lon="7.896058978512883">
        <ele>57.34375</ele>
        <time>2026-03-09T09:48:39Z</time>
      </trkpt>
      <trkpt lat="52.338455049321055" lon="7.895642062649131">
        <ele>56.95703125</ele>
        <time>2026-03-09T09:48:45Z</time>
      </trkpt>
      <trkpt lat="52.338490588590503" lon="7.895216094329953">
        <ele>56.48828125</ele>
        <time>2026-03-09T09:48:51Z</time>
      </trkpt>
      <trkpt lat="52.33851732686162" lon="7.894775876775384">
        <ele>56.7421875</ele>
        <time>2026-03-09T09:48:57Z</time>
      </trkpt>
      <trkpt lat="52.338547417894006" lon="7.894356194883585">
        <ele>57</ele>
        <time>2026-03-09T09:49:03Z</time>
      </trkpt>
      <trkpt lat="52.338615478947759" lon="7.893989570438862">
        <ele>57.44140625</ele>
        <time>2026-03-09T09:49:09Z</time>
      </trkpt>
      <trkpt lat="52.338673230260611" lon="7.893647588789463">
        <ele>57.8515625</ele>
        <time>2026-03-09T09:49:13Z</time>
      </trkpt>
      <trkpt lat="52.338756881654263" lon="7.893318682909012">
        <ele>57.64453125</ele>
        <time>2026-03-09T09:49:17Z</time>
      </trkpt>
      <trkpt lat="52.338833408430219" lon="7.893009809777141">
        <ele>57.21875</ele>
        <time>2026-03-09T09:49:21Z</time>
      </trkpt>
      <trkpt lat="52.338909599930048" lon="7.892673192545772">
        <ele>56.89453125</ele>
        <time>2026-03-09T09:49:25Z</time>
      </trkpt>
      <trkpt lat="52.338991491124034" lon="7.892312100157142">
        <ele>56.7734375</ele>
        <time>2026-03-09T09:49:29Z</time>
      </trkpt>
      <trkpt lat="52.339070029556751" lon="7.891954276710749">
        <ele>56.72265625</ele>
        <time>2026-03-09T09:49:33Z</time>
      </trkpt>
      <trkpt lat="52.339155022054911" lon="7.891613217070699">
        <ele>57.015625</ele>
        <time>2026-03-09T09:49:37Z</time>
      </trkpt>
      <trkpt lat="52.339230543002486" lon="7.891284227371216">
        <ele>57.37890625</ele>
        <time>2026-03-09T09:49:41Z</time>
      </trkpt>
      <trkpt lat="52.339292569085956" lon="7.890961105003953">
        <ele>57.609375</ele>
        <time>2026-03-09T09:49:45Z</time>
      </trkpt>
      <trkpt lat="52.339359121397138" lon="7.89061794988811">
        <ele>57.5078125</ele>
        <time>2026-03-09T09:49:49Z</time>
      </trkpt>
      <trkpt lat="52.339428691193461" lon="7.890293905511499">
        <ele>57.3046875</ele>
        <time>2026-03-09T09:49:53Z</time>
      </trkpt>
      <trkpt lat="52.339499266818166" lon="7.88996659219265">
        <ele>57.3359375</ele>
        <time>2026-03-09T09:49:57Z</time>
      </trkpt>
      <trkpt lat="52.339575039222836" lon="7.889606254175305">
        <ele>57.515625</ele>
        <time>2026-03-09T09:50:01Z</time>
      </trkpt>
      <trkpt lat="52.339600687846541" lon="7.889236947521567">
        <ele>57.6953125</ele>
        <time>2026-03-09T09:50:05Z</time>
      </trkpt>
      <trkpt lat="52.339554587379098" lon="7.888859007507563">
        <ele>57.91015625</ele>
        <time>2026-03-09T09:50:09Z</time>
      </trkpt>
      <trkpt lat="52.339509325101972" lon="7.888481318950653">
        <ele>58.0546875</ele>
        <time>2026-03-09T09:50:13Z</time>
      </trkpt>
      <trkpt lat="52.33946138061583" lon="7.888107905164361">
        <ele>58.0546875</ele>
        <time>2026-03-09T09:50:17Z</time>
      </trkpt>
      <trkpt lat="52.339415280148387" lon="7.887731809169054">
        <ele>58.11328125</ele>
        <time>2026-03-09T09:50:21Z</time>
      </trkpt>
      <trkpt lat="52.33936850912869" lon="7.887366525828838">
        <ele>58.01953125</ele>
        <time>2026-03-09T09:50:25Z</time>
      </trkpt>
      <trkpt lat="52.339315870776772" lon="7.887021861970425">
        <ele>57.89453125</ele>
        <time>2026-03-09T09:50:29Z</time>
      </trkpt>
      <trkpt lat="52.339248731732368" lon="7.886664876714349">
        <ele>57.734375</ele>
        <time>2026-03-09T09:50:33Z</time>
      </trkpt>
      <trkpt lat="52.33918477781117" lon="7.886326415464282">
        <ele>57.578125</ele>
        <time>2026-03-09T09:50:37Z</time>
      </trkpt>
      <trkpt lat="52.339126355946064" lon="7.885991055518389">
        <ele>57.40234375</ele>
        <time>2026-03-09T09:50:41Z</time>
      </trkpt>
      <trkpt lat="52.339076399803162" lon="7.885646475479007">
        <ele>56.93359375</ele>
        <time>2026-03-09T09:50:45Z</time>
      </trkpt>
      <trkpt lat="52.339016050100327" lon="7.885309355333448">
        <ele>56.38671875</ele>
        <time>2026-03-09T09:50:49Z</time>
      </trkpt>
      <trkpt lat="52.338951425626874" lon="7.884973492473364">
        <ele>56.02734375</ele>
        <time>2026-03-09T09:50:53Z</time>
      </trkpt>
      <trkpt lat="52.338887890800834" lon="7.884617429226637">
        <ele>55.8671875</ele>
        <time>2026-03-09T09:50:57Z</time>
      </trkpt>
      <trkpt lat="52.338826367631555" lon="7.884280141443014">
        <ele>55.9296875</ele>
        <time>2026-03-09T09:51:01Z</time>
      </trkpt>
      <trkpt lat="52.338765850290656" lon="7.883941009640694">
        <ele>56.078125</ele>
        <time>2026-03-09T09:51:05Z</time>
      </trkpt>
      <trkpt lat="52.338705081492662" lon="7.883594501763582">
        <ele>56.109375</ele>
        <time>2026-03-09T09:51:09Z</time>
      </trkpt>
      <trkpt lat="52.338650599122047" lon="7.88324598222971">
        <ele>55.9453125</ele>
        <time>2026-03-09T09:51:13Z</time>
      </trkpt>
      <trkpt lat="52.338589997962117" lon="7.882909029722214">
        <ele>55.7265625</ele>
        <time>2026-03-09T09:51:17Z</time>
      </trkpt>
      <trkpt lat="52.338527217507362" lon="7.882544919848442">
        <ele>55.5</ele>
        <time>2026-03-09T09:51:21Z</time>
      </trkpt>
      <trkpt lat="52.338477931916714" lon="7.882167315110564">
        <ele>55.32421875</ele>
        <time>2026-03-09T09:51:25Z</time>
      </trkpt>
      <trkpt lat="52.33846016228199" lon="7.88179918192327">
        <ele>55.3828125</ele>
        <time>2026-03-09T09:51:29Z</time>
      </trkpt>
      <trkpt lat="52.338480949401855" lon="7.881439430639148">
        <ele>56.12890625</ele>
        <time>2026-03-09T09:51:33Z</time>
      </trkpt>
      <trkpt lat="52.338509699329734" lon="7.881093006581068">
        <ele>56.84375</ele>
        <time>2026-03-09T09:51:37Z</time>
      </trkpt>
      <trkpt lat="52.338537108153105" lon="7.880749180912972">
        <ele>57.19921875</ele>
        <time>2026-03-09T09:51:41Z</time>
      </trkpt>
      <trkpt lat="52.338535264134407" lon="7.880398901179433">
        <ele>57.40625</ele>
        <time>2026-03-09T09:51:45Z</time>
      </trkpt>
      <trkpt lat="52.338521769270301" lon="7.880077203735709">
        <ele>57.625</ele>
        <time>2026-03-09T09:51:49Z</time>
      </trkpt>
      <trkpt lat="52.338496958836913" lon="7.879737988114357">
        <ele>57.9453125</ele>
        <time>2026-03-09T09:51:53Z</time>
      </trkpt>
      <trkpt lat="52.33848312869668" lon="7.879361640661955">
        <ele>58.34765625</ele>
        <time>2026-03-09T09:51:57Z</time>
      </trkpt>
      <trkpt lat="52.338468208909035" lon="7.878989484161139">
        <ele>58.73828125</ele>
        <time>2026-03-09T09:52:01Z</time>
      </trkpt>
      <trkpt lat="52.338484469801188" lon="7.878631828352809">
        <ele>59.2265625</ele>
        <time>2026-03-09T09:52:05Z</time>
      </trkpt>
      <trkpt lat="52.33853149227798" lon="7.878275262191892">
        <ele>59.66796875</ele>
        <time>2026-03-09T09:52:09Z</time>
      </trkpt>
      <trkpt lat="52.338554291054606" lon="7.877963623031974">
        <ele>59.91796875</ele>
        <time>2026-03-09T09:52:13Z</time>
      </trkpt>
      <trkpt lat="52.33857398852706" lon="7.877626167610288">
        <ele>60.0625</ele>
        <time>2026-03-09T09:52:17Z</time>
      </trkpt>
      <trkpt lat="52.338546998798847" lon="7.87728569470346">
        <ele>59.78515625</ele>
        <time>2026-03-09T09:52:21Z</time>
      </trkpt>
      <trkpt lat="52.338518919423223" lon="7.876985622569919">
        <ele>59.55859375</ele>
        <time>2026-03-09T09:52:25Z</time>
      </trkpt>
      <trkpt lat="52.338499557226896" lon="7.876681862398982">
        <ele>59.34765625</ele>
        <time>2026-03-09T09:52:31Z</time>
      </trkpt>
      <trkpt lat="52.338251452893019" lon="7.876610700041056">
        <ele>58.9140625</ele>
        <time>2026-03-09T09:52:39Z</time>
      </trkpt>
      <trkpt lat="52.338041570037603" lon="7.876584883779287">
        <ele>58.5234375</ele>
        <time>2026-03-09T09:52:43Z</time>
      </trkpt>
      <trkpt lat="52.337801596149802" lon="7.876614555716515">
        <ele>58.06640625</ele>
        <time>2026-03-09T09:52:47Z</time>
      </trkpt>
      <trkpt lat="52.337523736059666" lon="7.876552445814014">
        <ele>57.48046875</ele>
        <time>2026-03-09T09:52:51Z</time>
      </trkpt>
      <trkpt lat="52.33725517988205" lon="7.876506932079792">
        <ele>56.9609375</ele>
        <time>2026-03-09T09:52:55Z</time>
      </trkpt>
      <trkpt lat="52.336997771635652" lon="7.876498801633716">
        <ele>56.515625</ele>
        <time>2026-03-09T09:52:59Z</time>
      </trkpt>
      <trkpt lat="52.336736591532826" lon="7.876454461365938">
        <ele>56.02734375</ele>
        <time>2026-03-09T09:53:03Z</time>
      </trkpt>
      <trkpt lat="52.336485637351871" lon="7.876414898782969">
        <ele>55.53125</ele>
        <time>2026-03-09T09:53:07Z</time>
      </trkpt>
      <trkpt lat="52.336266953498125" lon="7.876342898234725">
        <ele>55.29296875</ele>
        <time>2026-03-09T09:53:11Z</time>
      </trkpt>
      <trkpt lat="52.33604826964438" lon="7.876249272376299">
        <ele>55.13671875</ele>
        <time>2026-03-09T09:53:15Z</time>
      </trkpt>
      <trkpt lat="52.335831010714173" lon="7.876152712851763">
        <ele>55.0390625</ele>
        <time>2026-03-09T09:53:19Z</time>
      </trkpt>
      <trkpt lat="52.335606124252081" lon="7.876049783080816">
        <ele>54.984375</ele>
        <time>2026-03-09T09:53:23Z</time>
      </trkpt>
      <trkpt lat="52.335403533652425" lon="7.876020278781653">
        <ele>54.53125</ele>
        <time>2026-03-09T09:53:27Z</time>
      </trkpt>
      <trkpt lat="52.33518392778933" lon="7.876077862456441">
        <ele>53.99609375</ele>
        <time>2026-03-09T09:53:31Z</time>
      </trkpt>
      <trkpt lat="52.334986617788672" lon="7.876200824975967">
        <ele>53.6484375</ele>
        <time>2026-03-09T09:53:35Z</time>
      </trkpt>
      <trkpt lat="52.334776567295194" lon="7.876335019245744">
        <ele>53.35546875</ele>
        <time>2026-03-09T09:53:39Z</time>
      </trkpt>
      <trkpt lat="52.334584537893534" lon="7.876464771106839">
        <ele>53.28125</ele>
        <time>2026-03-09T09:53:43Z</time>
      </trkpt>
      <trkpt lat="52.334384629502892" lon="7.876604665070772">
        <ele>53.2109375</ele>
        <time>2026-03-09T09:53:47Z</time>
      </trkpt>
      <trkpt lat="52.334202155470848" lon="7.876716479659081">
        <ele>53.125</ele>
        <time>2026-03-09T09:53:51Z</time>
      </trkpt>
      <trkpt lat="52.333999145776033" lon="7.876812284812331">
        <ele>52.99609375</ele>
        <time>2026-03-09T09:53:55Z</time>
      </trkpt>
      <trkpt lat="52.333814240992069" lon="7.876943629235029">
        <ele>52.91796875</ele>
        <time>2026-03-09T09:53:59Z</time>
      </trkpt>
      <trkpt lat="52.33361148275435" lon="7.877034153789282">
        <ele>52.71875</ele>
        <time>2026-03-09T09:54:03Z</time>
      </trkpt>
      <trkpt lat="52.333406629040837" lon="7.87706189788878">
        <ele>52.43359375</ele>
        <time>2026-03-09T09:54:07Z</time>
      </trkpt>
      <trkpt lat="52.333196913823485" lon="7.87705896422267">
        <ele>52.12109375</ele>
        <time>2026-03-09T09:54:11Z</time>
      </trkpt>
      <trkpt lat="52.3329699318856" lon="7.877041110768914">
        <ele>52</ele>
        <time>2026-03-09T09:54:15Z</time>
      </trkpt>
      <trkpt lat="52.332747140899301" lon="7.87701454013586">
        <ele>52</ele>
        <time>2026-03-09T09:54:19Z</time>
      </trkpt>
      <trkpt lat="52.332535078749061" lon="7.876998614519835">
        <ele>52</ele>
        <time>2026-03-09T09:54:23Z</time>
      </trkpt>
      <trkpt lat="52.33234154060483" lon="7.87698864005506">
        <ele>52</ele>
        <time>2026-03-09T09:54:27Z</time>
      </trkpt>
      <trkpt lat="52.332145068794489" lon="7.876985371112824">
        <ele>52.48828125</ele>
        <time>2026-03-09T09:54:31Z</time>
      </trkpt>
      <trkpt lat="52.331948429346085" lon="7.87698713131249">
        <ele>53.19921875</ele>
        <time>2026-03-09T09:54:35Z</time>
      </trkpt>
      <trkpt lat="52.33173955231905" lon="7.87697690539062">
        <ele>53.94921875</ele>
        <time>2026-03-09T09:54:39Z</time>
      </trkpt>
      <trkpt lat="52.331536207348108" lon="7.876988807693124">
        <ele>54.68359375</ele>
        <time>2026-03-09T09:54:43Z</time>
      </trkpt>
      <trkpt lat="52.331331772729754" lon="7.876986125484109">
        <ele>55.87890625</ele>
        <time>2026-03-09T09:54:47Z</time>
      </trkpt>
      <trkpt lat="52.331119878217578" lon="7.876974223181605">
        <ele>57.46484375</ele>
        <time>2026-03-09T09:54:51Z</time>
      </trkpt>
      <trkpt lat="52.330930028110743" lon="7.876919405534864">
        <ele>58.8125</ele>
        <time>2026-03-09T09:54:55Z</time>
      </trkpt>
      <trkpt lat="52.330671278759837" lon="7.876800885424018">
        <ele>60.21875</ele>
        <time>2026-03-09T09:55:01Z</time>
      </trkpt>
      <trkpt lat="52.330496851354837" lon="7.876682281494141">
        <ele>60.7578125</ele>
        <time>2026-03-09T09:55:05Z</time>
      </trkpt>
      <trkpt lat="52.330300631001592" lon="7.876561162993312">
        <ele>61.25</ele>
        <time>2026-03-09T09:55:09Z</time>
      </trkpt>
      <trkpt lat="52.330113211646676" lon="7.87647164426744">
        <ele>61.69921875</ele>
        <time>2026-03-09T09:55:13Z</time>
      </trkpt>
      <trkpt lat="52.329866029322147" lon="7.876535765826702">
        <ele>63.875</ele>
        <time>2026-03-09T09:55:19Z</time>
      </trkpt>
      <trkpt lat="52.329684728756547" lon="7.876567197963595">
        <ele>63.953125</ele>
        <time>2026-03-09T09:55:23Z</time>
      </trkpt>
      <trkpt lat="52.329485071823001" lon="7.876599552109838">
        <ele>62.58203125</ele>
        <time>2026-03-09T09:55:27Z</time>
      </trkpt>
      <trkpt lat="52.329277787357569" lon="7.876611538231373">
        <ele>60.8984375</ele>
        <time>2026-03-09T09:55:31Z</time>
      </trkpt>
      <trkpt lat="52.329084249213338" lon="7.876721760258079">
        <ele>59.76171875</ele>
        <time>2026-03-09T09:55:35Z</time>
      </trkpt>
      <trkpt lat="52.328893728554249" lon="7.876858888193965">
        <ele>58.8359375</ele>
        <time>2026-03-09T09:55:39Z</time>
      </trkpt>
      <trkpt lat="52.328678062185645" lon="7.876997441053391">
        <ele>58.71484375</ele>
        <time>2026-03-09T09:55:45Z</time>
      </trkpt>
      <trkpt lat="52.32850874774158" lon="7.877105483785272">
        <ele>58.49609375</ele>
        <time>2026-03-09T09:55:49Z</time>
      </trkpt>
      <trkpt lat="52.328280927613378" lon="7.877203468233347">
        <ele>57.95703125</ele>
        <time>2026-03-09T09:55:55Z</time>
      </trkpt>
      <trkpt lat="52.328068949282169" lon="7.877341015264392">
        <ele>57.71484375</ele>
        <time>2026-03-09T09:56:01Z</time>
      </trkpt>
      <trkpt lat="52.327881949022412" lon="7.87746062502265">
        <ele>58.4765625</ele>
        <time>2026-03-09T09:56:05Z</time>
      </trkpt>
      <trkpt lat="52.327679861336946" lon="7.877568500116468">
        <ele>59.33203125</ele>
        <time>2026-03-09T09:56:09Z</time>
      </trkpt>
      <trkpt lat="52.327507277950644" lon="7.877695485949516">
        <ele>60.1875</ele>
        <time>2026-03-09T09:56:13Z</time>
      </trkpt>
      <trkpt lat="52.327327989041805" lon="7.877794643864036">
        <ele>60.83984375</ele>
        <time>2026-03-09T09:56:17Z</time>
      </trkpt>
      <trkpt lat="52.327143000438809" lon="7.877897070720792">
        <ele>60.703125</ele>
        <time>2026-03-09T09:56:21Z</time>
      </trkpt>
      <trkpt lat="52.326955161988735" lon="7.877990612760186">
        <ele>60.34765625</ele>
        <time>2026-03-09T09:56:25Z</time>
      </trkpt>
      <trkpt lat="52.32676581479609" lon="7.878092704340816">
        <ele>60.046875</ele>
        <time>2026-03-09T09:56:29Z</time>
      </trkpt>
      <trkpt lat="52.32658795081079" lon="7.87819747813046">
        <ele>59.828125</ele>
        <time>2026-03-09T09:56:33Z</time>
      </trkpt>
      <trkpt lat="52.326389634981751" lon="7.87830987945199">
        <ele>59.69921875</ele>
        <time>2026-03-09T09:56:37Z</time>
      </trkpt>
      <trkpt lat="52.326169358566403" lon="7.878377940505743">
        <ele>59.6015625</ele>
        <time>2026-03-09T09:56:41Z</time>
      </trkpt>
      <trkpt lat="52.325965510681272" lon="7.878429153934121">
        <ele>59.4375</ele>
        <time>2026-03-09T09:56:45Z</time>
      </trkpt>
      <trkpt lat="52.32578219845891" lon="7.878476930782199">
        <ele>59.23828125</ele>
        <time>2026-03-09T09:56:49Z</time>
      </trkpt>
      <trkpt lat="52.325590252876282" lon="7.878517918288708">
        <ele>59.0859375</ele>
        <time>2026-03-09T09:56:53Z</time>
      </trkpt>
      <trkpt lat="52.325405599549413" lon="7.878559827804565">
        <ele>59.51953125</ele>
        <time>2026-03-09T09:56:57Z</time>
      </trkpt>
      <trkpt lat="52.325219688937068" lon="7.878616824746132">
        <ele>60.00390625</ele>
        <time>2026-03-09T09:57:01Z</time>
      </trkpt>
      <trkpt lat="52.324962448328733" lon="7.878698632121086">
        <ele>60.73046875</ele>
        <time>2026-03-09T09:57:07Z</time>
      </trkpt>
      <trkpt lat="52.324705962091684" lon="7.878821343183518">
        <ele>61.44140625</ele>
        <time>2026-03-09T09:57:13Z</time>
      </trkpt>
      <trkpt lat="52.324462300166488" lon="7.878997530788183">
        <ele>61.9453125</ele>
        <time>2026-03-09T09:57:19Z</time>
      </trkpt>
      <trkpt lat="52.324288208037615" lon="7.879150751978159">
        <ele>62.33984375</ele>
        <time>2026-03-09T09:57:23Z</time>
      </trkpt>
      <trkpt lat="52.324130879715085" lon="7.879307996481657">
        <ele>62.71484375</ele>
        <time>2026-03-09T09:57:27Z</time>
      </trkpt>
      <trkpt lat="52.323948740959167" lon="7.879464738070965">
        <ele>62.63671875</ele>
        <time>2026-03-09T09:57:31Z</time>
      </trkpt>
      <trkpt lat="52.323758136481047" lon="7.879646876826882">
        <ele>61.6796875</ele>
        <time>2026-03-09T09:57:35Z</time>
      </trkpt>
      <trkpt lat="52.323545822873712" lon="7.879795152693987">
        <ele>60.98046875</ele>
        <time>2026-03-09T09:57:39Z</time>
      </trkpt>
      <trkpt lat="52.323343399912119" lon="7.879898836836219">
        <ele>60.5546875</ele>
        <time>2026-03-09T09:57:43Z</time>
      </trkpt>
      <trkpt lat="52.323155477643013" lon="7.879985338076949">
        <ele>60.27734375</ele>
        <time>2026-03-09T09:57:47Z</time>
      </trkpt>
      <trkpt lat="52.322951797395945" lon="7.880027079954743">
        <ele>60.484375</ele>
        <time>2026-03-09T09:57:51Z</time>
      </trkpt>
      <trkpt lat="52.32275758869946" lon="7.880099751055241">
        <ele>60.83203125</ele>
        <time>2026-03-09T09:57:55Z</time>
      </trkpt>
      <trkpt lat="52.322538737207651" lon="7.880309047177434">
        <ele>61.078125</ele>
        <time>2026-03-09T09:58:01Z</time>
      </trkpt>
      <trkpt lat="52.322310749441385" lon="7.880307622253895">
        <ele>61.55859375</ele>
        <time>2026-03-09T09:58:05Z</time>
      </trkpt>
      <trkpt lat="52.322059208527207" lon="7.880272837355733">
        <ele>61.234375</ele>
        <time>2026-03-09T09:58:09Z</time>
      </trkpt>
      <trkpt lat="52.321833316236734" lon="7.880206117406488">
        <ele>60.89453125</ele>
        <time>2026-03-09T09:58:13Z</time>
      </trkpt>
      <trkpt lat="52.3216313123703" lon="7.880154820159078">
        <ele>60.40234375</ele>
        <time>2026-03-09T09:58:17Z</time>
      </trkpt>
      <trkpt lat="52.321425871923566" lon="7.880126824602485">
        <ele>60.06640625</ele>
        <time>2026-03-09T09:58:21Z</time>
      </trkpt>
      <trkpt lat="52.321198219433427" lon="7.880056835711002">
        <ele>60.61328125</ele>
        <time>2026-03-09T09:58:27Z</time>
      </trkpt>
      <trkpt lat="52.321057319641113" lon="7.879801942035556">
        <ele>60.953125</ele>
        <time>2026-03-09T09:58:43Z</time>
      </trkpt>
      <trkpt lat="52.320867469534278" lon="7.879699347540736">
        <ele>61.41015625</ele>
        <time>2026-03-09T09:58:47Z</time>
      </trkpt>
      <trkpt lat="52.320700250566006" lon="7.879568422213197">
        <ele>61.8125</ele>
        <time>2026-03-09T09:58:51Z</time>
      </trkpt>
      <trkpt lat="52.320536049082875" lon="7.879414279013872">
        <ele>62.30078125</ele>
        <time>2026-03-09T09:58:55Z</time>
      </trkpt>
      <trkpt lat="52.320375870913267" lon="7.879243204370141">
        <ele>63.1171875</ele>
        <time>2026-03-09T09:58:59Z</time>
      </trkpt>
      <trkpt lat="52.320157941430807" lon="7.878991160541773">
        <ele>64.62109375</ele>
        <time>2026-03-09T09:59:05Z</time>
      </trkpt>
      <trkpt lat="52.319954428821802" lon="7.878765016794205">
        <ele>66.28125</ele>
        <time>2026-03-09T09:59:11Z</time>
      </trkpt>
      <trkpt lat="52.319826185703278" lon="7.878493862226605">
        <ele>67.91015625</ele>
        <time>2026-03-09T09:59:17Z</time>
      </trkpt>
      <trkpt lat="52.319839345291257" lon="7.878201249986887">
        <ele>68.84375</ele>
        <time>2026-03-09T09:59:21Z</time>
      </trkpt>
      <trkpt lat="52.319828197360039" lon="7.877871254459024">
        <ele>70.0703125</ele>
        <time>2026-03-09T09:59:25Z</time>
      </trkpt>
      <trkpt lat="52.319799866527319" lon="7.877571349963546">
        <ele>70.59765625</ele>
        <time>2026-03-09T09:59:29Z</time>
      </trkpt>
      <trkpt lat="52.319788634777069" lon="7.877239594236016">
        <ele>69.89453125</ele>
        <time>2026-03-09T09:59:33Z</time>
      </trkpt>
      <trkpt lat="52.319779498502612" lon="7.87688696756959">
        <ele>69.1796875</ele>
        <time>2026-03-09T09:59:37Z</time>
      </trkpt>
      <trkpt lat="52.319762567058206" lon="7.876558564603329">
        <ele>68.95703125</ele>
        <time>2026-03-09T09:59:41Z</time>
      </trkpt>
      <trkpt lat="52.319745719432831" lon="7.876218175515533">
        <ele>68.6796875</ele>
        <time>2026-03-09T09:59:45Z</time>
      </trkpt>
      <trkpt lat="52.319732811301947" lon="7.875909972935915">
        <ele>68.484375</ele>
        <time>2026-03-09T09:59:49Z</time>
      </trkpt>
      <trkpt lat="52.31969484128058" lon="7.875480651855469">
        <ele>68.52734375</ele>
        <time>2026-03-09T09:59:55Z</time>
      </trkpt>
      <trkpt lat="52.319681430235505" lon="7.875175885856152">
        <ele>68.37890625</ele>
        <time>2026-03-09T09:59:59Z</time>
      </trkpt>
      <trkpt lat="52.319658631458879" lon="7.874874388799071">
        <ele>68.34375</ele>
        <time>2026-03-09T10:00:03Z</time>
      </trkpt>
      <trkpt lat="52.319620661437511" lon="7.874463843181729">
        <ele>68.24609375</ele>
        <time>2026-03-09T10:00:09Z</time>
      </trkpt>
      <trkpt lat="52.319607334211469" lon="7.874166201800108">
        <ele>68.02734375</ele>
        <time>2026-03-09T10:00:13Z</time>
      </trkpt>
      <trkpt lat="52.319593587890267" lon="7.873745346441865">
        <ele>67.66015625</ele>
        <time>2026-03-09T10:00:19Z</time>
      </trkpt>
      <trkpt lat="52.319586798548698" lon="7.87332340143621">
        <ele>67.93359375</ele>
        <time>2026-03-09T10:00:25Z</time>
      </trkpt>
      <trkpt lat="52.319570118561387" lon="7.873028861358762">
        <ele>68.58203125</ele>
        <time>2026-03-09T10:00:29Z</time>
      </trkpt>
      <trkpt lat="52.319550085812807" lon="7.872596858069301">
        <ele>69.37890625</ele>
        <time>2026-03-09T10:00:35Z</time>
      </trkpt>
      <trkpt lat="52.319537010043859" lon="7.872289158403873">
        <ele>69.6484375</ele>
        <time>2026-03-09T10:00:39Z</time>
      </trkpt>
      <trkpt lat="52.319526448845863" lon="7.871859250590205">
        <ele>70.0078125</ele>
        <time>2026-03-09T10:00:45Z</time>
      </trkpt>
      <trkpt lat="52.319505661725998" lon="7.871555155143142">
        <ele>70.2578125</ele>
        <time>2026-03-09T10:00:49Z</time>
      </trkpt>
      <trkpt lat="52.319486970081925" lon="7.871239827945828">
        <ele>70.546875</ele>
        <time>2026-03-09T10:00:53Z</time>
      </trkpt>
      <trkpt lat="52.319452185183764" lon="7.870817966759205">
        <ele>70.703125</ele>
        <time>2026-03-09T10:00:59Z</time>
      </trkpt>
      <trkpt lat="52.319426955655217" lon="7.870372636243701">
        <ele>70.5234375</ele>
        <time>2026-03-09T10:01:05Z</time>
      </trkpt>
      <trkpt lat="52.319426788017154" lon="7.870068289339542">
        <ele>70.26953125</ele>
        <time>2026-03-09T10:01:09Z</time>
      </trkpt>
      <trkpt lat="52.319431062787771" lon="7.869748016819358">
        <ele>69.8828125</ele>
        <time>2026-03-09T10:01:13Z</time>
      </trkpt>
      <trkpt lat="52.319447491317987" lon="7.86931618116796">
        <ele>69.37109375</ele>
        <time>2026-03-09T10:01:19Z</time>
      </trkpt>
      <trkpt lat="52.319454699754715" lon="7.868914268910885">
        <ele>69.0703125</ele>
        <time>2026-03-09T10:01:25Z</time>
      </trkpt>
      <trkpt lat="52.319452939555049" lon="7.868505651131272">
        <ele>68.7890625</ele>
        <time>2026-03-09T10:01:31Z</time>
      </trkpt>
      <trkpt lat="52.31945838779211" lon="7.868097452446818">
        <ele>68.58203125</ele>
        <time>2026-03-09T10:01:37Z</time>
      </trkpt>
      <trkpt lat="52.319378089159727" lon="7.867847504094243">
        <ele>68.578125</ele>
        <time>2026-03-09T10:01:43Z</time>
      </trkpt>
      <trkpt lat="52.319136606529355" lon="7.867681961506605">
        <ele>68.76171875</ele>
        <time>2026-03-09T10:01:49Z</time>
      </trkpt>
      <trkpt lat="52.318900153040886" lon="7.867478784173727">
        <ele>68.92578125</ele>
        <time>2026-03-09T10:01:55Z</time>
      </trkpt>
      <trkpt lat="52.318665878847241" lon="7.867286670953035">
        <ele>69.5390625</ele>
        <time>2026-03-09T10:02:01Z</time>
      </trkpt>
      <trkpt lat="52.318507209420204" lon="7.867149207741022">
        <ele>69.9453125</ele>
        <time>2026-03-09T10:02:05Z</time>
      </trkpt>
      <trkpt lat="52.318327920511365" lon="7.867014594376087">
        <ele>70.4296875</ele>
        <time>2026-03-09T10:02:09Z</time>
      </trkpt>
      <trkpt lat="52.318151481449604" lon="7.866861708462238">
        <ele>70.8984375</ele>
        <time>2026-03-09T10:02:13Z</time>
      </trkpt>
      <trkpt lat="52.318000104278326" lon="7.866692645475268">
        <ele>71.296875</ele>
        <time>2026-03-09T10:02:17Z</time>
      </trkpt>
      <trkpt lat="52.317831460386515" lon="7.866477482020855">
        <ele>71.69921875</ele>
        <time>2026-03-09T10:02:23Z</time>
      </trkpt>
      <trkpt lat="52.317629456520081" lon="7.866250332444906">
        <ele>72.18359375</ele>
        <time>2026-03-09T10:02:31Z</time>
      </trkpt>
      <trkpt lat="52.317449748516083" lon="7.866092417389154">
        <ele>72.6171875</ele>
        <time>2026-03-09T10:02:35Z</time>
      </trkpt>
      <trkpt lat="52.317245565354824" lon="7.865960234776139">
        <ele>72.75390625</ele>
        <time>2026-03-09T10:02:39Z</time>
      </trkpt>
      <trkpt lat="52.317056301981211" lon="7.865835260599852">
        <ele>72.2265625</ele>
        <time>2026-03-09T10:02:43Z</time>
      </trkpt>
      <trkpt lat="52.316872486844659" lon="7.865677764639258">
        <ele>71.62890625</ele>
        <time>2026-03-09T10:02:47Z</time>
      </trkpt>
      <trkpt lat="52.316670818254352" lon="7.865502666682005">
        <ele>70.96484375</ele>
        <time>2026-03-09T10:02:51Z</time>
      </trkpt>
      <trkpt lat="52.316460181027651" lon="7.865317761898041">
        <ele>70.265625</ele>
        <time>2026-03-09T10:02:55Z</time>
      </trkpt>
      <trkpt lat="52.316244933754206" lon="7.865101089701057">
        <ele>69.51953125</ele>
        <time>2026-03-09T10:02:59Z</time>
      </trkpt>
      <trkpt lat="52.315995991230011" lon="7.865012576803565">
        <ele>69.10546875</ele>
        <time>2026-03-09T10:03:03Z</time>
      </trkpt>
      <trkpt lat="52.315740762278438" lon="7.865003189072013">
        <ele>68.859375</ele>
        <time>2026-03-09T10:03:07Z</time>
      </trkpt>
      <trkpt lat="52.3154819291085" lon="7.864992544054985">
        <ele>68.3984375</ele>
        <time>2026-03-09T10:03:11Z</time>
      </trkpt>
      <trkpt lat="52.315234998241067" lon="7.865024982020259">
        <ele>67.84375</ele>
        <time>2026-03-09T10:03:15Z</time>
      </trkpt>
      <trkpt lat="52.315031988546252" lon="7.865060437470675">
        <ele>67.3984375</ele>
        <time>2026-03-09T10:03:19Z</time>
      </trkpt>
      <trkpt lat="52.314781285822392" lon="7.865101424977183">
        <ele>66.8828125</ele>
        <time>2026-03-09T10:03:25Z</time>
      </trkpt>
      <trkpt lat="52.314718840643764" lon="7.864709151908755">
        <ele>66.4375</ele>
        <time>2026-03-09T10:03:31Z</time>
      </trkpt>
      <trkpt lat="52.314670728519559" lon="7.864385107532144">
        <ele>66.015625</ele>
        <time>2026-03-09T10:03:35Z</time>
      </trkpt>
      <trkpt lat="52.314623789861798" lon="7.864040862768889">
        <ele>65.27734375</ele>
        <time>2026-03-09T10:03:39Z</time>
      </trkpt>
      <trkpt lat="52.314572660252452" lon="7.863695193082094">
        <ele>64.58203125</ele>
        <time>2026-03-09T10:03:43Z</time>
      </trkpt>
      <trkpt lat="52.31451541185379" lon="7.863376596942544">
        <ele>64.19921875</ele>
        <time>2026-03-09T10:03:47Z</time>
      </trkpt>
      <trkpt lat="52.314426144585013" lon="7.863077446818352">
        <ele>64.125</ele>
        <time>2026-03-09T10:03:51Z</time>
      </trkpt>
      <trkpt lat="52.314306115731597" lon="7.862775782123208">
        <ele>64.19921875</ele>
        <time>2026-03-09T10:03:55Z</time>
      </trkpt>
      <trkpt lat="52.314225817099214" lon="7.862508650869131">
        <ele>64.03125</ele>
        <time>2026-03-09T10:03:59Z</time>
      </trkpt>
      <trkpt lat="52.314159600064158" lon="7.862210674211383">
        <ele>63.609375</ele>
        <time>2026-03-09T10:04:03Z</time>
      </trkpt>
      <trkpt lat="52.314070835709572" lon="7.861843798309565">
        <ele>62.96484375</ele>
        <time>2026-03-09T10:04:07Z</time>
      </trkpt>
      <trkpt lat="52.313935719430447" lon="7.861550096422434">
        <ele>62.6484375</ele>
        <time>2026-03-09T10:04:11Z</time>
      </trkpt>
      <trkpt lat="52.313743438571692" lon="7.861446747556329">
        <ele>62.875</ele>
        <time>2026-03-09T10:04:15Z</time>
      </trkpt>
      <trkpt lat="52.313511930406094" lon="7.861431492492557">
        <ele>63.2890625</ele>
        <time>2026-03-09T10:04:21Z</time>
      </trkpt>
      <trkpt lat="52.313274554908276" lon="7.861352618783712">
        <ele>63.7109375</ele>
        <time>2026-03-09T10:04:29Z</time>
      </trkpt>
      <trkpt lat="52.313080597668886" lon="7.861331244930625">
        <ele>64.25390625</ele>
        <time>2026-03-09T10:04:33Z</time>
      </trkpt>
      <trkpt lat="52.312884293496609" lon="7.861265949904919">
        <ele>65.31640625</ele>
        <time>2026-03-09T10:04:37Z</time>
      </trkpt>
      <trkpt lat="52.312731239944696" lon="7.8610994014889">
        <ele>65.9609375</ele>
        <time>2026-03-09T10:04:41Z</time>
      </trkpt>
      <trkpt lat="52.312606601044536" lon="7.860875856131315">
        <ele>66.16796875</ele>
        <time>2026-03-09T10:04:45Z</time>
      </trkpt>
      <trkpt lat="52.312502330169082" lon="7.860621213912964">
        <ele>66.109375</ele>
        <time>2026-03-09T10:04:49Z</time>
      </trkpt>
      <trkpt lat="52.312407279387116" lon="7.860352825373411">
        <ele>65.90625</ele>
        <time>2026-03-09T10:04:53Z</time>
      </trkpt>
      <trkpt lat="52.312296219170094" lon="7.860068595036864">
        <ele>65.8203125</ele>
        <time>2026-03-09T10:04:57Z</time>
      </trkpt>
      <trkpt lat="52.312187422066927" lon="7.859798781573772">
        <ele>66.01171875</ele>
        <time>2026-03-09T10:05:01Z</time>
      </trkpt>
      <trkpt lat="52.312087006866932" lon="7.859519328922033">
        <ele>66.32421875</ele>
        <time>2026-03-09T10:05:05Z</time>
      </trkpt>
      <trkpt lat="52.311988854780793" lon="7.859245827421546">
        <ele>66.66796875</ele>
        <time>2026-03-09T10:05:09Z</time>
      </trkpt>
      <trkpt lat="52.311893468722701" lon="7.858957573771477">
        <ele>66.89453125</ele>
        <time>2026-03-09T10:05:13Z</time>
      </trkpt>
      <trkpt lat="52.311795819550753" lon="7.858671667054296">
        <ele>67.13671875</ele>
        <time>2026-03-09T10:05:17Z</time>
      </trkpt>
      <trkpt lat="52.311694314703345" lon="7.858375869691372">
        <ele>67.765625</ele>
        <time>2026-03-09T10:05:21Z</time>
      </trkpt>
      <trkpt lat="52.311585769057274" lon="7.858096165582538">
        <ele>68.4921875</ele>
        <time>2026-03-09T10:05:25Z</time>
      </trkpt>
      <trkpt lat="52.311468841508031" lon="7.857841858640313">
        <ele>68.9765625</ele>
        <time>2026-03-09T10:05:29Z</time>
      </trkpt>
      <trkpt lat="52.311346549540758" lon="7.8576266951859">
        <ele>69.7734375</ele>
        <time>2026-03-09T10:05:33Z</time>
      </trkpt>
      <trkpt lat="52.311216210946441" lon="7.857418153434992">
        <ele>71.14453125</ele>
        <time>2026-03-09T10:05:37Z</time>
      </trkpt>
      <trkpt lat="52.311035161837935" lon="7.857107352465391">
        <ele>72.37109375</ele>
        <time>2026-03-09T10:05:43Z</time>
      </trkpt>
      <trkpt lat="52.310879677534103" lon="7.856843657791615">
        <ele>72.66796875</ele>
        <time>2026-03-09T10:05:49Z</time>
      </trkpt>
      <trkpt lat="52.310702065005898" lon="7.856556158512831">
        <ele>72.68359375</ele>
        <time>2026-03-09T10:05:55Z</time>
      </trkpt>
      <trkpt lat="52.310530738905072" lon="7.856274945661426">
        <ele>72.89453125</ele>
        <time>2026-03-09T10:06:01Z</time>
      </trkpt>
      <trkpt lat="52.310351366177201" lon="7.855973951518536">
        <ele>73.15234375</ele>
        <time>2026-03-09T10:06:07Z</time>
      </trkpt>
      <trkpt lat="52.310175681486726" lon="7.855687206611037">
        <ele>73</ele>
        <time>2026-03-09T10:06:13Z</time>
      </trkpt>
      <trkpt lat="52.309993961825967" lon="7.855385709553957">
        <ele>72.703125</ele>
        <time>2026-03-09T10:06:19Z</time>
      </trkpt>
      <trkpt lat="52.309809140861034" lon="7.855076501145959">
        <ele>72.23828125</ele>
        <time>2026-03-09T10:06:25Z</time>
      </trkpt>
      <trkpt lat="52.30964963324368" lon="7.854765448719263">
        <ele>72.7109375</ele>
        <time>2026-03-09T10:06:31Z</time>
      </trkpt>
      <trkpt lat="52.309519881382585" lon="7.854546010494232">
        <ele>73.1328125</ele>
        <time>2026-03-09T10:06:35Z</time>
      </trkpt>
      <trkpt lat="52.309408318251371" lon="7.854306204244494">
        <ele>73.5546875</ele>
        <time>2026-03-09T10:06:39Z</time>
      </trkpt>
      <trkpt lat="52.309280494228005" lon="7.853918876498938">
        <ele>74.171875</ele>
        <time>2026-03-09T10:06:45Z</time>
      </trkpt>
      <trkpt lat="52.30915660969913" lon="7.85353641025722">
        <ele>74.7578125</ele>
        <time>2026-03-09T10:06:51Z</time>
      </trkpt>
      <trkpt lat="52.309038508683443" lon="7.853140868246555">
        <ele>74.5078125</ele>
        <time>2026-03-09T10:06:57Z</time>
      </trkpt>
      <trkpt lat="52.308914959430695" lon="7.852745829150081">
        <ele>74.203125</ele>
        <time>2026-03-09T10:07:03Z</time>
      </trkpt>
      <trkpt lat="52.308833738788962" lon="7.852475512772799">
        <ele>74.12890625</ele>
        <time>2026-03-09T10:07:07Z</time>
      </trkpt>
      <trkpt lat="52.308753440156579" lon="7.852207040414214">
        <ele>73.98828125</ele>
        <time>2026-03-09T10:07:11Z</time>
      </trkpt>
      <trkpt lat="52.308641960844398" lon="7.851823400706053">
        <ele>73.8125</ele>
        <time>2026-03-09T10:07:17Z</time>
      </trkpt>
      <trkpt lat="52.308555627241731" lon="7.851529950276017">
        <ele>74.19140625</ele>
        <time>2026-03-09T10:07:21Z</time>
      </trkpt>
      <trkpt lat="52.308465018868446" lon="7.851260472089052">
        <ele>74.49609375</ele>
        <time>2026-03-09T10:07:25Z</time>
      </trkpt>
      <trkpt lat="52.308375751599669" lon="7.85097599029541">
        <ele>74.703125</ele>
        <time>2026-03-09T10:07:29Z</time>
      </trkpt>
      <trkpt lat="52.308288244530559" lon="7.850683629512787">
        <ele>74.80859375</ele>
        <time>2026-03-09T10:07:33Z</time>
      </trkpt>
      <trkpt lat="52.308201994746923" lon="7.850397555157542">
        <ele>74.9140625</ele>
        <time>2026-03-09T10:07:37Z</time>
      </trkpt>
      <trkpt lat="52.308105770498514" lon="7.850122796371579">
        <ele>74.9140625</ele>
        <time>2026-03-09T10:07:41Z</time>
      </trkpt>
      <trkpt lat="52.308004349470139" lon="7.849840996786952">
        <ele>74.69921875</ele>
        <time>2026-03-09T10:07:45Z</time>
      </trkpt>
      <trkpt lat="52.307900749146938" lon="7.849558359012008">
        <ele>74.484375</ele>
        <time>2026-03-09T10:07:49Z</time>
      </trkpt>
      <trkpt lat="52.307802010327578" lon="7.849276810884476">
        <ele>74.234375</ele>
        <time>2026-03-09T10:07:53Z</time>
      </trkpt>
      <trkpt lat="52.307688519358635" lon="7.849012780934572">
        <ele>74.109375</ele>
        <time>2026-03-09T10:07:57Z</time>
      </trkpt>
      <trkpt lat="52.307567400857806" lon="7.848772807046771">
        <ele>74.1953125</ele>
        <time>2026-03-09T10:08:01Z</time>
      </trkpt>
      <trkpt lat="52.307426249608397" lon="7.848552530631423">
        <ele>74.53125</ele>
        <time>2026-03-09T10:08:05Z</time>
      </trkpt>
      <trkpt lat="52.307277051731944" lon="7.848332338035107">
        <ele>74.7890625</ele>
        <time>2026-03-09T10:08:09Z</time>
      </trkpt>
      <trkpt lat="52.30712634511292" lon="7.84813117235899">
        <ele>75.0078125</ele>
        <time>2026-03-09T10:08:13Z</time>
      </trkpt>
      <trkpt lat="52.306991731747985" lon="7.847931683063507">
        <ele>75.2578125</ele>
        <time>2026-03-09T10:08:17Z</time>
      </trkpt>
      <trkpt lat="52.306789308786392" lon="7.847668658941984">
        <ele>75.84765625</ele>
        <time>2026-03-09T10:08:23Z</time>
      </trkpt>
      <trkpt lat="52.306588897481561" lon="7.847380489110947">
        <ele>76.609375</ele>
        <time>2026-03-09T10:08:29Z</time>
      </trkpt>
      <trkpt lat="52.306392090395093" lon="7.847104389220476">
        <ele>77.2734375</ele>
        <time>2026-03-09T10:08:35Z</time>
      </trkpt>
      <trkpt lat="52.306200647726655" lon="7.846837677061558">
        <ele>78.35546875</ele>
        <time>2026-03-09T10:08:41Z</time>
      </trkpt>
      <trkpt lat="52.306003840640187" lon="7.846570629626513">
        <ele>80.00390625</ele>
        <time>2026-03-09T10:08:47Z</time>
      </trkpt>
      <trkpt lat="52.305838130414486" lon="7.846332332119346">
        <ele>81.6640625</ele>
        <time>2026-03-09T10:08:53Z</time>
      </trkpt>
      <trkpt lat="52.305660014972091" lon="7.846061848104">
        <ele>83.7578125</ele>
        <time>2026-03-09T10:08:59Z</time>
      </trkpt>
      <trkpt lat="52.305494220927358" lon="7.845802847296">
        <ele>84.51171875</ele>
        <time>2026-03-09T10:09:05Z</time>
      </trkpt>
      <trkpt lat="52.305331779643893" lon="7.845542170107365">
        <ele>85.19140625</ele>
        <time>2026-03-09T10:09:11Z</time>
      </trkpt>
      <trkpt lat="52.305184593424201" lon="7.845261879265308">
        <ele>85.9921875</ele>
        <time>2026-03-09T10:09:17Z</time>
      </trkpt>
      <trkpt lat="52.305054422467947" lon="7.844974044710398">
        <ele>86.6796875</ele>
        <time>2026-03-09T10:09:23Z</time>
      </trkpt>
      <trkpt lat="52.30494512245059" lon="7.844631476327777">
        <ele>87.3515625</ele>
        <time>2026-03-09T10:09:29Z</time>
      </trkpt>
      <trkpt lat="52.3048478923738" lon="7.844301648437977">
        <ele>87.890625</ele>
        <time>2026-03-09T10:09:35Z</time>
      </trkpt>
      <trkpt lat="52.304762396961451" lon="7.843963606283069">
        <ele>87.9375</ele>
        <time>2026-03-09T10:09:41Z</time>
      </trkpt>
      <trkpt lat="52.304670531302691" lon="7.84363092854619">
        <ele>87.83203125</ele>
        <time>2026-03-09T10:09:47Z</time>
      </trkpt>
      <trkpt lat="52.304580677300692" lon="7.843305375427008">
        <ele>87.89453125</ele>
        <time>2026-03-09T10:09:53Z</time>
      </trkpt>
      <trkpt lat="52.304481267929077" lon="7.842956855893135">
        <ele>88.1640625</ele>
        <time>2026-03-09T10:09:59Z</time>
      </trkpt>
      <trkpt lat="52.304378673434258" lon="7.842579586431384">
        <ele>88.41796875</ele>
        <time>2026-03-09T10:10:05Z</time>
      </trkpt>
      <trkpt lat="52.304300889372826" lon="7.842309102416039">
        <ele>88.30078125</ele>
        <time>2026-03-09T10:10:09Z</time>
      </trkpt>
      <trkpt lat="52.30422587133944" lon="7.842026297003031">
        <ele>88.11328125</ele>
        <time>2026-03-09T10:10:13Z</time>
      </trkpt>
      <trkpt lat="52.30414423160255" lon="7.841754974797368">
        <ele>88.125</ele>
        <time>2026-03-09T10:10:17Z</time>
      </trkpt>
      <trkpt lat="52.304066531360149" lon="7.841483233496547">
        <ele>88.42578125</ele>
        <time>2026-03-09T10:10:21Z</time>
      </trkpt>
      <trkpt lat="52.303985478356481" lon="7.84118433482945">
        <ele>88.82421875</ele>
        <time>2026-03-09T10:10:25Z</time>
      </trkpt>
      <trkpt lat="52.303906353190541" lon="7.840890465304256">
        <ele>89</ele>
        <time>2026-03-09T10:10:29Z</time>
      </trkpt>
      <trkpt lat="52.303824881091714" lon="7.840581675991416">
        <ele>89</ele>
        <time>2026-03-09T10:10:33Z</time>
      </trkpt>
      <trkpt lat="52.303741900250316" lon="7.840283447876573">
        <ele>89</ele>
        <time>2026-03-09T10:10:37Z</time>
      </trkpt>
      <trkpt lat="52.303659422323108" lon="7.839963007718325">
        <ele>89.11328125</ele>
        <time>2026-03-09T10:10:41Z</time>
      </trkpt>
      <trkpt lat="52.303577279672027" lon="7.83965882845223">
        <ele>89.31640625</ele>
        <time>2026-03-09T10:10:45Z</time>
      </trkpt>
      <trkpt lat="52.303495807573199" lon="7.839363534003496">
        <ele>89.5625</ele>
        <time>2026-03-09T10:10:49Z</time>
      </trkpt>
      <trkpt lat="52.303408300504088" lon="7.83907787874341">
        <ele>89.66796875</ele>
        <time>2026-03-09T10:10:53Z</time>
      </trkpt>
      <trkpt lat="52.303294809535146" lon="7.838795743882656">
        <ele>89.8046875</ele>
        <time>2026-03-09T10:10:57Z</time>
      </trkpt>
      <trkpt lat="52.303160196170211" lon="7.838511848822236">
        <ele>89.91015625</ele>
        <time>2026-03-09T10:11:01Z</time>
      </trkpt>
      <trkpt lat="52.303013009950519" lon="7.838246058672667">
        <ele>89.53515625</ele>
        <time>2026-03-09T10:11:05Z</time>
      </trkpt>
      <trkpt lat="52.302881078794599" lon="7.838002983480692">
        <ele>89.234375</ele>
        <time>2026-03-09T10:11:09Z</time>
      </trkpt>
      <trkpt lat="52.302743112668395" lon="7.837759656831622">
        <ele>89.0234375</ele>
        <time>2026-03-09T10:11:13Z</time>
      </trkpt>
      <trkpt lat="52.302616378292441" lon="7.837508032098413">
        <ele>88.90234375</ele>
        <time>2026-03-09T10:11:17Z</time>
      </trkpt>
      <trkpt lat="52.302477490156889" lon="7.837261436507106">
        <ele>88.8828125</ele>
        <time>2026-03-09T10:11:21Z</time>
      </trkpt>
      <trkpt lat="52.302346900105476" lon="7.837018528953195">
        <ele>88.953125</ele>
        <time>2026-03-09T10:11:25Z</time>
      </trkpt>
      <trkpt lat="52.302177669480443" lon="7.836691215634346">
        <ele>89.1796875</ele>
        <time>2026-03-09T10:11:31Z</time>
      </trkpt>
      <trkpt lat="52.302042050287127" lon="7.836451577022672">
        <ele>89.47265625</ele>
        <time>2026-03-09T10:11:35Z</time>
      </trkpt>
      <trkpt lat="52.301910035312176" lon="7.836197605356574">
        <ele>89.85546875</ele>
        <time>2026-03-09T10:11:39Z</time>
      </trkpt>
      <trkpt lat="52.301776511594653" lon="7.835954613983631">
        <ele>90.09765625</ele>
        <time>2026-03-09T10:11:43Z</time>
      </trkpt>
      <trkpt lat="52.301644496619701" lon="7.835698630660772">
        <ele>89.890625</ele>
        <time>2026-03-09T10:11:47Z</time>
      </trkpt>
      <trkpt lat="52.301500244066119" lon="7.835427392274141">
        <ele>89.46484375</ele>
        <time>2026-03-09T10:11:51Z</time>
      </trkpt>
      <trkpt lat="52.301357416436076" lon="7.835160009562969">
        <ele>88.66015625</ele>
        <time>2026-03-09T10:11:55Z</time>
      </trkpt>
      <trkpt lat="52.301202518865466" lon="7.834885083138943">
        <ele>87.95703125</ele>
        <time>2026-03-09T10:11:59Z</time>
      </trkpt>
      <trkpt lat="52.30103412643075" lon="7.834613844752312">
        <ele>87.2265625</ele>
        <time>2026-03-09T10:12:03Z</time>
      </trkpt>
      <trkpt lat="52.300828350707889" lon="7.834365740418434">
        <ele>86.4921875</ele>
        <time>2026-03-09T10:12:07Z</time>
      </trkpt>
      <trkpt lat="52.30059340596199" lon="7.834108918905258">
        <ele>86.27734375</ele>
        <time>2026-03-09T10:12:11Z</time>
      </trkpt>
      <trkpt lat="52.300358796492219" lon="7.833846565335989">
        <ele>86.109375</ele>
        <time>2026-03-09T10:12:15Z</time>
      </trkpt>
      <trkpt lat="52.300118822604418" lon="7.833565687760711">
        <ele>85.76171875</ele>
        <time>2026-03-09T10:12:19Z</time>
      </trkpt>
      <trkpt lat="52.299872310832143" lon="7.833276093006134">
        <ele>85.19921875</ele>
        <time>2026-03-09T10:12:23Z</time>
      </trkpt>
      <trkpt lat="52.299632336944342" lon="7.832976607605815">
        <ele>84.453125</ele>
        <time>2026-03-09T10:12:27Z</time>
      </trkpt>
      <trkpt lat="52.299374928697944" lon="7.832674020901322">
        <ele>83.2421875</ele>
        <time>2026-03-09T10:12:31Z</time>
      </trkpt>
      <trkpt lat="52.299114419147372" lon="7.832376379519701">
        <ele>81.1875</ele>
        <time>2026-03-09T10:12:35Z</time>
      </trkpt>
      <trkpt lat="52.298847204074264" lon="7.832064488902688">
        <ele>79.17578125</ele>
        <time>2026-03-09T10:12:39Z</time>
      </trkpt>
      <trkpt lat="52.298615947365761" lon="7.831697277724743">
        <ele>77.12109375</ele>
        <time>2026-03-09T10:12:43Z</time>
      </trkpt>
      <trkpt lat="52.298423498868942" lon="7.831282960250974">
        <ele>75.31640625</ele>
        <time>2026-03-09T10:12:47Z</time>
      </trkpt>
      <trkpt lat="52.298250664025545" lon="7.830835785716772">
        <ele>73.96875</ele>
        <time>2026-03-09T10:12:51Z</time>
      </trkpt>
      <trkpt lat="52.298060897737741" lon="7.830389868468046">
        <ele>73.05078125</ele>
        <time>2026-03-09T10:12:55Z</time>
      </trkpt>
      <trkpt lat="52.29787414893508" lon="7.829936742782593">
        <ele>71.80078125</ele>
        <time>2026-03-09T10:12:59Z</time>
      </trkpt>
      <trkpt lat="52.297694189473987" lon="7.829501554369927">
        <ele>70.140625</ele>
        <time>2026-03-09T10:13:03Z</time>
      </trkpt>
      <trkpt lat="52.297518588602543" lon="7.82905706204474">
        <ele>67.7109375</ele>
        <time>2026-03-09T10:13:07Z</time>
      </trkpt>
      <trkpt lat="52.297335360199213" lon="7.828617431223393">
        <ele>65.31640625</ele>
        <time>2026-03-09T10:13:11Z</time>
      </trkpt>
      <trkpt lat="52.2971495334059" lon="7.828183500096202">
        <ele>64.15625</ele>
        <time>2026-03-09T10:13:15Z</time>
      </trkpt>
      <trkpt lat="52.296979045495391" lon="7.827751580625773">
        <ele>63.796875</ele>
        <time>2026-03-09T10:13:19Z</time>
      </trkpt>
      <trkpt lat="52.29681383818388" lon="7.827367773279548">
        <ele>64.609375</ele>
        <time>2026-03-09T10:13:23Z</time>
      </trkpt>
      <trkpt lat="52.296679140999913" lon="7.827023444697261">
        <ele>65.34375</ele>
        <time>2026-03-09T10:13:27Z</time>
      </trkpt>
      <trkpt lat="52.296549892053008" lon="7.826720187440515">
        <ele>65.80859375</ele>
        <time>2026-03-09T10:13:31Z</time>
      </trkpt>
      <trkpt lat="52.296437658369541" lon="7.82642480917275">
        <ele>66.00390625</ele>
        <time>2026-03-09T10:13:35Z</time>
      </trkpt>
      <trkpt lat="52.296325927600265" lon="7.826123563572764">
        <ele>66.1484375</ele>
        <time>2026-03-09T10:13:39Z</time>
      </trkpt>
      <trkpt lat="52.296242779120803" lon="7.825805218890309">
        <ele>66.35546875</ele>
        <time>2026-03-09T10:13:43Z</time>
      </trkpt>
      <trkpt lat="52.296178489923477" lon="7.825451251119375">
        <ele>66.60546875</ele>
        <time>2026-03-09T10:13:47Z</time>
      </trkpt>
      <trkpt lat="52.296173879876733" lon="7.825093092396855">
        <ele>66.81640625</ele>
        <time>2026-03-09T10:13:51Z</time>
      </trkpt>
      <trkpt lat="52.296183435246348" lon="7.824734346941114">
        <ele>67.078125</ele>
        <time>2026-03-09T10:13:55Z</time>
      </trkpt>
      <trkpt lat="52.296196259558201" lon="7.824373338371515">
        <ele>67.37109375</ele>
        <time>2026-03-09T10:13:59Z</time>
      </trkpt>
      <trkpt lat="52.29620891623199" lon="7.824018783867359">
        <ele>67.9140625</ele>
        <time>2026-03-09T10:14:03Z</time>
      </trkpt>
      <trkpt lat="52.296225009486079" lon="7.823672695085406">
        <ele>68.421875</ele>
        <time>2026-03-09T10:14:07Z</time>
      </trkpt>
      <trkpt lat="52.296247640624642" lon="7.823341442272067">
        <ele>68.8046875</ele>
        <time>2026-03-09T10:14:11Z</time>
      </trkpt>
      <trkpt lat="52.296263230964541" lon="7.823027959093452">
        <ele>69.140625</ele>
        <time>2026-03-09T10:14:15Z</time>
      </trkpt>
      <trkpt lat="52.29628024622798" lon="7.822705758735538">
        <ele>69.4609375</ele>
        <time>2026-03-09T10:14:19Z</time>
      </trkpt>
      <trkpt lat="52.296281419694424" lon="7.822386743500829">
        <ele>69.546875</ele>
        <time>2026-03-09T10:14:23Z</time>
      </trkpt>
      <trkpt lat="52.296302290633321" lon="7.822058340534568">
        <ele>69.5625</ele>
        <time>2026-03-09T10:14:27Z</time>
      </trkpt>
      <trkpt lat="52.296314109116793" lon="7.821733625605702">
        <ele>69.6328125</ele>
        <time>2026-03-09T10:14:31Z</time>
      </trkpt>
      <trkpt lat="52.296331208199263" lon="7.821390219032764">
        <ele>69.703125</ele>
        <time>2026-03-09T10:14:35Z</time>
      </trkpt>
      <trkpt lat="52.296337159350514" lon="7.821075394749641">
        <ele>69.79296875</ele>
        <time>2026-03-09T10:14:39Z</time>
      </trkpt>
      <trkpt lat="52.296349229291081" lon="7.820744477212429">
        <ele>71.1640625</ele>
        <time>2026-03-09T10:14:43Z</time>
      </trkpt>
      <trkpt lat="52.296354258432984" lon="7.820425294339657">
        <ele>72.56640625</ele>
        <time>2026-03-09T10:14:47Z</time>
      </trkpt>
      <trkpt lat="52.296322910115123" lon="7.820130670443177">
        <ele>74.2734375</ele>
        <time>2026-03-09T10:14:51Z</time>
      </trkpt>
      <trkpt lat="52.296253172680736" lon="7.819697493687272">
        <ele>77.29296875</ele>
        <time>2026-03-09T10:14:57Z</time>
      </trkpt>
      <trkpt lat="52.296158289536834" lon="7.819291977211833">
        <ele>78.9609375</ele>
        <time>2026-03-09T10:15:03Z</time>
      </trkpt>
      <trkpt lat="52.296092407777905" lon="7.819010093808174">
        <ele>78.8984375</ele>
        <time>2026-03-09T10:15:07Z</time>
      </trkpt>
      <trkpt lat="52.29602811858058" lon="7.81872259452939">
        <ele>78.79296875</ele>
        <time>2026-03-09T10:15:11Z</time>
      </trkpt>
      <trkpt lat="52.295960141345859" lon="7.818445237353444">
        <ele>78.4140625</ele>
        <time>2026-03-09T10:15:15Z</time>
      </trkpt>
      <trkpt lat="52.295892750844359" lon="7.818152206018567">
        <ele>77.9609375</ele>
        <time>2026-03-09T10:15:19Z</time>
      </trkpt>
      <trkpt lat="52.295799795538187" lon="7.817894378677011">
        <ele>77.80078125</ele>
        <time>2026-03-09T10:15:23Z</time>
      </trkpt>
      <trkpt lat="52.295614555478096" lon="7.817618697881699">
        <ele>77.94140625</ele>
        <time>2026-03-09T10:15:29Z</time>
      </trkpt>
      <trkpt lat="52.295427303761244" lon="7.817316111177206">
        <ele>78.375</ele>
        <time>2026-03-09T10:15:35Z</time>
      </trkpt>
      <trkpt lat="52.295242985710502" lon="7.817069264128804">
        <ele>78.99609375</ele>
        <time>2026-03-09T10:15:41Z</time>
      </trkpt>
      <trkpt lat="52.295076521113515" lon="7.81678419560194">
        <ele>79.453125</ele>
        <time>2026-03-09T10:15:47Z</time>
      </trkpt>
      <trkpt lat="52.294888431206346" lon="7.816511951386929">
        <ele>80.02734375</ele>
        <time>2026-03-09T10:15:53Z</time>
      </trkpt>
      <trkpt lat="52.294723307713866" lon="7.816260997205973">
        <ele>80.421875</ele>
        <time>2026-03-09T10:15:59Z</time>
      </trkpt>
      <trkpt lat="52.294605290517211" lon="7.815944161266089">
        <ele>80.4765625</ele>
        <time>2026-03-09T10:16:05Z</time>
      </trkpt>
      <trkpt lat="52.294576959684491" lon="7.815565718337894">
        <ele>80.54296875</ele>
        <time>2026-03-09T10:16:11Z</time>
      </trkpt>
      <trkpt lat="52.294602273032069" lon="7.81519222073257">
        <ele>80.56640625</ele>
        <time>2026-03-09T10:16:17Z</time>
      </trkpt>
      <trkpt lat="52.294636052101851" lon="7.81484923325479">
        <ele>81.1484375</ele>
        <time>2026-03-09T10:16:23Z</time>
      </trkpt>
      <trkpt lat="52.294656671583652" lon="7.814535247161984">
        <ele>81.7421875</ele>
        <time>2026-03-09T10:16:29Z</time>
      </trkpt>
      <trkpt lat="52.294673016294837" lon="7.814207933843136">
        <ele>83.1484375</ele>
        <time>2026-03-09T10:16:35Z</time>
      </trkpt>
      <trkpt lat="52.294662622734904" lon="7.813908783718944">
        <ele>84.87890625</ele>
        <time>2026-03-09T10:16:41Z</time>
      </trkpt>
      <trkpt lat="52.294592214748263" lon="7.813552469015122">
        <ele>86.87890625</ele>
        <time>2026-03-09T10:16:49Z</time>
      </trkpt>
      <trkpt lat="52.294522142037749" lon="7.813228340819478">
        <ele>88.86328125</ele>
        <time>2026-03-09T10:16:55Z</time>
      </trkpt>
      <trkpt lat="52.294448129832745" lon="7.812927765771747">
        <ele>90.55859375</ele>
        <time>2026-03-09T10:17:01Z</time>
      </trkpt>
      <trkpt lat="52.294355090707541" lon="7.812605984508991">
        <ele>92.02734375</ele>
        <time>2026-03-09T10:17:07Z</time>
      </trkpt>
      <trkpt lat="52.294287281110883" lon="7.81230834312737">
        <ele>93.2109375</ele>
        <time>2026-03-09T10:17:13Z</time>
      </trkpt>
      <trkpt lat="52.294200109317899" lon="7.812032494693995">
        <ele>94.22265625</ele>
        <time>2026-03-09T10:17:19Z</time>
      </trkpt>
      <trkpt lat="52.294111177325249" lon="7.811761340126395">
        <ele>94.2109375</ele>
        <time>2026-03-09T10:17:25Z</time>
      </trkpt>
      <trkpt lat="52.293906826525927" lon="7.81162572093308">
        <ele>93.5078125</ele>
        <time>2026-03-09T10:17:33Z</time>
      </trkpt>
      <trkpt lat="52.29372275993228" lon="7.811577692627907">
        <ele>93.0625</ele>
        <time>2026-03-09T10:17:39Z</time>
      </trkpt>
      <trkpt lat="52.293525198474526" lon="7.811546931043267">
        <ele>92.65625</ele>
        <time>2026-03-09T10:17:45Z</time>
      </trkpt>
      <trkpt lat="52.293317159637809" lon="7.811532514169812">
        <ele>92.25390625</ele>
        <time>2026-03-09T10:17:51Z</time>
      </trkpt>
      <trkpt lat="52.293113730847836" lon="7.811381807550788">
        <ele>92.43359375</ele>
        <time>2026-03-09T10:17:57Z</time>
      </trkpt>
      <trkpt lat="52.293010214343667" lon="7.811078382655978">
        <ele>94.0625</ele>
        <time>2026-03-09T10:18:03Z</time>
      </trkpt>
      <trkpt lat="52.292995043098927" lon="7.810763055458665">
        <ele>95.515625</ele>
        <time>2026-03-09T10:18:09Z</time>
      </trkpt>
      <trkpt lat="52.29302354156971" lon="7.810447560623288">
        <ele>96.53125</ele>
        <time>2026-03-09T10:18:15Z</time>
      </trkpt>
      <trkpt lat="52.293060086667538" lon="7.810133071616292">
        <ele>97.33984375</ele>
        <time>2026-03-09T10:18:21Z</time>
      </trkpt>
      <trkpt lat="52.29311004281044" lon="7.809753622859716">
        <ele>98.11328125</ele>
        <time>2026-03-09T10:18:29Z</time>
      </trkpt>
      <trkpt lat="52.293158071115613" lon="7.809381801635027">
        <ele>98.87109375</ele>
        <time>2026-03-09T10:18:37Z</time>
      </trkpt>
      <trkpt lat="52.293191850185394" lon="7.809090781956911">
        <ele>100.109375</ele>
        <time>2026-03-09T10:18:43Z</time>
      </trkpt>
      <trkpt lat="52.293216912075877" lon="7.808782327920198">
        <ele>101.5546875</ele>
        <time>2026-03-09T10:18:49Z</time>
      </trkpt>
      <trkpt lat="52.29324096813798" lon="7.808394664898515">
        <ele>103.890625</ele>
        <time>2026-03-09T10:18:57Z</time>
      </trkpt>
      <trkpt lat="52.293242057785392" lon="7.808029968291521">
        <ele>106.8828125</ele>
        <time>2026-03-09T10:19:05Z</time>
      </trkpt>
      <trkpt lat="52.293242812156677" lon="7.807729057967663">
        <ele>109.34375</ele>
        <time>2026-03-09T10:19:11Z</time>
      </trkpt>
      <trkpt lat="52.293215738609433" lon="7.807340724393725">
        <ele>112.68359375</ele>
        <time>2026-03-09T10:19:19Z</time>
      </trkpt>
      <trkpt lat="52.293132841587067" lon="7.806987930089235">
        <ele>116.58984375</ele>
        <time>2026-03-09T10:19:27Z</time>
      </trkpt>
      <trkpt lat="52.293033767491579" lon="7.806665394455195">
        <ele>120.48828125</ele>
        <time>2026-03-09T10:19:35Z</time>
      </trkpt>
      <trkpt lat="52.29292874224484" lon="7.80635585077107">
        <ele>123.86328125</ele>
        <time>2026-03-09T10:19:43Z</time>
      </trkpt>
      <trkpt lat="52.29280611500144" lon="7.806023256853223">
        <ele>127.26953125</ele>
        <time>2026-03-09T10:19:51Z</time>
      </trkpt>
      <trkpt lat="52.292695809155703" lon="7.805695775896311">
        <ele>128.8828125</ele>
        <time>2026-03-09T10:19:59Z</time>
      </trkpt>
      <trkpt lat="52.29257645085454" lon="7.805373575538397">
        <ele>129.7265625</ele>
        <time>2026-03-09T10:20:07Z</time>
      </trkpt>
      <trkpt lat="52.292467318475246" lon="7.805043077096343">
        <ele>130.45703125</ele>
        <time>2026-03-09T10:20:15Z</time>
      </trkpt>
      <trkpt lat="52.292349888011813" lon="7.804727246984839">
        <ele>130.859375</ele>
        <time>2026-03-09T10:20:23Z</time>
      </trkpt>
      <trkpt lat="52.292241342365742" lon="7.80442968942225">
        <ele>130.8359375</ele>
        <time>2026-03-09T10:20:31Z</time>
      </trkpt>
      <trkpt lat="52.292119469493628" lon="7.804124085232616">
        <ele>132.19140625</ele>
        <time>2026-03-09T10:20:39Z</time>
      </trkpt>
      <trkpt lat="52.291980581358075" lon="7.803843626752496">
        <ele>133.25390625</ele>
        <time>2026-03-09T10:20:47Z</time>
      </trkpt>
      <trkpt lat="52.291848147287965" lon="7.803541040048003">
        <ele>133.84375</ele>
        <time>2026-03-09T10:20:55Z</time>
      </trkpt>
      <trkpt lat="52.291745971888304" lon="7.803299641236663">
        <ele>134.79296875</ele>
        <time>2026-03-09T10:21:01Z</time>
      </trkpt>
      <trkpt lat="52.291652429848909" lon="7.803029324859381">
        <ele>135.2578125</ele>
        <time>2026-03-09T10:21:07Z</time>
      </trkpt>
      <trkpt lat="52.291518487036228" lon="7.802724307402968">
        <ele>135.19140625</ele>
        <time>2026-03-09T10:21:15Z</time>
      </trkpt>
      <trkpt lat="52.291393931955099" lon="7.802407471463084">
        <ele>136.6484375</ele>
        <time>2026-03-09T10:21:23Z</time>
      </trkpt>
      <trkpt lat="52.291273064911366" lon="7.802092898637056">
        <ele>137.90234375</ele>
        <time>2026-03-09T10:21:31Z</time>
      </trkpt>
      <trkpt lat="52.291171727702022" lon="7.801783438771963">
        <ele>138.859375</ele>
        <time>2026-03-09T10:21:39Z</time>
      </trkpt>
      <trkpt lat="52.29108908213675" lon="7.801427962258458">
        <ele>140.03125</ele>
        <time>2026-03-09T10:21:47Z</time>
      </trkpt>
      <trkpt lat="52.291033342480659" lon="7.801148593425751">
        <ele>140.6953125</ele>
        <time>2026-03-09T10:21:53Z</time>
      </trkpt>
      <trkpt lat="52.29096544906497" lon="7.800781801342964">
        <ele>142.69921875</ele>
        <time>2026-03-09T10:22:01Z</time>
      </trkpt>
      <trkpt lat="52.290902668610215" lon="7.800436299294233">
        <ele>144.57421875</ele>
        <time>2026-03-09T10:22:09Z</time>
      </trkpt>
      <trkpt lat="52.290826980024576" lon="7.800079733133316">
        <ele>146.2109375</ele>
        <time>2026-03-09T10:22:17Z</time>
      </trkpt>
      <trkpt lat="52.290747603401542" lon="7.799801202490926">
        <ele>147.12109375</ele>
        <time>2026-03-09T10:22:23Z</time>
      </trkpt>
      <trkpt lat="52.290658000856638" lon="7.799542285501957">
        <ele>147.50390625</ele>
        <time>2026-03-09T10:22:29Z</time>
      </trkpt>
      <trkpt lat="52.290540151298046" lon="7.799314968287945">
        <ele>147.4921875</ele>
        <time>2026-03-09T10:22:35Z</time>
      </trkpt>
      <trkpt lat="52.290406711399555" lon="7.799107348546386">
        <ele>146.76171875</ele>
        <time>2026-03-09T10:22:41Z</time>
      </trkpt>
      <trkpt lat="52.290233038365841" lon="7.798852454870939">
        <ele>145.57421875</ele>
        <time>2026-03-09T10:22:49Z</time>
      </trkpt>
      <trkpt lat="52.290049642324448" lon="7.798608625307679">
        <ele>144.0546875</ele>
        <time>2026-03-09T10:22:57Z</time>
      </trkpt>
      <trkpt lat="52.289872448891401" lon="7.79838927090168">
        <ele>143.828125</ele>
        <time>2026-03-09T10:23:05Z</time>
      </trkpt>
      <trkpt lat="52.289705732837319" lon="7.79814544133842">
        <ele>145.48828125</ele>
        <time>2026-03-09T10:23:13Z</time>
      </trkpt>
      <trkpt lat="52.28956307284534" lon="7.797890212386847">
        <ele>147.28125</ele>
        <time>2026-03-09T10:23:21Z</time>
      </trkpt>
      <trkpt lat="52.289433320984244" lon="7.797616962343454">
        <ele>148.984375</ele>
        <time>2026-03-09T10:23:29Z</time>
      </trkpt>
      <trkpt lat="52.289306502789259" lon="7.797332899644971">
        <ele>150.796875</ele>
        <time>2026-03-09T10:23:37Z</time>
      </trkpt>
      <trkpt lat="52.289188569411635" lon="7.79705872759223">
        <ele>152.16796875</ele>
        <time>2026-03-09T10:23:45Z</time>
      </trkpt>
      <trkpt lat="52.28906761854887" lon="7.796753458678722">
        <ele>153.79296875</ele>
        <time>2026-03-09T10:23:53Z</time>
      </trkpt>
      <trkpt lat="52.288938201963902" lon="7.796473000198603">
        <ele>155.67578125</ele>
        <time>2026-03-09T10:24:01Z</time>
      </trkpt>
      <trkpt lat="52.288814317435026" lon="7.796198157593608">
        <ele>157.56640625</ele>
        <time>2026-03-09T10:24:09Z</time>
      </trkpt>
      <trkpt lat="52.2886947914958" lon="7.795930523425341">
        <ele>158.91015625</ele>
        <time>2026-03-09T10:24:17Z</time>
      </trkpt>
      <trkpt lat="52.288573840633035" lon="7.795683173462749">
        <ele>159.74609375</ele>
        <time>2026-03-09T10:24:25Z</time>
      </trkpt>
      <trkpt lat="52.288435958325863" lon="7.795435236766934">
        <ele>160.22265625</ele>
        <time>2026-03-09T10:24:33Z</time>
      </trkpt>
      <trkpt lat="52.288270248100162" lon="7.795209344476461">
        <ele>160.2734375</ele>
        <time>2026-03-09T10:24:41Z</time>
      </trkpt>
      <trkpt lat="52.288097832351923" lon="7.794978590682149">
        <ele>161.0234375</ele>
        <time>2026-03-09T10:24:49Z</time>
      </trkpt>
      <trkpt lat="52.287920387461782" lon="7.794749010354281">
        <ele>161.67578125</ele>
        <time>2026-03-09T10:24:57Z</time>
      </trkpt>
      <trkpt lat="52.287731794640422" lon="7.79451540671289">
        <ele>161.91015625</ele>
        <time>2026-03-09T10:25:05Z</time>
      </trkpt>
      <trkpt lat="52.287578070536256" lon="7.794334525242448">
        <ele>161.80078125</ele>
        <time>2026-03-09T10:25:11Z</time>
      </trkpt>
      <trkpt lat="52.287425016984344" lon="7.794147105887532">
        <ele>161.8359375</ele>
        <time>2026-03-09T10:25:17Z</time>
      </trkpt>
      <trkpt lat="52.287278417497873" lon="7.793959015980363">
        <ele>162.17578125</ele>
        <time>2026-03-09T10:25:23Z</time>
      </trkpt>
      <trkpt lat="52.287118742242455" lon="7.79377369210124">
        <ele>162.78125</ele>
        <time>2026-03-09T10:25:31Z</time>
      </trkpt>
      <trkpt lat="52.286970717832446" lon="7.793596666306257">
        <ele>163.296875</ele>
        <time>2026-03-09T10:25:39Z</time>
      </trkpt>
      <trkpt lat="52.28683115914464" lon="7.793398182839155">
        <ele>163.63671875</ele>
        <time>2026-03-09T10:25:47Z</time>
      </trkpt>
      <trkpt lat="52.286679781973362" lon="7.793204057961702">
        <ele>164.04296875</ele>
        <time>2026-03-09T10:25:55Z</time>
      </trkpt>
      <trkpt lat="52.286497810855508" lon="7.792991325259209">
        <ele>164.6328125</ele>
        <time>2026-03-09T10:26:05Z</time>
      </trkpt>
      <trkpt lat="52.286306452006102" lon="7.792785465717316">
        <ele>164.98828125</ele>
        <time>2026-03-09T10:26:14Z</time>
      </trkpt>
      <trkpt lat="52.286140909418464" lon="7.79259854927659">
        <ele>164.984375</ele>
        <time>2026-03-09T10:26:22Z</time>
      </trkpt>
      <trkpt lat="52.285963883623481" lon="7.792384140193462">
        <ele>165.23828125</ele>
        <time>2026-03-09T10:26:30Z</time>
      </trkpt>
      <trkpt lat="52.285807309672236" lon="7.792181633412838">
        <ele>165.80859375</ele>
        <time>2026-03-09T10:26:38Z</time>
      </trkpt>
      <trkpt lat="52.285660291090608" lon="7.792003098875284">
        <ele>166.5234375</ele>
        <time>2026-03-09T10:26:44Z</time>
      </trkpt>
      <trkpt lat="52.285497430711985" lon="7.791812745854259">
        <ele>166.484375</ele>
        <time>2026-03-09T10:26:50Z</time>
      </trkpt>
      <trkpt lat="52.285326272249222" lon="7.791582997888327">
        <ele>166.48828125</ele>
        <time>2026-03-09T10:26:56Z</time>
      </trkpt>
      <trkpt lat="52.285163914784789" lon="7.791381161659956">
        <ele>166.50390625</ele>
        <time>2026-03-09T10:27:02Z</time>
      </trkpt>
      <trkpt lat="52.284976160153747" lon="7.791146300733089">
        <ele>166.65234375</ele>
        <time>2026-03-09T10:27:08Z</time>
      </trkpt>
      <trkpt lat="52.284780777990818" lon="7.790920156985521">
        <ele>166.82421875</ele>
        <time>2026-03-09T10:27:14Z</time>
      </trkpt>
      <trkpt lat="52.284595789387822" lon="7.790711363777518">
        <ele>166.96484375</ele>
        <time>2026-03-09T10:27:20Z</time>
      </trkpt>
      <trkpt lat="52.284417087212205" lon="7.790470467880368">
        <ele>167.33984375</ele>
        <time>2026-03-09T10:27:26Z</time>
      </trkpt>
      <trkpt lat="52.284233355894685" lon="7.790239127352834">
        <ele>167.5859375</ele>
        <time>2026-03-09T10:27:32Z</time>
      </trkpt>
      <trkpt lat="52.284049037843943" lon="7.790016420185566">
        <ele>167.26171875</ele>
        <time>2026-03-09T10:27:38Z</time>
      </trkpt>
      <trkpt lat="52.283875532448292" lon="7.789808129891753">
        <ele>167.42578125</ele>
        <time>2026-03-09T10:27:44Z</time>
      </trkpt>
      <trkpt lat="52.283699763938785" lon="7.789597911760211">
        <ele>167.95703125</ele>
        <time>2026-03-09T10:27:50Z</time>
      </trkpt>
      <trkpt lat="52.283509327098727" lon="7.789373528212309">
        <ele>168.59765625</ele>
        <time>2026-03-09T10:27:56Z</time>
      </trkpt>
      <trkpt lat="52.283316710963845" lon="7.789167081937194">
        <ele>169.4140625</ele>
        <time>2026-03-09T10:28:02Z</time>
      </trkpt>
      <trkpt lat="52.283160304650664" lon="7.788966754451394">
        <ele>170.69140625</ele>
        <time>2026-03-09T10:28:08Z</time>
      </trkpt>
      <trkpt lat="52.283022087067366" lon="7.788774473592639">
        <ele>171.24609375</ele>
        <time>2026-03-09T10:28:14Z</time>
      </trkpt>
      <trkpt lat="52.282848078757524" lon="7.788564590737224">
        <ele>171.296875</ele>
        <time>2026-03-09T10:28:22Z</time>
      </trkpt>
      <trkpt lat="52.282667197287083" lon="7.788327885791659">
        <ele>171.1171875</ele>
        <time>2026-03-09T10:29:34Z</time>
      </trkpt>
      <trkpt lat="52.282490758225322" lon="7.788132419809699">
        <ele>171.02734375</ele>
        <time>2026-03-09T10:29:40Z</time>
      </trkpt>
      <trkpt lat="52.282322281971574" lon="7.787965033203363">
        <ele>171.03515625</ele>
        <time>2026-03-09T10:29:46Z</time>
      </trkpt>
      <trkpt lat="52.282147770747542" lon="7.787649538367987">
        <ele>170.6953125</ele>
        <time>2026-03-09T10:29:52Z</time>
      </trkpt>
      <trkpt lat="52.282154057174921" lon="7.787220887839794">
        <ele>170.2265625</ele>
        <time>2026-03-09T10:29:58Z</time>
      </trkpt>
      <trkpt lat="52.282175347208977" lon="7.786913188174367">
        <ele>170.0078125</ele>
        <time>2026-03-09T10:30:02Z</time>
      </trkpt>
      <trkpt lat="52.282204935327172" lon="7.78658646158874">
        <ele>169.77734375</ele>
        <time>2026-03-09T10:30:06Z</time>
      </trkpt>
      <trkpt lat="52.282232092693448" lon="7.786234170198441">
        <ele>169.5234375</ele>
        <time>2026-03-09T10:30:10Z</time>
      </trkpt>
      <trkpt lat="52.282263273373246" lon="7.785894619300962">
        <ele>169.59375</ele>
        <time>2026-03-09T10:30:14Z</time>
      </trkpt>
      <trkpt lat="52.282296381890774" lon="7.785571664571762">
        <ele>169.875</ele>
        <time>2026-03-09T10:30:18Z</time>
      </trkpt>
      <trkpt lat="52.282326221466064" lon="7.785210236907005">
        <ele>170.140625</ele>
        <time>2026-03-09T10:30:22Z</time>
      </trkpt>
      <trkpt lat="52.282363353297114" lon="7.784838583320379">
        <ele>170.71875</ele>
        <time>2026-03-09T10:30:26Z</time>
      </trkpt>
      <trkpt lat="52.28240174241364" lon="7.78448922559619">
        <ele>171.1640625</ele>
        <time>2026-03-09T10:30:30Z</time>
      </trkpt>
      <trkpt lat="52.282430408522487" lon="7.784133749082685">
        <ele>170.6875</ele>
        <time>2026-03-09T10:30:34Z</time>
      </trkpt>
      <trkpt lat="52.282472234219313" lon="7.783806184306741">
        <ele>170.1875</ele>
        <time>2026-03-09T10:30:38Z</time>
      </trkpt>
      <trkpt lat="52.282488076016307" lon="7.783467387780547">
        <ele>169.64453125</ele>
        <time>2026-03-09T10:30:42Z</time>
      </trkpt>
      <trkpt lat="52.282518250867724" lon="7.783124065026641">
        <ele>169.2890625</ele>
        <time>2026-03-09T10:30:46Z</time>
      </trkpt>
      <trkpt lat="52.28255026973784" lon="7.78280052356422">
        <ele>169.06640625</ele>
        <time>2026-03-09T10:30:50Z</time>
      </trkpt>
      <trkpt lat="52.282594107091427" lon="7.782386373728514">
        <ele>168.625</ele>
        <time>2026-03-09T10:30:56Z</time>
      </trkpt>
      <trkpt lat="52.282615900039673" lon="7.782072303816676">
        <ele>168.1328125</ele>
        <time>2026-03-09T10:31:02Z</time>
      </trkpt>
      <trkpt lat="52.282639956101775" lon="7.781682293862104">
        <ele>167.8046875</ele>
        <time>2026-03-09T10:31:26Z</time>
      </trkpt>
      <trkpt lat="52.28247701190412" lon="7.781462855637074">
        <ele>167.109375</ele>
        <time>2026-03-09T10:31:32Z</time>
      </trkpt>
      <trkpt lat="52.282310631126165" lon="7.781605012714863">
        <ele>166.3828125</ele>
        <time>2026-03-09T10:31:36Z</time>
      </trkpt>
      <trkpt lat="52.28217015042901" lon="7.781840544193983">
        <ele>165.609375</ele>
        <time>2026-03-09T10:31:44Z</time>
      </trkpt>
      <trkpt lat="52.282035201787949" lon="7.782068280503154">
        <ele>165.12109375</ele>
        <time>2026-03-09T10:31:50Z</time>
      </trkpt>
      <trkpt lat="52.281923135742545" lon="7.782299034297466">
        <ele>164.83984375</ele>
        <time>2026-03-09T10:31:54Z</time>
      </trkpt>
      <trkpt lat="52.281812159344554" lon="7.782580414786935">
        <ele>164.515625</ele>
        <time>2026-03-09T10:31:58Z</time>
      </trkpt>
      <trkpt lat="52.281709061935544" lon="7.782887779176235">
        <ele>164.53125</ele>
        <time>2026-03-09T10:32:02Z</time>
      </trkpt>
      <trkpt lat="52.281607557088137" lon="7.78316262178123">
        <ele>165</ele>
        <time>2026-03-09T10:32:06Z</time>
      </trkpt>
      <trkpt lat="52.281514769420028" lon="7.783442661166191">
        <ele>165.60546875</ele>
        <time>2026-03-09T10:32:10Z</time>
      </trkpt>
      <trkpt lat="52.281385520473123" lon="7.783712055534124">
        <ele>165.3125</ele>
        <time>2026-03-09T10:32:14Z</time>
      </trkpt>
      <trkpt lat="52.281199358403683" lon="7.783972565084696">
        <ele>163.8359375</ele>
        <time>2026-03-09T10:32:18Z</time>
      </trkpt>
      <trkpt lat="52.280980003997684" lon="7.784197116270661">
        <ele>161.97265625</ele>
        <time>2026-03-09T10:32:22Z</time>
      </trkpt>
      <trkpt lat="52.280740030109882" lon="7.78435193002224">
        <ele>159.8671875</ele>
        <time>2026-03-09T10:32:26Z</time>
      </trkpt>
      <trkpt lat="52.28048144839704" lon="7.78445796109736">
        <ele>158.65625</ele>
        <time>2026-03-09T10:32:30Z</time>
      </trkpt>
      <trkpt lat="52.280218759551644" lon="7.784492997452617">
        <ele>158.1015625</ele>
        <time>2026-03-09T10:32:34Z</time>
      </trkpt>
      <trkpt lat="52.279948778450489" lon="7.784518394619227">
        <ele>157.53515625</ele>
        <time>2026-03-09T10:32:38Z</time>
      </trkpt>
      <trkpt lat="52.279692878946662" lon="7.784548066556454">
        <ele>157.27734375</ele>
        <time>2026-03-09T10:32:42Z</time>
      </trkpt>
      <trkpt lat="52.27941476739943" lon="7.78457866050303">
        <ele>157.28125</ele>
        <time>2026-03-09T10:32:46Z</time>
      </trkpt>
      <trkpt lat="52.279104385524988" lon="7.784531051293016">
        <ele>157.1484375</ele>
        <time>2026-03-09T10:32:50Z</time>
      </trkpt>
      <trkpt lat="52.278790147975087" lon="7.784381601959467">
        <ele>155.98828125</ele>
        <time>2026-03-09T10:32:54Z</time>
      </trkpt>
      <trkpt lat="52.278468199074268" lon="7.784215807914734">
        <ele>154.04296875</ele>
        <time>2026-03-09T10:32:58Z</time>
      </trkpt>
      <trkpt lat="52.278050612658262" lon="7.784044733271003">
        <ele>150.9921875</ele>
        <time>2026-03-09T10:33:03Z</time>
      </trkpt>
      <trkpt lat="52.277870401740074" lon="7.784010535106063">
        <ele>148.8515625</ele>
        <time>2026-03-09T10:33:05Z</time>
      </trkpt>
      <trkpt lat="52.277536215260625" lon="7.784136515110731">
        <ele>145.453125</ele>
        <time>2026-03-09T10:33:09Z</time>
      </trkpt>
      <trkpt lat="52.277221390977502" lon="7.784331059083343">
        <ele>142.91015625</ele>
        <time>2026-03-09T10:33:13Z</time>
      </trkpt>
      <trkpt lat="52.276905812323093" lon="7.784592323005199">
        <ele>140.76953125</ele>
        <time>2026-03-09T10:33:17Z</time>
      </trkpt>
      <trkpt lat="52.276646979153156" lon="7.785023571923375">
        <ele>138.67578125</ele>
        <time>2026-03-09T10:33:21Z</time>
      </trkpt>
      <trkpt lat="52.276540361344814" lon="7.785274609923363">
        <ele>137.67578125</ele>
        <time>2026-03-09T10:33:23Z</time>
      </trkpt>
      <trkpt lat="52.276439778506756" lon="7.785532521083951">
        <ele>137.26171875</ele>
        <time>2026-03-09T10:33:25Z</time>
      </trkpt>
      <trkpt lat="52.276347577571869" lon="7.78580074198544">
        <ele>137.328125</ele>
        <time>2026-03-09T10:33:27Z</time>
      </trkpt>
      <trkpt lat="52.27624942548573" lon="7.786074411123991">
        <ele>137.8203125</ele>
        <time>2026-03-09T10:33:29Z</time>
      </trkpt>
      <trkpt lat="52.275989837944508" lon="7.786465175449848">
        <ele>138.28125</ele>
        <time>2026-03-09T10:33:33Z</time>
      </trkpt>
      <trkpt lat="52.275812728330493" lon="7.786565842106938">
        <ele>137.3828125</ele>
        <time>2026-03-09T10:33:35Z</time>
      </trkpt>
      <trkpt lat="52.275459934026003" lon="7.786478754132986">
        <ele>136.0546875</ele>
        <time>2026-03-09T10:33:39Z</time>
      </trkpt>
      <trkpt lat="52.275167321786284" lon="7.786175245419145">
        <ele>135.7265625</ele>
        <time>2026-03-09T10:33:43Z</time>
      </trkpt>
      <trkpt lat="52.275076294317842" lon="7.785920770838857">
        <ele>134.34765625</ele>
        <time>2026-03-09T10:33:45Z</time>
      </trkpt>
      <trkpt lat="52.274839421734214" lon="7.785491952672601">
        <ele>131.62890625</ele>
        <time>2026-03-09T10:33:49Z</time>
      </trkpt>
      <trkpt lat="52.274493249133229" lon="7.785513075068593">
        <ele>129.55078125</ele>
        <time>2026-03-09T10:33:53Z</time>
      </trkpt>
      <trkpt lat="52.274289065971971" lon="7.786011379212141">
        <ele>130.5546875</ele>
        <time>2026-03-09T10:33:57Z</time>
      </trkpt>
      <trkpt lat="52.274237014353275" lon="7.786306589841843">
        <ele>130.87890625</ele>
        <time>2026-03-09T10:33:59Z</time>
      </trkpt>
      <trkpt lat="52.27417859248817" lon="7.786602051928639">
        <ele>130.96484375</ele>
        <time>2026-03-09T10:34:01Z</time>
      </trkpt>
      <trkpt lat="52.274126289412379" lon="7.78691628947854">
        <ele>131.19140625</ele>
        <time>2026-03-09T10:34:03Z</time>
      </trkpt>
      <trkpt lat="52.27407013066113" lon="7.787225665524602">
        <ele>128.83203125</ele>
        <time>2026-03-09T10:34:05Z</time>
      </trkpt>
      <trkpt lat="52.274010619148612" lon="7.787547530606389">
        <ele>126.42578125</ele>
        <time>2026-03-09T10:34:07Z</time>
      </trkpt>
      <trkpt lat="52.273946832865477" lon="7.787885069847107">
        <ele>123.6953125</ele>
        <time>2026-03-09T10:34:09Z</time>
      </trkpt>
      <trkpt lat="52.273886315524578" lon="7.788214897736907">
        <ele>120.8984375</ele>
        <time>2026-03-09T10:34:11Z</time>
      </trkpt>
      <trkpt lat="52.273782463744283" lon="7.78853751718998">
        <ele>118.09765625</ele>
        <time>2026-03-09T10:34:13Z</time>
      </trkpt>
      <trkpt lat="52.273658160120249" lon="7.788801295682788">
        <ele>116.8046875</ele>
        <time>2026-03-09T10:34:15Z</time>
      </trkpt>
      <trkpt lat="52.273514159023762" lon="7.789060464128852">
        <ele>115.15234375</ele>
        <time>2026-03-09T10:34:17Z</time>
      </trkpt>
      <trkpt lat="52.273380467668176" lon="7.789283925667405">
        <ele>113.19140625</ele>
        <time>2026-03-09T10:34:19Z</time>
      </trkpt>
      <trkpt lat="52.273154491558671" lon="7.789690028876066">
        <ele>110.6953125</ele>
        <time>2026-03-09T10:34:23Z</time>
      </trkpt>
      <trkpt lat="52.272871686145663" lon="7.789879040792584">
        <ele>109.42578125</ele>
        <time>2026-03-09T10:34:27Z</time>
      </trkpt>
      <trkpt lat="52.272584438323975" lon="7.789830174297094">
        <ele>107.5859375</ele>
        <time>2026-03-09T10:34:31Z</time>
      </trkpt>
      <trkpt lat="52.272293921560049" lon="7.789695896208286">
        <ele>105.61328125</ele>
        <time>2026-03-09T10:34:35Z</time>
      </trkpt>
      <trkpt lat="52.272006422281265" lon="7.78954703360796">
        <ele>104.61328125</ele>
        <time>2026-03-09T10:34:39Z</time>
      </trkpt>
      <trkpt lat="52.271724790334702" lon="7.789405630901456">
        <ele>103.5625</ele>
        <time>2026-03-09T10:34:43Z</time>
      </trkpt>
      <trkpt lat="52.271444499492645" lon="7.78925190679729">
        <ele>102.77734375</ele>
        <time>2026-03-09T10:34:47Z</time>
      </trkpt>
      <trkpt lat="52.271160939708352" lon="7.78910094872117">
        <ele>102.31640625</ele>
        <time>2026-03-09T10:34:51Z</time>
      </trkpt>
      <trkpt lat="52.270871428772807" lon="7.788941776379943">
        <ele>101.578125</ele>
        <time>2026-03-09T10:34:55Z</time>
      </trkpt>
      <trkpt lat="52.270631538704038" lon="7.788858460262418">
        <ele>100.9765625</ele>
        <time>2026-03-09T10:34:59Z</time>
      </trkpt>
      <trkpt lat="52.270415369421244" lon="7.788753854110837">
        <ele>100.59765625</ele>
        <time>2026-03-09T10:35:03Z</time>
      </trkpt>
      <trkpt lat="52.270207749679685" lon="7.7886435482651">
        <ele>100.19921875</ele>
        <time>2026-03-09T10:35:07Z</time>
      </trkpt>
      <trkpt lat="52.270028041675687" lon="7.78853902593255">
        <ele>99.95703125</ele>
        <time>2026-03-09T10:35:13Z</time>
      </trkpt>
      <trkpt lat="52.269906839355826" lon="7.788309948518872">
        <ele>99.703125</ele>
        <time>2026-03-09T10:36:01Z</time>
      </trkpt>
      <trkpt lat="52.269728388637304" lon="7.788264350965619">
        <ele>99.61328125</ele>
        <time>2026-03-09T10:36:07Z</time>
      </trkpt>
      <trkpt lat="52.269505681470037" lon="7.788120685145259">
        <ele>99.4375</ele>
        <time>2026-03-09T10:36:13Z</time>
      </trkpt>
      <trkpt lat="52.269330248236656" lon="7.788027310743928">
        <ele>99.328125</ele>
        <time>2026-03-09T10:36:17Z</time>
      </trkpt>
      <trkpt lat="52.269147941842675" lon="7.787932343780994">
        <ele>99.21484375</ele>
        <time>2026-03-09T10:36:21Z</time>
      </trkpt>
      <trkpt lat="52.268944513052702" lon="7.787881717085838">
        <ele>99.05078125</ele>
        <time>2026-03-09T10:36:25Z</time>
      </trkpt>
      <trkpt lat="52.268751980736852" lon="7.787857241928577">
        <ele>98.55859375</ele>
        <time>2026-03-09T10:36:29Z</time>
      </trkpt>
      <trkpt lat="52.268550898879766" lon="7.787893367931247">
        <ele>98.12109375</ele>
        <time>2026-03-09T10:36:33Z</time>
      </trkpt>
      <trkpt lat="52.268340848386288" lon="7.787948353216052">
        <ele>97.68359375</ele>
        <time>2026-03-09T10:36:37Z</time>
      </trkpt>
      <trkpt lat="52.268137922510505" lon="7.788037871941924">
        <ele>97.328125</ele>
        <time>2026-03-09T10:36:41Z</time>
      </trkpt>
      <trkpt lat="52.267937678843737" lon="7.788126468658447">
        <ele>97.30078125</ele>
        <time>2026-03-09T10:36:45Z</time>
      </trkpt>
      <trkpt lat="52.267721258103848" lon="7.788210455328226">
        <ele>97.3125</ele>
        <time>2026-03-09T10:36:49Z</time>
      </trkpt>
      <trkpt lat="52.267494443804026" lon="7.78834255412221">
        <ele>97.47265625</ele>
        <time>2026-03-09T10:36:53Z</time>
      </trkpt>
      <trkpt lat="52.267266036942601" lon="7.788406843319535">
        <ele>97.578125</ele>
        <time>2026-03-09T10:36:57Z</time>
      </trkpt>
      <trkpt lat="52.267036540433764" lon="7.788467947393656">
        <ele>97.76171875</ele>
        <time>2026-03-09T10:37:01Z</time>
      </trkpt>
      <trkpt lat="52.266814168542624" lon="7.788552604615688">
        <ele>97.94140625</ele>
        <time>2026-03-09T10:37:05Z</time>
      </trkpt>
      <trkpt lat="52.26660193875432" lon="7.788627371191979">
        <ele>98.0078125</ele>
        <time>2026-03-09T10:37:09Z</time>
      </trkpt>
      <trkpt lat="52.266382332891226" lon="7.788667939603329">
        <ele>98.140625</ele>
        <time>2026-03-09T10:37:13Z</time>
      </trkpt>
      <trkpt lat="52.266168426722288" lon="7.78870465233922">
        <ele>98.4375</ele>
        <time>2026-03-09T10:37:17Z</time>
      </trkpt>
      <trkpt lat="52.265983270481229" lon="7.788756284862757">
        <ele>98.7265625</ele>
        <time>2026-03-09T10:37:21Z</time>
      </trkpt>
      <trkpt lat="52.26580104790628" lon="7.788801966235042">
        <ele>99.03515625</ele>
        <time>2026-03-09T10:37:25Z</time>
      </trkpt>
      <trkpt lat="52.265605581924319" lon="7.788846222683787">
        <ele>99.30859375</ele>
        <time>2026-03-09T10:37:29Z</time>
      </trkpt>
      <trkpt lat="52.265414390712976" lon="7.788866087794304">
        <ele>99.3359375</ele>
        <time>2026-03-09T10:37:33Z</time>
      </trkpt>
      <trkpt lat="52.265227641910315" lon="7.788927359506488">
        <ele>99.40625</ele>
        <time>2026-03-09T10:37:37Z</time>
      </trkpt>
      <trkpt lat="52.265048688277602" lon="7.788963234052062">
        <ele>99.44921875</ele>
        <time>2026-03-09T10:37:41Z</time>
      </trkpt>
      <trkpt lat="52.264770828187466" lon="7.789022326469421">
        <ele>99.5546875</ele>
        <time>2026-03-09T10:37:47Z</time>
      </trkpt>
      <trkpt lat="52.264524316415191" lon="7.789118466898799">
        <ele>99.86328125</ele>
        <time>2026-03-09T10:37:53Z</time>
      </trkpt>
      <trkpt lat="52.264262549579144" lon="7.789149731397629">
        <ele>100.12890625</ele>
        <time>2026-03-09T10:37:59Z</time>
      </trkpt>
      <trkpt lat="52.264000196009874" lon="7.789201028645039">
        <ele>100.46484375</ele>
        <time>2026-03-09T10:38:05Z</time>
      </trkpt>
      <trkpt lat="52.263718899339437" lon="7.789251990616322">
        <ele>100.59375</ele>
        <time>2026-03-09T10:38:11Z</time>
      </trkpt>
      <trkpt lat="52.26352502591908" lon="7.789291050285101">
        <ele>100.6875</ele>
        <time>2026-03-09T10:38:15Z</time>
      </trkpt>
      <trkpt lat="52.263344647362828" lon="7.78934134170413">
        <ele>100.80859375</ele>
        <time>2026-03-09T10:38:19Z</time>
      </trkpt>
      <trkpt lat="52.263134345412254" lon="7.789390459656715">
        <ele>100.90234375</ele>
        <time>2026-03-09T10:38:23Z</time>
      </trkpt>
      <trkpt lat="52.26293426938355" lon="7.789437565952539">
        <ele>100.7421875</ele>
        <time>2026-03-09T10:38:27Z</time>
      </trkpt>
      <trkpt lat="52.262748358771205" lon="7.789467824622989">
        <ele>100.51171875</ele>
        <time>2026-03-09T10:38:31Z</time>
      </trkpt>
      <trkpt lat="52.262562029063702" lon="7.789479391649365">
        <ele>100.2578125</ele>
        <time>2026-03-09T10:38:35Z</time>
      </trkpt>
      <trkpt lat="52.262326581403613" lon="7.789514763280749">
        <ele>99.890625</ele>
        <time>2026-03-09T10:38:41Z</time>
      </trkpt>
      <trkpt lat="52.262293389067054" lon="7.789344107732177">
        <ele>100.30078125</ele>
        <time>2026-03-09T10:38:49Z</time>
      </trkpt>
      <trkpt lat="52.262358935549855" lon="7.789071444422007">
        <ele>100.41015625</ele>
        <time>2026-03-09T10:38:53Z</time>
      </trkpt>
      <trkpt lat="52.262438144534826" lon="7.788762822747231">
        <ele>100.6015625</ele>
        <time>2026-03-09T10:38:57Z</time>
      </trkpt>
      <trkpt lat="52.262512827292085" lon="7.788448249921203">
        <ele>100.5078125</ele>
        <time>2026-03-09T10:39:01Z</time>
      </trkpt>
      <trkpt lat="52.26260201074183" lon="7.788116494193673">
        <ele>100.140625</ele>
        <time>2026-03-09T10:39:05Z</time>
      </trkpt>
      <trkpt lat="52.262704772874713" lon="7.787796724587679">
        <ele>99.6484375</ele>
        <time>2026-03-09T10:39:09Z</time>
      </trkpt>
      <trkpt lat="52.262815246358514" lon="7.787433788180351">
        <ele>98.7734375</ele>
        <time>2026-03-09T10:39:13Z</time>
      </trkpt>
      <trkpt lat="52.262939298525453" lon="7.787071019411087">
        <ele>97.56640625</ele>
        <time>2026-03-09T10:39:17Z</time>
      </trkpt>
      <trkpt lat="52.263069469481707" lon="7.786663910374045">
        <ele>96.48828125</ele>
        <time>2026-03-09T10:39:21Z</time>
      </trkpt>
      <trkpt lat="52.263190420344472" lon="7.786256801337004">
        <ele>96.05078125</ele>
        <time>2026-03-09T10:39:25Z</time>
      </trkpt>
      <trkpt lat="52.263290751725435" lon="7.78592973947525">
        <ele>96.26171875</ele>
        <time>2026-03-09T10:39:29Z</time>
      </trkpt>
      <trkpt lat="52.263359650969505" lon="7.785655735060573">
        <ele>96.3828125</ele>
        <time>2026-03-09T10:39:33Z</time>
      </trkpt>
      <trkpt lat="52.263443470001221" lon="7.785343341529369">
        <ele>96.3125</ele>
        <time>2026-03-09T10:39:37Z</time>
      </trkpt>
      <trkpt lat="52.263553440570831" lon="7.784999264404178">
        <ele>95.4296875</ele>
        <time>2026-03-09T10:39:41Z</time>
      </trkpt>
      <trkpt lat="52.263670284301043" lon="7.78463096357882">
        <ele>94.265625</ele>
        <time>2026-03-09T10:39:45Z</time>
      </trkpt>
      <trkpt lat="52.263781763613224" lon="7.784221088513732">
        <ele>93.07421875</ele>
        <time>2026-03-09T10:39:49Z</time>
      </trkpt>
      <trkpt lat="52.263909671455622" lon="7.783817667514086">
        <ele>91.8046875</ele>
        <time>2026-03-09T10:39:53Z</time>
      </trkpt>
      <trkpt lat="52.264028359204531" lon="7.783401506021619">
        <ele>90.9140625</ele>
        <time>2026-03-09T10:39:57Z</time>
      </trkpt>
      <trkpt lat="52.264156769961119" lon="7.782980985939503">
        <ele>90.87109375</ele>
        <time>2026-03-09T10:40:01Z</time>
      </trkpt>
      <trkpt lat="52.264291131868958" lon="7.782544875517488">
        <ele>91.06640625</ele>
        <time>2026-03-09T10:40:05Z</time>
      </trkpt>
      <trkpt lat="52.264415351673961" lon="7.782142879441381">
        <ele>91.140625</ele>
        <time>2026-03-09T10:40:09Z</time>
      </trkpt>
      <trkpt lat="52.264519119635224" lon="7.781720766797662">
        <ele>90.84375</ele>
        <time>2026-03-09T10:40:13Z</time>
      </trkpt>
      <trkpt lat="52.264625066891313" lon="7.781338216736913">
        <ele>90.4609375</ele>
        <time>2026-03-09T10:40:17Z</time>
      </trkpt>
      <trkpt lat="52.264737384393811" lon="7.780954409390688">
        <ele>90.06640625</ele>
        <time>2026-03-09T10:40:21Z</time>
      </trkpt>
      <trkpt lat="52.264841236174107" lon="7.780573032796383">
        <ele>90.046875</ele>
        <time>2026-03-09T10:40:25Z</time>
      </trkpt>
      <trkpt lat="52.264940897002816" lon="7.780186962336302">
        <ele>90.19921875</ele>
        <time>2026-03-09T10:40:29Z</time>
      </trkpt>
      <trkpt lat="52.265048017725348" lon="7.779810698702931">
        <ele>90.00390625</ele>
        <time>2026-03-09T10:40:33Z</time>
      </trkpt>
      <trkpt lat="52.265153881162405" lon="7.779470728710294">
        <ele>89.84765625</ele>
        <time>2026-03-09T10:40:37Z</time>
      </trkpt>
      <trkpt lat="52.265239041298628" lon="7.779123298823834">
        <ele>89.63671875</ele>
        <time>2026-03-09T10:40:41Z</time>
      </trkpt>
      <trkpt lat="52.265327889472246" lon="7.778765307739377">
        <ele>89.421875</ele>
        <time>2026-03-09T10:40:45Z</time>
      </trkpt>
      <trkpt lat="52.265420341864228" lon="7.778423661366105">
        <ele>89.37890625</ele>
        <time>2026-03-09T10:40:49Z</time>
      </trkpt>
      <trkpt lat="52.265508770942688" lon="7.778065418824554">
        <ele>89.5390625</ele>
        <time>2026-03-09T10:40:53Z</time>
      </trkpt>
      <trkpt lat="52.265596110373735" lon="7.777722934260964">
        <ele>89.74609375</ele>
        <time>2026-03-09T10:40:57Z</time>
      </trkpt>
      <trkpt lat="52.265688311308622" lon="7.777368715032935">
        <ele>89.6484375</ele>
        <time>2026-03-09T10:41:01Z</time>
      </trkpt>
      <trkpt lat="52.26577078923583" lon="7.777029583230615">
        <ele>89.5390625</ele>
        <time>2026-03-09T10:41:05Z</time>
      </trkpt>
      <trkpt lat="52.265871791169047" lon="7.776668909937143">
        <ele>89.46875</ele>
        <time>2026-03-09T10:41:09Z</time>
      </trkpt>
      <trkpt lat="52.265975140035152" lon="7.776309577748179">
        <ele>89.41015625</ele>
        <time>2026-03-09T10:41:13Z</time>
      </trkpt>
      <trkpt lat="52.266077063977718" lon="7.775977402925491">
        <ele>89.44921875</ele>
        <time>2026-03-09T10:41:17Z</time>
      </trkpt>
      <trkpt lat="52.266171611845493" lon="7.775642797350884">
        <ele>89.5234375</ele>
        <time>2026-03-09T10:41:21Z</time>
      </trkpt>
      <trkpt lat="52.26625450886786" lon="7.775323027744889">
        <ele>89.4921875</ele>
        <time>2026-03-09T10:41:25Z</time>
      </trkpt>
      <trkpt lat="52.266357271000743" lon="7.77497517876327">
        <ele>88.70703125</ele>
        <time>2026-03-09T10:41:29Z</time>
      </trkpt>
      <trkpt lat="52.266465649008751" lon="7.774600172415376">
        <ele>87.58203125</ele>
        <time>2026-03-09T10:41:33Z</time>
      </trkpt>
      <trkpt lat="52.266570087522268" lon="7.774197673425078">
        <ele>86.66796875</ele>
        <time>2026-03-09T10:41:37Z</time>
      </trkpt>
      <trkpt lat="52.266680477187037" lon="7.773791402578354">
        <ele>86.10546875</ele>
        <time>2026-03-09T10:41:41Z</time>
      </trkpt>
      <trkpt lat="52.266783155500889" lon="7.773405415937305">
        <ele>85.75390625</ele>
        <time>2026-03-09T10:41:45Z</time>
      </trkpt>
      <trkpt lat="52.266878793016076" lon="7.77303577400744">
        <ele>85.41796875</ele>
        <time>2026-03-09T10:41:49Z</time>
      </trkpt>
      <trkpt lat="52.266965210437775" lon="7.772691110149026">
        <ele>84.97265625</ele>
        <time>2026-03-09T10:41:53Z</time>
      </trkpt>
      <trkpt lat="52.267068978399038" lon="7.772338651120663">
        <ele>84.375</ele>
        <time>2026-03-09T10:41:57Z</time>
      </trkpt>
      <trkpt lat="52.267161598429084" lon="7.771999435499311">
        <ele>83.78125</ele>
        <time>2026-03-09T10:42:01Z</time>
      </trkpt>
      <trkpt lat="52.267251620069146" lon="7.771651837974787">
        <ele>83.44140625</ele>
        <time>2026-03-09T10:42:05Z</time>
      </trkpt>
      <trkpt lat="52.267336444929242" lon="7.77131287381053">
        <ele>83.265625</ele>
        <time>2026-03-09T10:42:09Z</time>
      </trkpt>
      <trkpt lat="52.267433172091842" lon="7.770982710644603">
        <ele>82.7578125</ele>
        <time>2026-03-09T10:42:13Z</time>
      </trkpt>
      <trkpt lat="52.267518248409033" lon="7.77064835652709">
        <ele>82.17578125</ele>
        <time>2026-03-09T10:42:17Z</time>
      </trkpt>
      <trkpt lat="52.267607850953937" lon="7.770302770659328">
        <ele>81.75</ele>
        <time>2026-03-09T10:42:21Z</time>
      </trkpt>
      <trkpt lat="52.267696699127555" lon="7.769962884485722">
        <ele>81.73828125</ele>
        <time>2026-03-09T10:42:25Z</time>
      </trkpt>
      <trkpt lat="52.267791917547584" lon="7.769606988877058">
        <ele>81.68359375</ele>
        <time>2026-03-09T10:42:29Z</time>
      </trkpt>
      <trkpt lat="52.267892081290483" lon="7.769251428544521">
        <ele>81.3984375</ele>
        <time>2026-03-09T10:42:33Z</time>
      </trkpt>
      <trkpt lat="52.26799014955759" lon="7.768888827413321">
        <ele>81.0234375</ele>
        <time>2026-03-09T10:42:37Z</time>
      </trkpt>
      <trkpt lat="52.268079668283463" lon="7.76853553019464">
        <ele>80.80859375</ele>
        <time>2026-03-09T10:42:41Z</time>
      </trkpt>
      <trkpt lat="52.268155356869102" lon="7.768136635422707">
        <ele>80.9921875</ele>
        <time>2026-03-09T10:42:45Z</time>
      </trkpt>
      <trkpt lat="52.26822174154222" lon="7.767827091738582">
        <ele>80.75390625</ele>
        <time>2026-03-09T10:42:49Z</time>
      </trkpt>
      <trkpt lat="52.268369430676103" lon="7.767677642405033">
        <ele>80.140625</ele>
        <time>2026-03-09T10:42:53Z</time>
      </trkpt>
      <trkpt lat="52.268573362380266" lon="7.76760128326714">
        <ele>79.38671875</ele>
        <time>2026-03-09T10:42:57Z</time>
      </trkpt>
      <trkpt lat="52.268790286034346" lon="7.767583765089512">
        <ele>78.65234375</ele>
        <time>2026-03-09T10:43:01Z</time>
      </trkpt>
      <trkpt lat="52.268909141421318" lon="7.767834132537246">
        <ele>78.27734375</ele>
        <time>2026-03-09T10:43:05Z</time>
      </trkpt>
      <trkpt lat="52.269015088677406" lon="7.768108220770955">
        <ele>78</ele>
        <time>2026-03-09T10:43:09Z</time>
      </trkpt>
      <trkpt lat="52.269181134179235" lon="7.768302764743567">
        <ele>78</ele>
        <time>2026-03-09T10:43:13Z</time>
      </trkpt>
      <trkpt lat="52.269406439736485" lon="7.768278708681464">
        <ele>78</ele>
        <time>2026-03-09T10:43:17Z</time>
      </trkpt>
      <trkpt lat="52.269606348127127" lon="7.768248114734888">
        <ele>78</ele>
        <time>2026-03-09T10:43:21Z</time>
      </trkpt>
      <trkpt lat="52.269848333671689" lon="7.768186759203672">
        <ele>78.2109375</ele>
        <time>2026-03-09T10:43:27Z</time>
      </trkpt>
      <trkpt lat="52.270085709169507" lon="7.76812800206244">
        <ele>79.87890625</ele>
        <time>2026-03-09T10:43:33Z</time>
      </trkpt>
      <trkpt lat="52.270279750227928" lon="7.768127666786313">
        <ele>81.24609375</ele>
        <time>2026-03-09T10:43:39Z</time>
      </trkpt>
      <trkpt lat="52.270497428253293" lon="7.768093720078468">
        <ele>82.7109375</ele>
        <time>2026-03-09T10:43:47Z</time>
      </trkpt>
      <trkpt lat="52.270690547302365" lon="7.768068825826049">
        <ele>83.95703125</ele>
        <time>2026-03-09T10:43:55Z</time>
      </trkpt>
      <trkpt lat="52.270887438207865" lon="7.767988443374634">
        <ele>84.9453125</ele>
        <time>2026-03-09T10:44:03Z</time>
      </trkpt>
      <trkpt lat="52.271095728501678" lon="7.767978049814701">
        <ele>86.171875</ele>
        <time>2026-03-09T10:44:11Z</time>
      </trkpt>
      <trkpt lat="52.271287506446242" lon="7.768031693994999">
        <ele>87.453125</ele>
        <time>2026-03-09T10:44:19Z</time>
      </trkpt>
      <trkpt lat="52.271468052640557" lon="7.767994310706854">
        <ele>88.4453125</ele>
        <time>2026-03-09T10:44:27Z</time>
      </trkpt>
      <trkpt lat="52.27166117168963" lon="7.767977295443416">
        <ele>88.875</ele>
        <time>2026-03-09T10:44:35Z</time>
      </trkpt>
      <trkpt lat="52.271861750632524" lon="7.767985928803682">
        <ele>89.3125</ele>
        <time>2026-03-09T10:44:43Z</time>
      </trkpt>
      <trkpt lat="52.272101808339357" lon="7.768012583255768">
        <ele>89.8515625</ele>
        <time>2026-03-09T10:44:51Z</time>
      </trkpt>
      <trkpt lat="52.272300040349364" lon="7.767959190532565">
        <ele>90.1953125</ele>
        <time>2026-03-09T10:44:57Z</time>
      </trkpt>
      <trkpt lat="52.272457201033831" lon="7.767819380387664">
        <ele>90.23046875</ele>
        <time>2026-03-09T10:45:03Z</time>
      </trkpt>
      <trkpt lat="52.272445298731327" lon="7.767519056797028">
        <ele>89.78515625</ele>
        <time>2026-03-09T10:45:09Z</time>
      </trkpt>
      <trkpt lat="52.272625090554357" lon="7.767436411231756">
        <ele>90.30859375</ele>
        <time>2026-03-09T10:45:15Z</time>
      </trkpt>
      <trkpt lat="52.272728439420462" lon="7.767627099528909">
        <ele>90.5703125</ele>
        <time>2026-03-09T10:45:21Z</time>
      </trkpt>
      <trkpt lat="52.272819802165031" lon="7.7678607031703">
        <ele>90.71484375</ele>
        <time>2026-03-09T10:45:27Z</time>
      </trkpt>
      <trkpt lat="52.273047370836139" lon="7.767867157235742">
        <ele>90.99609375</ele>
        <time>2026-03-09T10:45:33Z</time>
      </trkpt>
      <trkpt lat="52.273233952000737" lon="7.767844274640083">
        <ele>92.48828125</ele>
        <time>2026-03-09T10:45:39Z</time>
      </trkpt>
      <trkpt lat="52.273417180404067" lon="7.767788786441088">
        <ele>95.50390625</ele>
        <time>2026-03-09T10:45:47Z</time>
      </trkpt>
      <trkpt lat="52.273595128208399" lon="7.767735226079822">
        <ele>98.48828125</ele>
        <time>2026-03-09T10:45:55Z</time>
      </trkpt>
      <trkpt lat="52.273787744343281" lon="7.767709074541926">
        <ele>101.65625</ele>
        <time>2026-03-09T10:46:03Z</time>
      </trkpt>
      <trkpt lat="52.273974241688848" lon="7.767702285200357">
        <ele>104.69921875</ele>
        <time>2026-03-09T10:46:11Z</time>
      </trkpt>
      <trkpt lat="52.274184543639421" lon="7.767663057893515">
        <ele>107.078125</ele>
        <time>2026-03-09T10:46:21Z</time>
      </trkpt>
      <trkpt lat="52.274390151724219" lon="7.76760614477098">
        <ele>109.21484375</ele>
        <time>2026-03-09T10:46:31Z</time>
      </trkpt>
      <trkpt lat="52.274508168920875" lon="7.767818039283156">
        <ele>111.3046875</ele>
        <time>2026-03-09T10:46:41Z</time>
      </trkpt>
      <trkpt lat="52.274488806724548" lon="7.768142502754927">
        <ele>111.0703125</ele>
        <time>2026-03-09T10:46:49Z</time>
      </trkpt>
      <trkpt lat="52.274468941614032" lon="7.768482640385628">
        <ele>110.83203125</ele>
        <time>2026-03-09T10:46:57Z</time>
      </trkpt>
      <trkpt lat="52.274442538619041" lon="7.76881548576057">
        <ele>109.97265625</ele>
        <time>2026-03-09T10:47:07Z</time>
      </trkpt>
      <trkpt lat="52.274403730407357" lon="7.769130142405629">
        <ele>108.76953125</ele>
        <time>2026-03-09T10:47:17Z</time>
      </trkpt>
      <trkpt lat="52.274377075955272" lon="7.769440189003944">
        <ele>107.7734375</ele>
        <time>2026-03-09T10:47:27Z</time>
      </trkpt>
      <trkpt lat="52.274346398189664" lon="7.769766077399254">
        <ele>107.0390625</ele>
        <time>2026-03-09T10:47:43Z</time>
      </trkpt>
      <trkpt lat="52.274341620504856" lon="7.769819973036647">
        <ele>106.9140625</ele>
        <time>2026-03-09T10:51:13Z</time>
      </trkpt>
      <trkpt lat="52.274494674056768" lon="7.769920723512769">
        <ele>108.4609375</ele>
        <time>2026-03-09T10:51:33Z</time>
      </trkpt>
      <trkpt lat="52.274598609656096" lon="7.770167905837297">
        <ele>109.44921875</ele>
        <time>2026-03-09T10:51:51Z</time>
      </trkpt>
      <trkpt lat="52.274787956848741" lon="7.770220041275024">
        <ele>111.66796875</ele>
        <time>2026-03-09T10:52:11Z</time>
      </trkpt>
      <trkpt lat="52.274918211624026" lon="7.770276116207242">
        <ele>112.578125</ele>
        <time>2026-03-09T10:54:45Z</time>
      </trkpt>
      <trkpt lat="52.275032121688128" lon="7.77023445814848">
        <ele>113.30859375</ele>
        <time>2026-03-09T10:56:53Z</time>
      </trkpt>
      <trkpt lat="52.274957690387964" lon="7.770294304937124">
        <ele>112.75390625</ele>
        <time>2026-03-09T10:57:57Z</time>
      </trkpt>
      <trkpt lat="52.274881163612008" lon="7.77033219113946">
        <ele>112.15625</ele>
        <time>2026-03-09T11:26:13Z</time>
      </trkpt>
      <trkpt lat="52.274763649329543" lon="7.770220963284373">
        <ele>111.37890625</ele>
        <time>2026-03-09T11:28:25Z</time>
      </trkpt>
      <trkpt lat="52.274599280208349" lon="7.770136808976531">
        <ele>109.4765625</ele>
        <time>2026-03-09T11:28:55Z</time>
      </trkpt>
      <trkpt lat="52.274536332115531" lon="7.769852327182889">
        <ele>108.9765625</ele>
        <time>2026-03-09T11:29:19Z</time>
      </trkpt>
      <trkpt lat="52.274370118975639" lon="7.769791977480054">
        <ele>107.25390625</ele>
        <time>2026-03-09T11:29:35Z</time>
      </trkpt>
      <trkpt lat="52.274318570271134" lon="7.769741183146834">
        <ele>106.77734375</ele>
        <time>2026-03-09T11:32:11Z</time>
      </trkpt>
      <trkpt lat="52.274388140067458" lon="7.769434489309788">
        <ele>107.88671875</ele>
        <time>2026-03-09T11:32:21Z</time>
      </trkpt>
      <trkpt lat="52.274435749277472" lon="7.768976166844368">
        <ele>109.4921875</ele>
        <time>2026-03-09T11:32:29Z</time>
      </trkpt>
      <trkpt lat="52.274493500590324" lon="7.768522705882788">
        <ele>111.12890625</ele>
        <time>2026-03-09T11:32:33Z</time>
      </trkpt>
      <trkpt lat="52.274532308802009" lon="7.767970925197005">
        <ele>111.59375</ele>
        <time>2026-03-09T11:32:37Z</time>
      </trkpt>
      <trkpt lat="52.27441756054759" lon="7.767591560259461">
        <ele>109.46484375</ele>
        <time>2026-03-09T11:32:41Z</time>
      </trkpt>
      <trkpt lat="52.274097790941596" lon="7.76766867376864">
        <ele>106.08984375</ele>
        <time>2026-03-09T11:32:45Z</time>
      </trkpt>
      <trkpt lat="52.273738291114569" lon="7.76773220859468">
        <ele>100.859375</ele>
        <time>2026-03-09T11:32:49Z</time>
      </trkpt>
      <trkpt lat="52.273542070761323" lon="7.767758192494512">
        <ele>97.58984375</ele>
        <time>2026-03-09T11:32:51Z</time>
      </trkpt>
      <trkpt lat="52.273335373029113" lon="7.76778694242239">
        <ele>94.12890625</ele>
        <time>2026-03-09T11:32:53Z</time>
      </trkpt>
      <trkpt lat="52.273137392476201" lon="7.767809741199017">
        <ele>91.03515625</ele>
        <time>2026-03-09T11:32:55Z</time>
      </trkpt>
      <trkpt lat="52.272861795499921" lon="7.767768334597349">
        <ele>90.65625</ele>
        <time>2026-03-09T11:32:59Z</time>
      </trkpt>
      <trkpt lat="52.27272491902113" lon="7.767584687098861">
        <ele>90.5859375</ele>
        <time>2026-03-09T11:33:05Z</time>
      </trkpt>
      <trkpt lat="52.272595167160034" lon="7.767463065683842">
        <ele>90.2109375</ele>
        <time>2026-03-09T11:33:13Z</time>
      </trkpt>
      <trkpt lat="52.272450579330325" lon="7.767643528059125">
        <ele>89.98046875</ele>
        <time>2026-03-09T11:33:19Z</time>
      </trkpt>
      <trkpt lat="52.272374890744686" lon="7.767918789759278">
        <ele>90.25</ele>
        <time>2026-03-09T11:33:25Z</time>
      </trkpt>
      <trkpt lat="52.27216986939311" lon="7.76800780557096">
        <ele>89.984375</ele>
        <time>2026-03-09T11:33:31Z</time>
      </trkpt>
      <trkpt lat="52.271952191367745" lon="7.767977295443416">
        <ele>89.484375</ele>
        <time>2026-03-09T11:33:37Z</time>
      </trkpt>
      <trkpt lat="52.271738788112998" lon="7.767954748123884">
        <ele>88.9921875</ele>
        <time>2026-03-09T11:33:43Z</time>
      </trkpt>
      <trkpt lat="52.271481212228537" lon="7.767970338463783">
        <ele>88.46484375</ele>
        <time>2026-03-09T11:33:49Z</time>
      </trkpt>
      <trkpt lat="52.271290272474289" lon="7.767971428111196">
        <ele>87.32421875</ele>
        <time>2026-03-09T11:33:53Z</time>
      </trkpt>
      <trkpt lat="52.271053651347756" lon="7.767943684011698">
        <ele>85.8359375</ele>
        <time>2026-03-09T11:33:57Z</time>
      </trkpt>
      <trkpt lat="52.270800350233912" lon="7.767977630719543">
        <ele>84.3984375</ele>
        <time>2026-03-09T11:34:01Z</time>
      </trkpt>
      <trkpt lat="52.270529111847281" lon="7.768042758107185">
        <ele>82.828125</ele>
        <time>2026-03-09T11:34:05Z</time>
      </trkpt>
      <trkpt lat="52.27024613879621" lon="7.768082153052092">
        <ele>80.953125</ele>
        <time>2026-03-09T11:34:09Z</time>
      </trkpt>
      <trkpt lat="52.270001554861665" lon="7.768122218549252">
        <ele>79.28125</ele>
        <time>2026-03-09T11:34:13Z</time>
      </trkpt>
      <trkpt lat="52.269790917634964" lon="7.768244259059429">
        <ele>78</ele>
        <time>2026-03-09T11:34:17Z</time>
      </trkpt>
      <trkpt lat="52.269555386155844" lon="7.768285581842065">
        <ele>78</ele>
        <time>2026-03-09T11:34:21Z</time>
      </trkpt>
      <trkpt lat="52.269316418096423" lon="7.768318690359592">
        <ele>78</ele>
        <time>2026-03-09T11:34:25Z</time>
      </trkpt>
      <trkpt lat="52.269088178873062" lon="7.768293879926205">
        <ele>78</ele>
        <time>2026-03-09T11:34:29Z</time>
      </trkpt>
      <trkpt lat="52.268931102007627" lon="7.768057929351926">
        <ele>78.19921875</ele>
        <time>2026-03-09T11:34:33Z</time>
      </trkpt>
      <trkpt lat="52.268833117559552" lon="7.767727598547936">
        <ele>78.54296875</ele>
        <time>2026-03-09T11:34:37Z</time>
      </trkpt>
      <trkpt lat="52.268666988238692" lon="7.767576221376658">
        <ele>79.0625</ele>
        <time>2026-03-09T11:34:41Z</time>
      </trkpt>
      <trkpt lat="52.268425086513162" lon="7.767667332664132">
        <ele>79.94140625</ele>
        <time>2026-03-09T11:34:47Z</time>
      </trkpt>
      <trkpt lat="52.268242780119181" lon="7.767817620187998">
        <ele>80.6796875</ele>
        <time>2026-03-09T11:34:53Z</time>
      </trkpt>
      <trkpt lat="52.268174467608333" lon="7.768162535503507">
        <ele>80.92578125</ele>
        <time>2026-03-09T11:34:59Z</time>
      </trkpt>
      <trkpt lat="52.268102802336216" lon="7.768481131643057">
        <ele>80.859375</ele>
        <time>2026-03-09T11:35:05Z</time>
      </trkpt>
      <trkpt lat="52.268021497875452" lon="7.768787993118167">
        <ele>80.9453125</ele>
        <time>2026-03-09T11:35:11Z</time>
      </trkpt>
      <trkpt lat="52.267948240041733" lon="7.769101643934846">
        <ele>81.2578125</ele>
        <time>2026-03-09T11:35:17Z</time>
      </trkpt>
      <trkpt lat="52.267860313877463" lon="7.769423509016633">
        <ele>81.6328125</ele>
        <time>2026-03-09T11:35:25Z</time>
      </trkpt>
      <trkpt lat="52.267805160954595" lon="7.769580585882068">
        <ele>81.68359375</ele>
        <time>2026-03-09T11:39:21Z</time>
      </trkpt>
      <trkpt lat="52.267898451536894" lon="7.769226869568229">
        <ele>81.37109375</ele>
        <time>2026-03-09T11:39:31Z</time>
      </trkpt>
      <trkpt lat="52.267976570874453" lon="7.768940292298794">
        <ele>81.0703125</ele>
        <time>2026-03-09T11:39:37Z</time>
      </trkpt>
      <trkpt lat="52.268026862293482" lon="7.768613649532199">
        <ele>80.71484375</ele>
        <time>2026-03-09T11:39:49Z</time>
      </trkpt>
      <trkpt lat="52.268130127340555" lon="7.768329670652747">
        <ele>80.92578125</ele>
        <time>2026-03-09T11:39:57Z</time>
      </trkpt>
      <trkpt lat="52.26820413954556" lon="7.767983078956604">
        <ele>80.81640625</ele>
        <time>2026-03-09T11:40:07Z</time>
      </trkpt>
      <trkpt lat="52.268226435407996" lon="7.76779180392623">
        <ele>80.73828125</ele>
        <time>2026-03-09T11:45:35Z</time>
      </trkpt>
      <trkpt lat="52.268170779570937" lon="7.768092211335897">
        <ele>80.9375</ele>
        <time>2026-03-09T11:45:47Z</time>
      </trkpt>
      <trkpt lat="52.268115291371942" lon="7.768394462764263">
        <ele>80.88671875</ele>
        <time>2026-03-09T11:45:57Z</time>
      </trkpt>
      <trkpt lat="52.268038680776954" lon="7.768686907365918">
        <ele>80.84375</ele>
        <time>2026-03-09T11:46:09Z</time>
      </trkpt>
      <trkpt lat="52.267978498712182" lon="7.768983542919159">
        <ele>81.13671875</ele>
        <time>2026-03-09T11:46:15Z</time>
      </trkpt>
      <trkpt lat="52.267882861196995" lon="7.769339438527823">
        <ele>81.52734375</ele>
        <time>2026-03-09T11:46:21Z</time>
      </trkpt>
      <trkpt lat="52.267790827900171" lon="7.769703464582562">
        <ele>81.75</ele>
        <time>2026-03-09T11:46:27Z</time>
      </trkpt>
      <trkpt lat="52.267685467377305" lon="7.770077548921108">
        <ele>81.77734375</ele>
        <time>2026-03-09T11:46:33Z</time>
      </trkpt>
      <trkpt lat="52.267589829862118" lon="7.77045532129705">
        <ele>81.953125</ele>
        <time>2026-03-09T11:46:39Z</time>
      </trkpt>
      <trkpt lat="52.267477679997683" lon="7.770850528031588">
        <ele>82.515625</ele>
        <time>2026-03-09T11:46:45Z</time>
      </trkpt>
      <trkpt lat="52.267397129908204" lon="7.771122856065631">
        <ele>83.03515625</ele>
        <time>2026-03-09T11:46:49Z</time>
      </trkpt>
      <trkpt lat="52.267326805740595" lon="7.771395770832896">
        <ele>83.36328125</ele>
        <time>2026-03-09T11:46:53Z</time>
      </trkpt>
      <trkpt lat="52.267245249822736" lon="7.771686874330044">
        <ele>83.47265625</ele>
        <time>2026-03-09T11:46:57Z</time>
      </trkpt>
      <trkpt lat="52.267165370285511" lon="7.771988371387124">
        <ele>83.765625</ele>
        <time>2026-03-09T11:47:01Z</time>
      </trkpt>
      <trkpt lat="52.267089933156967" lon="7.772285677492619">
        <ele>84.296875</ele>
        <time>2026-03-09T11:47:05Z</time>
      </trkpt>
      <trkpt lat="52.26701483130455" lon="7.772597316652536">
        <ele>84.86328125</ele>
        <time>2026-03-09T11:47:09Z</time>
      </trkpt>
      <trkpt lat="52.266926318407059" lon="7.772912308573723">
        <ele>85.32421875</ele>
        <time>2026-03-09T11:47:13Z</time>
      </trkpt>
      <trkpt lat="52.266845181584358" lon="7.77324641123414">
        <ele>85.6875</ele>
        <time>2026-03-09T11:47:17Z</time>
      </trkpt>
      <trkpt lat="52.266756668686867" lon="7.773572634905577">
        <ele>85.9296875</ele>
        <time>2026-03-09T11:47:21Z</time>
      </trkpt>
      <trkpt lat="52.266674358397722" lon="7.773869941011071">
        <ele>86.25390625</ele>
        <time>2026-03-09T11:47:25Z</time>
      </trkpt>
      <trkpt lat="52.266588779166341" lon="7.77417185716331">
        <ele>86.66015625</ele>
        <time>2026-03-09T11:47:29Z</time>
      </trkpt>
      <trkpt lat="52.266510743647814" lon="7.774453153833747">
        <ele>87.13671875</ele>
        <time>2026-03-09T11:47:33Z</time>
      </trkpt>
      <trkpt lat="52.266435893252492" lon="7.774732355028391">
        <ele>88.00390625</ele>
        <time>2026-03-09T11:47:37Z</time>
      </trkpt>
      <trkpt lat="52.266336148604751" lon="7.775118593126535">
        <ele>89.1484375</ele>
        <time>2026-03-09T11:47:43Z</time>
      </trkpt>
      <trkpt lat="52.266226932406425" lon="7.775493515655398">
        <ele>89.5625</ele>
        <time>2026-03-09T11:47:49Z</time>
      </trkpt>
      <trkpt lat="52.266117967665195" lon="7.775876400992274">
        <ele>89.5234375</ele>
        <time>2026-03-09T11:47:55Z</time>
      </trkpt>
      <trkpt lat="52.266028448939323" lon="7.776156105101109">
        <ele>89.41796875</ele>
        <time>2026-03-09T11:47:59Z</time>
      </trkpt>
      <trkpt lat="52.265947479754686" lon="7.776458607986569">
        <ele>89.48828125</ele>
        <time>2026-03-09T11:48:03Z</time>
      </trkpt>
      <trkpt lat="52.265863828361034" lon="7.776765385642648">
        <ele>89.55859375</ele>
        <time>2026-03-09T11:48:07Z</time>
      </trkpt>
      <trkpt lat="52.265789229422808" lon="7.777065122500062">
        <ele>89.6484375</ele>
        <time>2026-03-09T11:48:11Z</time>
      </trkpt>
      <trkpt lat="52.265704739838839" lon="7.777377599850297">
        <ele>89.71875</ele>
        <time>2026-03-09T11:48:15Z</time>
      </trkpt>
      <trkpt lat="52.265624441206455" lon="7.777698375284672">
        <ele>89.81640625</ele>
        <time>2026-03-09T11:48:19Z</time>
      </trkpt>
      <trkpt lat="52.265531904995441" lon="7.778008673340082">
        <ele>89.6015625</ele>
        <time>2026-03-09T11:48:23Z</time>
      </trkpt>
      <trkpt lat="52.265456300228834" lon="7.778322994709015">
        <ele>89.4453125</ele>
        <time>2026-03-09T11:48:27Z</time>
      </trkpt>
      <trkpt lat="52.265377091243863" lon="7.77864184230566">
        <ele>89.390625</ele>
        <time>2026-03-09T11:48:31Z</time>
      </trkpt>
      <trkpt lat="52.265286231413484" lon="7.778973765671253">
        <ele>89.5703125</ele>
        <time>2026-03-09T11:48:35Z</time>
      </trkpt>
      <trkpt lat="52.265215991064906" lon="7.779297223314643">
        <ele>89.7890625</ele>
        <time>2026-03-09T11:48:39Z</time>
      </trkpt>
      <trkpt lat="52.265144158154726" lon="7.77961858548224">
        <ele>90.00390625</ele>
        <time>2026-03-09T11:48:43Z</time>
      </trkpt>
      <trkpt lat="52.26504122838378" lon="7.779960567131639">
        <ele>90.16796875</ele>
        <time>2026-03-09T11:48:47Z</time>
      </trkpt>
      <trkpt lat="52.264932850375772" lon="7.780311433598399">
        <ele>90.265625</ele>
        <time>2026-03-09T11:48:51Z</time>
      </trkpt>
      <trkpt lat="52.264855401590466" lon="7.780668837949634">
        <ele>90.078125</ele>
        <time>2026-03-09T11:48:55Z</time>
      </trkpt>
      <trkpt lat="52.264757081866264" lon="7.780985841527581">
        <ele>90.05859375</ele>
        <time>2026-03-09T11:48:59Z</time>
      </trkpt>
      <trkpt lat="52.264672676101327" lon="7.78130142018199">
        <ele>90.38671875</ele>
        <time>2026-03-09T11:49:03Z</time>
      </trkpt>
      <trkpt lat="52.264596316963434" lon="7.781601995229721">
        <ele>90.71875</ele>
        <time>2026-03-09T11:49:07Z</time>
      </trkpt>
      <trkpt lat="52.26449984125793" lon="7.781901396811009">
        <ele>90.984375</ele>
        <time>2026-03-09T11:49:11Z</time>
      </trkpt>
      <trkpt lat="52.264419039711356" lon="7.782207084819675">
        <ele>91.18359375</ele>
        <time>2026-03-09T11:49:15Z</time>
      </trkpt>
      <trkpt lat="52.264330023899674" lon="7.782504977658391">
        <ele>91.16015625</ele>
        <time>2026-03-09T11:49:19Z</time>
      </trkpt>
      <trkpt lat="52.26424477994442" lon="7.782797589898109">
        <ele>90.96875</ele>
        <time>2026-03-09T11:49:23Z</time>
      </trkpt>
      <trkpt lat="52.264154171571136" lon="7.78309422545135">
        <ele>90.99609375</ele>
        <time>2026-03-09T11:49:27Z</time>
      </trkpt>
      <trkpt lat="52.26406741887331" lon="7.78338398784399">
        <ele>91.03125</ele>
        <time>2026-03-09T11:49:31Z</time>
      </trkpt>
      <trkpt lat="52.263988712802529" lon="7.783656734973192">
        <ele>91.16015625</ele>
        <time>2026-03-09T11:49:35Z</time>
      </trkpt>
      <trkpt lat="52.263889722526073" lon="7.783930990844965">
        <ele>92.125</ele>
        <time>2026-03-09T11:49:39Z</time>
      </trkpt>
      <trkpt lat="52.263806909322739" lon="7.784217484295368">
        <ele>92.99609375</ele>
        <time>2026-03-09T11:49:43Z</time>
      </trkpt>
      <trkpt lat="52.263733735308051" lon="7.784490566700697">
        <ele>93.7734375</ele>
        <time>2026-03-09T11:49:47Z</time>
      </trkpt>
      <trkpt lat="52.26365209557116" lon="7.784755183383822">
        <ele>94.60546875</ele>
        <time>2026-03-09T11:49:51Z</time>
      </trkpt>
      <trkpt lat="52.263580095022917" lon="7.785045532509685">
        <ele>95.4765625</ele>
        <time>2026-03-09T11:49:55Z</time>
      </trkpt>
      <trkpt lat="52.263484206050634" lon="7.785417856648564">
        <ele>96.24609375</ele>
        <time>2026-03-09T11:50:01Z</time>
      </trkpt>
      <trkpt lat="52.263384629040956" lon="7.785709295421839">
        <ele>96.35546875</ele>
        <time>2026-03-09T11:50:07Z</time>
      </trkpt>
      <trkpt lat="52.263308269903064" lon="7.785897217690945">
        <ele>96.28515625</ele>
        <time>2026-03-09T11:50:19Z</time>
      </trkpt>
      <trkpt lat="52.263212883844972" lon="7.78627960011363">
        <ele>96.08203125</ele>
        <time>2026-03-09T11:50:25Z</time>
      </trkpt>
      <trkpt lat="52.263092435896397" lon="7.786638680845499">
        <ele>96.359375</ele>
        <time>2026-03-09T11:50:31Z</time>
      </trkpt>
      <trkpt lat="52.262982968240976" lon="7.787009160965681">
        <ele>97.20703125</ele>
        <time>2026-03-09T11:50:37Z</time>
      </trkpt>
      <trkpt lat="52.262889510020614" lon="7.787379305809736">
        <ele>98.34765625</ele>
        <time>2026-03-09T11:50:43Z</time>
      </trkpt>
      <trkpt lat="52.262770989909768" lon="7.787728579714894">
        <ele>99.35546875</ele>
        <time>2026-03-09T11:50:49Z</time>
      </trkpt>
      <trkpt lat="52.262650458142161" lon="7.788101490586996">
        <ele>99.984375</ele>
        <time>2026-03-09T11:50:55Z</time>
      </trkpt>
      <trkpt lat="52.262556916102767" lon="7.788454787805677">
        <ele>100.39453125</ele>
        <time>2026-03-09T11:51:01Z</time>
      </trkpt>
      <trkpt lat="52.262464128434658" lon="7.788829542696476">
        <ele>100.51953125</ele>
        <time>2026-03-09T11:51:07Z</time>
      </trkpt>
      <trkpt lat="52.262358516454697" lon="7.789128860458732">
        <ele>100.34765625</ele>
        <time>2026-03-09T11:51:13Z</time>
      </trkpt>
      <trkpt lat="52.262285258620977" lon="7.789407642558217">
        <ele>100.2890625</ele>
        <time>2026-03-09T11:51:21Z</time>
      </trkpt>
      <trkpt lat="52.262320211157203" lon="7.789585255086422">
        <ele>99.828125</ele>
        <time>2026-03-09T11:51:31Z</time>
      </trkpt>
      <trkpt lat="52.262529004365206" lon="7.789517361670733">
        <ele>100.1875</ele>
        <time>2026-03-09T11:51:37Z</time>
      </trkpt>
      <trkpt lat="52.262741904705763" lon="7.789543932303786">
        <ele>100.50390625</ele>
        <time>2026-03-09T11:51:43Z</time>
      </trkpt>
      <trkpt lat="52.262785909697413" lon="7.789878454059362">
        <ele>100.6171875</ele>
        <time>2026-03-09T11:51:47Z</time>
      </trkpt>
      <trkpt lat="52.262708460912108" lon="7.790166875347495">
        <ele>100.39453125</ele>
        <time>2026-03-09T11:51:51Z</time>
      </trkpt>
      <trkpt lat="52.262630509212613" lon="7.790445657446981">
        <ele>100.01953125</ele>
        <time>2026-03-09T11:51:55Z</time>
      </trkpt>
      <trkpt lat="52.262547360733151" lon="7.790724774822593">
        <ele>99.65234375</ele>
        <time>2026-03-09T11:51:59Z</time>
      </trkpt>
      <trkpt lat="52.262475192546844" lon="7.79101730324328">
        <ele>99.37890625</ele>
        <time>2026-03-09T11:52:03Z</time>
      </trkpt>
      <trkpt lat="52.262390032410622" lon="7.791366577148438">
        <ele>98.51171875</ele>
        <time>2026-03-09T11:52:07Z</time>
      </trkpt>
      <trkpt lat="52.262318031862378" lon="7.791824480518699">
        <ele>97.234375</ele>
        <time>2026-03-09T11:52:11Z</time>
      </trkpt>
      <trkpt lat="52.262285007163882" lon="7.792307361960411">
        <ele>97.046875</ele>
        <time>2026-03-09T11:52:15Z</time>
      </trkpt>
      <trkpt lat="52.262277882546186" lon="7.792814886197448">
        <ele>96.98046875</ele>
        <time>2026-03-09T11:52:19Z</time>
      </trkpt>
      <trkpt lat="52.262271763756871" lon="7.793363565579057">
        <ele>96.328125</ele>
        <time>2026-03-09T11:52:23Z</time>
      </trkpt>
      <trkpt lat="52.262282995507121" lon="7.793929846957326">
        <ele>95.2421875</ele>
        <time>2026-03-09T11:52:27Z</time>
      </trkpt>
      <trkpt lat="52.262288611382246" lon="7.794498139992356">
        <ele>93.984375</ele>
        <time>2026-03-09T11:52:31Z</time>
      </trkpt>
      <trkpt lat="52.262314092367887" lon="7.795070791617036">
        <ele>93.23046875</ele>
        <time>2026-03-09T11:52:35Z</time>
      </trkpt>
      <trkpt lat="52.2623445186764" lon="7.795627349987626">
        <ele>92.57421875</ele>
        <time>2026-03-09T11:52:39Z</time>
      </trkpt>
      <trkpt lat="52.262360276654363" lon="7.796171503141522">
        <ele>91.9375</ele>
        <time>2026-03-09T11:52:43Z</time>
      </trkpt>
      <trkpt lat="52.262375615537167" lon="7.79673133045435">
        <ele>91.28515625</ele>
        <time>2026-03-09T11:52:47Z</time>
      </trkpt>
      <trkpt lat="52.262440240010619" lon="7.797261150553823">
        <ele>90.66796875</ele>
        <time>2026-03-09T11:52:51Z</time>
      </trkpt>
      <trkpt lat="52.262510228902102" lon="7.797784265130758">
        <ele>89.92578125</ele>
        <time>2026-03-09T11:52:55Z</time>
      </trkpt>
      <trkpt lat="52.262535458430648" lon="7.798302853479981">
        <ele>88.83984375</ele>
        <time>2026-03-09T11:52:59Z</time>
      </trkpt>
      <trkpt lat="52.262526741251349" lon="7.798822363838553">
        <ele>87.6640625</ele>
        <time>2026-03-09T11:53:03Z</time>
      </trkpt>
      <trkpt lat="52.262498158961535" lon="7.799317818135023">
        <ele>86.44140625</ele>
        <time>2026-03-09T11:53:07Z</time>
      </trkpt>
      <trkpt lat="52.262396318838" lon="7.799789467826486">
        <ele>86.0859375</ele>
        <time>2026-03-09T11:53:11Z</time>
      </trkpt>
      <trkpt lat="52.262306632474065" lon="7.800238905474544">
        <ele>85.98046875</ele>
        <time>2026-03-09T11:53:15Z</time>
      </trkpt>
      <trkpt lat="52.262262040749192" lon="7.800710052251816">
        <ele>86.48046875</ele>
        <time>2026-03-09T11:53:19Z</time>
      </trkpt>
      <trkpt lat="52.262222897261381" lon="7.801162591204047">
        <ele>86.78125</ele>
        <time>2026-03-09T11:53:23Z</time>
      </trkpt>
      <trkpt lat="52.262175539508462" lon="7.801615968346596">
        <ele>86.1796875</ele>
        <time>2026-03-09T11:53:27Z</time>
      </trkpt>
      <trkpt lat="52.262136898934841" lon="7.802054174244404">
        <ele>86.0390625</ele>
        <time>2026-03-09T11:53:31Z</time>
      </trkpt>
      <trkpt lat="52.262102365493774" lon="7.802472682669759">
        <ele>86.72265625</ele>
        <time>2026-03-09T11:53:35Z</time>
      </trkpt>
      <trkpt lat="52.262061880901456" lon="7.80285632237792">
        <ele>87.1484375</ele>
        <time>2026-03-09T11:53:39Z</time>
      </trkpt>
      <trkpt lat="52.261985018849373" lon="7.803226634860039">
        <ele>87.12109375</ele>
        <time>2026-03-09T11:53:43Z</time>
      </trkpt>
      <trkpt lat="52.261887453496456" lon="7.803622176870704">
        <ele>86.87890625</ele>
        <time>2026-03-09T11:53:47Z</time>
      </trkpt>
      <trkpt lat="52.261837748810649" lon="7.8040627297014">
        <ele>86.328125</ele>
        <time>2026-03-09T11:53:51Z</time>
      </trkpt>
      <trkpt lat="52.261854512616992" lon="7.804474616423249">
        <ele>86.15234375</ele>
        <time>2026-03-09T11:53:55Z</time>
      </trkpt>
      <trkpt lat="52.261864151805639" lon="7.804879127070308">
        <ele>85.98828125</ele>
        <time>2026-03-09T11:53:59Z</time>
      </trkpt>
      <trkpt lat="52.261876808479428" lon="7.805290929973126">
        <ele>85.8828125</ele>
        <time>2026-03-09T11:54:03Z</time>
      </trkpt>
      <trkpt lat="52.261885106563568" lon="7.805695859715343">
        <ele>86.1796875</ele>
        <time>2026-03-09T11:54:07Z</time>
      </trkpt>
      <trkpt lat="52.261884100735188" lon="7.80609299428761">
        <ele>86.4375</ele>
        <time>2026-03-09T11:54:11Z</time>
      </trkpt>
      <trkpt lat="52.261784188449383" lon="7.806458193808794">
        <ele>86.515625</ele>
        <time>2026-03-09T11:54:15Z</time>
      </trkpt>
      <trkpt lat="52.261619651690125" lon="7.80678148381412">
        <ele>86.30859375</ele>
        <time>2026-03-09T11:54:19Z</time>
      </trkpt>
      <trkpt lat="52.261452013626695" lon="7.807103097438812">
        <ele>86.46484375</ele>
        <time>2026-03-09T11:54:23Z</time>
      </trkpt>
      <trkpt lat="52.261293344199657" lon="7.807414485141635">
        <ele>87.2109375</ele>
        <time>2026-03-09T11:54:27Z</time>
      </trkpt>
      <trkpt lat="52.261142805218697" lon="7.807707935571671">
        <ele>87.91796875</ele>
        <time>2026-03-09T11:54:31Z</time>
      </trkpt>
      <trkpt lat="52.260996541008353" lon="7.807988645508885">
        <ele>88.23828125</ele>
        <time>2026-03-09T11:54:35Z</time>
      </trkpt>
      <trkpt lat="52.260801661759615" lon="7.808168604969978">
        <ele>88.17578125</ele>
        <time>2026-03-09T11:54:39Z</time>
      </trkpt>
      <trkpt lat="52.2605502884835" lon="7.808159803971648">
        <ele>87.41796875</ele>
        <time>2026-03-09T11:54:43Z</time>
      </trkpt>
      <trkpt lat="52.260366221889853" lon="7.808514190837741">
        <ele>86.57421875</ele>
        <time>2026-03-09T11:54:47Z</time>
      </trkpt>
      <trkpt lat="52.260215599089861" lon="7.808850640431047">
        <ele>85.85546875</ele>
        <time>2026-03-09T11:54:51Z</time>
      </trkpt>
      <trkpt lat="52.260094480589032" lon="7.809125063940883">
        <ele>85.05859375</ele>
        <time>2026-03-09T11:54:55Z</time>
      </trkpt>
      <trkpt lat="52.259962130337954" lon="7.809413820505142">
        <ele>83.98828125</ele>
        <time>2026-03-09T11:54:59Z</time>
      </trkpt>
      <trkpt lat="52.259820057079196" lon="7.809715149924159">
        <ele>82.62890625</ele>
        <time>2026-03-09T11:55:03Z</time>
      </trkpt>
      <trkpt lat="52.259668512269855" lon="7.810043720528483">
        <ele>82.19140625</ele>
        <time>2026-03-09T11:55:07Z</time>
      </trkpt>
      <trkpt lat="52.259507579728961" lon="7.81038117595017">
        <ele>82.3359375</ele>
        <time>2026-03-09T11:55:11Z</time>
      </trkpt>
      <trkpt lat="52.25935067050159" lon="7.810717960819602">
        <ele>83.14453125</ele>
        <time>2026-03-09T11:55:15Z</time>
      </trkpt>
      <trkpt lat="52.259221589192748" lon="7.811081064864993">
        <ele>83.99609375</ele>
        <time>2026-03-09T11:55:19Z</time>
      </trkpt>
      <trkpt lat="52.259212369099259" lon="7.811491275206208">
        <ele>83.765625</ele>
        <time>2026-03-09T11:55:23Z</time>
      </trkpt>
      <trkpt lat="52.259269198402762" lon="7.81187055632472">
        <ele>83.6796875</ele>
        <time>2026-03-09T11:55:27Z</time>
      </trkpt>
      <trkpt lat="52.259325440973043" lon="7.812248999252915">
        <ele>84.45703125</ele>
        <time>2026-03-09T11:55:31Z</time>
      </trkpt>
      <trkpt lat="52.259378079324961" lon="7.812617383897305">
        <ele>85.5078125</ele>
        <time>2026-03-09T11:55:35Z</time>
      </trkpt>
      <trkpt lat="52.259430298581719" lon="7.813027845695615">
        <ele>86.5</ele>
        <time>2026-03-09T11:55:39Z</time>
      </trkpt>
      <trkpt lat="52.259489810094237" lon="7.813458507880569">
        <ele>87.4453125</ele>
        <time>2026-03-09T11:55:43Z</time>
      </trkpt>
      <trkpt lat="52.259560469537973" lon="7.813893109560013">
        <ele>86.921875</ele>
        <time>2026-03-09T11:55:47Z</time>
      </trkpt>
      <trkpt lat="52.259653089568019" lon="7.814357718452811">
        <ele>85.57421875</ele>
        <time>2026-03-09T11:55:51Z</time>
      </trkpt>
      <trkpt lat="52.259756941348314" lon="7.814816627651453">
        <ele>83.8203125</ele>
        <time>2026-03-09T11:55:55Z</time>
      </trkpt>
      <trkpt lat="52.259861463680863" lon="7.815263383090496">
        <ele>82.37109375</ele>
        <time>2026-03-09T11:55:59Z</time>
      </trkpt>
      <trkpt lat="52.259967410936952" lon="7.815687926486135">
        <ele>82.2578125</ele>
        <time>2026-03-09T11:56:03Z</time>
      </trkpt>
      <trkpt lat="52.260074280202389" lon="7.816093862056732">
        <ele>81.7421875</ele>
        <time>2026-03-09T11:56:07Z</time>
      </trkpt>
      <trkpt lat="52.260174108669162" lon="7.816505832597613">
        <ele>81.3359375</ele>
        <time>2026-03-09T11:56:11Z</time>
      </trkpt>
      <trkpt lat="52.260280391201377" lon="7.816930124536157">
        <ele>80.609375</ele>
        <time>2026-03-09T11:56:15Z</time>
      </trkpt>
      <trkpt lat="52.26038851775229" lon="7.817340921610594">
        <ele>80.50390625</ele>
        <time>2026-03-09T11:56:19Z</time>
      </trkpt>
      <trkpt lat="52.260483652353287" lon="7.817759094759822">
        <ele>80.3671875</ele>
        <time>2026-03-09T11:56:23Z</time>
      </trkpt>
      <trkpt lat="52.260597730055451" lon="7.818164862692356">
        <ele>80.74609375</ele>
        <time>2026-03-09T11:56:27Z</time>
      </trkpt>
      <trkpt lat="52.260694541037083" lon="7.818555291742086">
        <ele>81.69921875</ele>
        <time>2026-03-09T11:56:31Z</time>
      </trkpt>
      <trkpt lat="52.260799231007695" lon="7.818956365808845">
        <ele>82.546875</ele>
        <time>2026-03-09T11:56:35Z</time>
      </trkpt>
      <trkpt lat="52.260909369215369" lon="7.819370850920677">
        <ele>83.03515625</ele>
        <time>2026-03-09T11:56:39Z</time>
      </trkpt>
      <trkpt lat="52.261009532958269" lon="7.819791119545698">
        <ele>83.234375</ele>
        <time>2026-03-09T11:56:43Z</time>
      </trkpt>
      <trkpt lat="52.261109780520201" lon="7.820195043459535">
        <ele>83.03515625</ele>
        <time>2026-03-09T11:56:47Z</time>
      </trkpt>
      <trkpt lat="52.261210530996323" lon="7.820614892989397">
        <ele>82.45703125</ele>
        <time>2026-03-09T11:56:51Z</time>
      </trkpt>
      <trkpt lat="52.26131983101368" lon="7.821057373657823">
        <ele>81.23046875</ele>
        <time>2026-03-09T11:56:55Z</time>
      </trkpt>
      <trkpt lat="52.261432399973273" lon="7.821455597877502">
        <ele>81.22265625</ele>
        <time>2026-03-09T11:56:59Z</time>
      </trkpt>
      <trkpt lat="52.261584280058742" lon="7.821810571476817">
        <ele>82.9921875</ele>
        <time>2026-03-09T11:57:03Z</time>
      </trkpt>
      <trkpt lat="52.261750241741538" lon="7.822129167616367">
        <ele>85.6796875</ele>
        <time>2026-03-09T11:57:07Z</time>
      </trkpt>
      <trkpt lat="52.26189985871315" lon="7.822472574189305">
        <ele>87.3125</ele>
        <time>2026-03-09T11:57:11Z</time>
      </trkpt>
      <trkpt lat="52.262020390480757" lon="7.822854705154896">
        <ele>87.421875</ele>
        <time>2026-03-09T11:57:15Z</time>
      </trkpt>
      <trkpt lat="52.262101862579584" lon="7.823289474472404">
        <ele>85.265625</ele>
        <time>2026-03-09T11:57:19Z</time>
      </trkpt>
      <trkpt lat="52.262127930298448" lon="7.82373882830143">
        <ele>82.83203125</ele>
        <time>2026-03-09T11:57:23Z</time>
      </trkpt>
      <trkpt lat="52.262155003845692" lon="7.824186338111758">
        <ele>81.65234375</ele>
        <time>2026-03-09T11:57:27Z</time>
      </trkpt>
      <trkpt lat="52.262207306921482" lon="7.824632339179516">
        <ele>80.78125</ele>
        <time>2026-03-09T11:57:31Z</time>
      </trkpt>
      <trkpt lat="52.262297663837671" lon="7.825047243386507">
        <ele>80.3125</ele>
        <time>2026-03-09T11:57:35Z</time>
      </trkpt>
      <trkpt lat="52.262397408485413" lon="7.82545393332839">
        <ele>80.7734375</ele>
        <time>2026-03-09T11:57:39Z</time>
      </trkpt>
      <trkpt lat="52.262511234730482" lon="7.825885182246566">
        <ele>81.7421875</ele>
        <time>2026-03-09T11:57:43Z</time>
      </trkpt>
      <trkpt lat="52.262625731527805" lon="7.826304193586111">
        <ele>82.67578125</ele>
        <time>2026-03-09T11:57:47Z</time>
      </trkpt>
      <trkpt lat="52.262735283002257" lon="7.826673332601786">
        <ele>83.35546875</ele>
        <time>2026-03-09T11:57:51Z</time>
      </trkpt>
      <trkpt lat="52.262838548049331" lon="7.827030485495925">
        <ele>83.26953125</ele>
        <time>2026-03-09T11:57:55Z</time>
      </trkpt>
      <trkpt lat="52.262934520840645" lon="7.827374143525958">
        <ele>82.3125</ele>
        <time>2026-03-09T11:57:59Z</time>
      </trkpt>
      <trkpt lat="52.263029320165515" lon="7.827706066891551">
        <ele>81.22265625</ele>
        <time>2026-03-09T11:58:03Z</time>
      </trkpt>
      <trkpt lat="52.263117916882038" lon="7.828090963885188">
        <ele>80.8984375</ele>
        <time>2026-03-09T11:58:07Z</time>
      </trkpt>
      <trkpt lat="52.263212548568845" lon="7.8284927085042">
        <ele>81.26953125</ele>
        <time>2026-03-09T11:58:11Z</time>
      </trkpt>
      <trkpt lat="52.263303827494383" lon="7.828897889703512">
        <ele>82.00390625</ele>
        <time>2026-03-09T11:58:15Z</time>
      </trkpt>
      <trkpt lat="52.26339016109705" lon="7.829281026497483">
        <ele>82.17578125</ele>
        <time>2026-03-09T11:58:19Z</time>
      </trkpt>
      <trkpt lat="52.26346786133945" lon="7.829584032297134">
        <ele>82.31640625</ele>
        <time>2026-03-09T11:58:23Z</time>
      </trkpt>
      <trkpt lat="52.263537850230932" lon="7.829893995076418">
        <ele>82.2109375</ele>
        <time>2026-03-09T11:58:29Z</time>
      </trkpt>
      <trkpt lat="52.26359493099153" lon="7.830175375565887">
        <ele>81.80078125</ele>
        <time>2026-03-09T11:58:37Z</time>
      </trkpt>
      <trkpt lat="52.263668105006218" lon="7.830472262576222">
        <ele>81.48828125</ele>
        <time>2026-03-09T11:59:49Z</time>
      </trkpt>
      <trkpt lat="52.263744380325079" lon="7.830859757959843">
        <ele>81.015625</ele>
        <time>2026-03-09T11:59:57Z</time>
      </trkpt>
      <trkpt lat="52.263818057253957" lon="7.831314727663994">
        <ele>80.1875</ele>
        <time>2026-03-09T12:00:03Z</time>
      </trkpt>
      <trkpt lat="52.263872874900699" lon="7.831706497818232">
        <ele>79.1953125</ele>
        <time>2026-03-09T12:00:07Z</time>
      </trkpt>
      <trkpt lat="52.263945126906037" lon="7.832124419510365">
        <ele>78.87109375</ele>
        <time>2026-03-09T12:00:11Z</time>
      </trkpt>
      <trkpt lat="52.264009919017553" lon="7.832535719498992">
        <ele>79.203125</ele>
        <time>2026-03-09T12:00:15Z</time>
      </trkpt>
      <trkpt lat="52.26406641304493" lon="7.832952551543713">
        <ele>79.47265625</ele>
        <time>2026-03-09T12:00:19Z</time>
      </trkpt>
      <trkpt lat="52.264115111902356" lon="7.833354882895947">
        <ele>79.45703125</ele>
        <time>2026-03-09T12:00:23Z</time>
      </trkpt>
      <trkpt lat="52.264160960912704" lon="7.833767607808113">
        <ele>79.34765625</ele>
        <time>2026-03-09T12:00:27Z</time>
      </trkpt>
      <trkpt lat="52.264226507395506" lon="7.834170861169696">
        <ele>79.3359375</ele>
        <time>2026-03-09T12:00:31Z</time>
      </trkpt>
      <trkpt lat="52.264322731643915" lon="7.834567241370678">
        <ele>79.51171875</ele>
        <time>2026-03-09T12:00:35Z</time>
      </trkpt>
      <trkpt lat="52.264432031661272" lon="7.834957921877503">
        <ele>79.68359375</ele>
        <time>2026-03-09T12:00:39Z</time>
      </trkpt>
      <trkpt lat="52.264593048021197" lon="7.83529638312757">
        <ele>80.265625</ele>
        <time>2026-03-09T12:00:43Z</time>
      </trkpt>
      <trkpt lat="52.264855233952403" lon="7.835407527163625">
        <ele>81.7734375</ele>
        <time>2026-03-09T12:00:47Z</time>
      </trkpt>
      <trkpt lat="52.265082718804479" lon="7.835392775014043">
        <ele>81.73828125</ele>
        <time>2026-03-09T12:00:51Z</time>
      </trkpt>
      <trkpt lat="52.265316992998123" lon="7.835392523556948">
        <ele>81.6796875</ele>
        <time>2026-03-09T12:00:55Z</time>
      </trkpt>
      <trkpt lat="52.265484128147364" lon="7.835783623158932">
        <ele>80.796875</ele>
        <time>2026-03-09T12:00:59Z</time>
      </trkpt>
      <trkpt lat="52.265468118712306" lon="7.836210513487458">
        <ele>80.28515625</ele>
        <time>2026-03-09T12:01:03Z</time>
      </trkpt>
      <trkpt lat="52.265359656885266" lon="7.83660345710814">
        <ele>80.3125</ele>
        <time>2026-03-09T12:01:07Z</time>
      </trkpt>
      <trkpt lat="52.265252368524671" lon="7.836988102644682">
        <ele>80.15234375</ele>
        <time>2026-03-09T12:01:11Z</time>
      </trkpt>
      <trkpt lat="52.265144241973758" lon="7.837347267195582">
        <ele>80.1953125</ele>
        <time>2026-03-09T12:01:15Z</time>
      </trkpt>
      <trkpt lat="52.265052711591125" lon="7.837687823921442">
        <ele>80.08203125</ele>
        <time>2026-03-09T12:01:19Z</time>
      </trkpt>
      <trkpt lat="52.264969144016504" lon="7.83805369399488">
        <ele>79.51953125</ele>
        <time>2026-03-09T12:01:23Z</time>
      </trkpt>
      <trkpt lat="52.26487509906292" lon="7.838438004255295">
        <ele>78.5625</ele>
        <time>2026-03-09T12:01:27Z</time>
      </trkpt>
      <trkpt lat="52.26479547098279" lon="7.838828098028898">
        <ele>77.83984375</ele>
        <time>2026-03-09T12:01:31Z</time>
      </trkpt>
      <trkpt lat="52.264801757410169" lon="7.839238727465272">
        <ele>77.87890625</ele>
        <time>2026-03-09T12:01:35Z</time>
      </trkpt>
      <trkpt lat="52.264829920604825" lon="7.839662935584784">
        <ele>78.0859375</ele>
        <time>2026-03-09T12:01:39Z</time>
      </trkpt>
      <trkpt lat="52.264870908111334" lon="7.840076247230172">
        <ele>78.57421875</ele>
        <time>2026-03-09T12:01:43Z</time>
      </trkpt>
      <trkpt lat="52.264915332198143" lon="7.840472878888249">
        <ele>78.5546875</ele>
        <time>2026-03-09T12:01:47Z</time>
      </trkpt>
      <trkpt lat="52.264947351068258" lon="7.840873030945659">
        <ele>78.05859375</ele>
        <time>2026-03-09T12:01:51Z</time>
      </trkpt>
      <trkpt lat="52.264988673850894" lon="7.841292461380363">
        <ele>77.859375</ele>
        <time>2026-03-09T12:01:55Z</time>
      </trkpt>
      <trkpt lat="52.265042653307319" lon="7.841708622872829">
        <ele>77.921875</ele>
        <time>2026-03-09T12:01:59Z</time>
      </trkpt>
      <trkpt lat="52.265086490660906" lon="7.842109529301524">
        <ele>78.0078125</ele>
        <time>2026-03-09T12:02:03Z</time>
      </trkpt>
      <trkpt lat="52.265140051022172" lon="7.842526528984308">
        <ele>78.234375</ele>
        <time>2026-03-09T12:02:07Z</time>
      </trkpt>
      <trkpt lat="52.265213392674923" lon="7.842905558645725">
        <ele>78.65625</ele>
        <time>2026-03-09T12:02:11Z</time>
      </trkpt>
      <trkpt lat="52.265317998826504" lon="7.843210240826011">
        <ele>79.4140625</ele>
        <time>2026-03-09T12:02:15Z</time>
      </trkpt>
      <trkpt lat="52.265448588877916" lon="7.84352783113718">
        <ele>80.2890625</ele>
        <time>2026-03-09T12:02:19Z</time>
      </trkpt>
      <trkpt lat="52.265577921643853" lon="7.843849109485745">
        <ele>80.67578125</ele>
        <time>2026-03-09T12:02:23Z</time>
      </trkpt>
      <trkpt lat="52.26572971791029" lon="7.844200814142823">
        <ele>81.02734375</ele>
        <time>2026-03-09T12:02:27Z</time>
      </trkpt>
      <trkpt lat="52.26590515114367" lon="7.844523936510086">
        <ele>81.2265625</ele>
        <time>2026-03-09T12:02:31Z</time>
      </trkpt>
      <trkpt lat="52.266076393425465" lon="7.844925429672003">
        <ele>80.109375</ele>
        <time>2026-03-09T12:02:35Z</time>
      </trkpt>
      <trkpt lat="52.266219221055508" lon="7.845369083806872">
        <ele>78.390625</ele>
        <time>2026-03-09T12:02:39Z</time>
      </trkpt>
      <trkpt lat="52.26625207811594" lon="7.845842493698001">
        <ele>77.66015625</ele>
        <time>2026-03-09T12:02:43Z</time>
      </trkpt>
      <trkpt lat="52.266289461404085" lon="7.84627290442586">
        <ele>77.5078125</ele>
        <time>2026-03-09T12:02:47Z</time>
      </trkpt>
      <trkpt lat="52.266337322071195" lon="7.846683617681265">
        <ele>77.77734375</ele>
        <time>2026-03-09T12:02:51Z</time>
      </trkpt>
      <trkpt lat="52.266418291255832" lon="7.847083266824484">
        <ele>77.98046875</ele>
        <time>2026-03-09T12:02:55Z</time>
      </trkpt>
      <trkpt lat="52.26651300676167" lon="7.847470510751009">
        <ele>77.87890625</ele>
        <time>2026-03-09T12:02:59Z</time>
      </trkpt>
      <trkpt lat="52.266596490517259" lon="7.847851384431124">
        <ele>77.99609375</ele>
        <time>2026-03-09T12:03:03Z</time>
      </trkpt>
      <trkpt lat="52.266686679795384" lon="7.848235191777349">
        <ele>78.37890625</ele>
        <time>2026-03-09T12:03:07Z</time>
      </trkpt>
      <trkpt lat="52.266767732799053" lon="7.848592260852456">
        <ele>78.625</ele>
        <time>2026-03-09T12:03:11Z</time>
      </trkpt>
      <trkpt lat="52.266856664791703" lon="7.848957795649767">
        <ele>78.83984375</ele>
        <time>2026-03-09T12:03:15Z</time>
      </trkpt>
      <trkpt lat="52.266926737502217" lon="7.849339926615357">
        <ele>78.76953125</ele>
        <time>2026-03-09T12:03:19Z</time>
      </trkpt>
      <trkpt lat="52.266996055841446" lon="7.849738486111164">
        <ele>78.4921875</ele>
        <time>2026-03-09T12:03:23Z</time>
      </trkpt>
      <trkpt lat="52.2670968901366" lon="7.85015556961298">
        <ele>78.0859375</ele>
        <time>2026-03-09T12:03:27Z</time>
      </trkpt>
      <trkpt lat="52.267206022515893" lon="7.850594194605947">
        <ele>77.66796875</ele>
        <time>2026-03-09T12:03:31Z</time>
      </trkpt>
      <trkpt lat="52.267285902053118" lon="7.851029047742486">
        <ele>76.96484375</ele>
        <time>2026-03-09T12:03:35Z</time>
      </trkpt>
      <trkpt lat="52.267374582588673" lon="7.85147488117218">
        <ele>77.09375</ele>
        <time>2026-03-09T12:03:39Z</time>
      </trkpt>
      <trkpt lat="52.26744968444109" lon="7.851903447881341">
        <ele>77.00390625</ele>
        <time>2026-03-09T12:03:43Z</time>
      </trkpt>
      <trkpt lat="52.267460580915213" lon="7.852257080376148">
        <ele>77.07421875</ele>
        <time>2026-03-09T12:03:47Z</time>
      </trkpt>
      <trkpt lat="52.267368379980326" lon="7.852637870237231">
        <ele>77.05078125</ele>
        <time>2026-03-09T12:03:51Z</time>
      </trkpt>
      <trkpt lat="52.267298977822065" lon="7.853051768615842">
        <ele>76.58203125</ele>
        <time>2026-03-09T12:03:55Z</time>
      </trkpt>
      <trkpt lat="52.26720929145813" lon="7.853492572903633">
        <ele>76.05859375</ele>
        <time>2026-03-09T12:03:59Z</time>
      </trkpt>
      <trkpt lat="52.267138212919235" lon="7.853921139612794">
        <ele>75.55078125</ele>
        <time>2026-03-09T12:04:03Z</time>
      </trkpt>
      <trkpt lat="52.267047939822078" lon="7.854325398802757">
        <ele>75.06640625</ele>
        <time>2026-03-09T12:04:07Z</time>
      </trkpt>
      <trkpt lat="52.266950877383351" lon="7.854735525324941">
        <ele>74.62109375</ele>
        <time>2026-03-09T12:04:11Z</time>
      </trkpt>
      <trkpt lat="52.266864879056811" lon="7.855141712352634">
        <ele>74</ele>
        <time>2026-03-09T12:04:15Z</time>
      </trkpt>
      <trkpt lat="52.266766894608736" lon="7.855533314868808">
        <ele>73.16015625</ele>
        <time>2026-03-09T12:04:19Z</time>
      </trkpt>
      <trkpt lat="52.266691960394382" lon="7.855942854657769">
        <ele>72.16796875</ele>
        <time>2026-03-09T12:04:23Z</time>
      </trkpt>
      <trkpt lat="52.266656421124935" lon="7.85637485794723">
        <ele>71.65234375</ele>
        <time>2026-03-09T12:04:27Z</time>
      </trkpt>
      <trkpt lat="52.266677627339959" lon="7.856837119907141">
        <ele>71.48046875</ele>
        <time>2026-03-09T12:04:31Z</time>
      </trkpt>
      <trkpt lat="52.266737390309572" lon="7.857275158166885">
        <ele>70.6484375</ele>
        <time>2026-03-09T12:04:35Z</time>
      </trkpt>
      <trkpt lat="52.266801930963993" lon="7.857695510610938">
        <ele>69.796875</ele>
        <time>2026-03-09T12:04:39Z</time>
      </trkpt>
      <trkpt lat="52.266858257353306" lon="7.858055932447314">
        <ele>69.4765625</ele>
        <time>2026-03-09T12:04:43Z</time>
      </trkpt>
      <trkpt lat="52.266921289265156" lon="7.858369750902057">
        <ele>69.25</ele>
        <time>2026-03-09T12:04:47Z</time>
      </trkpt>
      <trkpt lat="52.266952218487859" lon="7.858686251565814">
        <ele>69.1171875</ele>
        <time>2026-03-09T12:04:51Z</time>
      </trkpt>
      <trkpt lat="52.266995050013065" lon="7.859000153839588">
        <ele>69.21875</ele>
        <time>2026-03-09T12:04:59Z</time>
      </trkpt>
      <trkpt lat="52.266852222383022" lon="7.859150357544422">
        <ele>68.875</ele>
        <time>2026-03-09T12:05:07Z</time>
      </trkpt>
      <trkpt lat="52.266628677025437" lon="7.859187992289662">
        <ele>68.33984375</ele>
        <time>2026-03-09T12:05:13Z</time>
      </trkpt>
      <trkpt lat="52.2664406709373" lon="7.859173072502017">
        <ele>67.9453125</ele>
        <time>2026-03-09T12:05:17Z</time>
      </trkpt>
      <trkpt lat="52.266258867457509" lon="7.859150525182486">
        <ele>67.7265625</ele>
        <time>2026-03-09T12:05:21Z</time>
      </trkpt>
      <trkpt lat="52.266028868034482" lon="7.85919763147831">
        <ele>67.44921875</ele>
        <time>2026-03-09T12:05:25Z</time>
      </trkpt>
      <trkpt lat="52.265792917460203" lon="7.859260411933065">
        <ele>67.1640625</ele>
        <time>2026-03-09T12:05:29Z</time>
      </trkpt>
      <trkpt lat="52.265564510598779" lon="7.859299387782812">
        <ele>67</ele>
        <time>2026-03-09T12:05:33Z</time>
      </trkpt>
      <trkpt lat="52.265329398214817" lon="7.859380943700671">
        <ele>67.00390625</ele>
        <time>2026-03-09T12:05:37Z</time>
      </trkpt>
      <trkpt lat="52.265103841200471" lon="7.859464762732387">
        <ele>67.03515625</ele>
        <time>2026-03-09T12:05:41Z</time>
      </trkpt>
      <trkpt lat="52.26487903855741" lon="7.859526369720697">
        <ele>67.01171875</ele>
        <time>2026-03-09T12:05:45Z</time>
      </trkpt>
      <trkpt lat="52.264662031084299" lon="7.859592586755753">
        <ele>66.80859375</ele>
        <time>2026-03-09T12:05:49Z</time>
      </trkpt>
      <trkpt lat="52.264451645314693" lon="7.859698869287968">
        <ele>66.5546875</ele>
        <time>2026-03-09T12:05:53Z</time>
      </trkpt>
      <trkpt lat="52.26424721069634" lon="7.859838679432869">
        <ele>66.30859375</ele>
        <time>2026-03-09T12:05:57Z</time>
      </trkpt>
      <trkpt lat="52.264045123010874" lon="7.860001707449555">
        <ele>66.06640625</ele>
        <time>2026-03-09T12:06:01Z</time>
      </trkpt>
      <trkpt lat="52.263847813010216" lon="7.860176218673587">
        <ele>66.1640625</ele>
        <time>2026-03-09T12:06:05Z</time>
      </trkpt>
      <trkpt lat="52.263644635677338" lon="7.86035081371665">
        <ele>66.38671875</ele>
        <time>2026-03-09T12:06:09Z</time>
      </trkpt>
      <trkpt lat="52.263449169695377" lon="7.860475201159716">
        <ele>66.7421875</ele>
        <time>2026-03-09T12:06:13Z</time>
      </trkpt>
      <trkpt lat="52.263250099495053" lon="7.860578801482916">
        <ele>67.23046875</ele>
        <time>2026-03-09T12:06:17Z</time>
      </trkpt>
      <trkpt lat="52.263065781444311" lon="7.860672511160374">
        <ele>67.5546875</ele>
        <time>2026-03-09T12:06:21Z</time>
      </trkpt>
      <trkpt lat="52.262890934944153" lon="7.860757168382406">
        <ele>67.65625</ele>
        <time>2026-03-09T12:06:25Z</time>
      </trkpt>
      <trkpt lat="52.262639310210943" lon="7.860860349610448">
        <ele>67.78125</ele>
        <time>2026-03-09T12:06:31Z</time>
      </trkpt>
      <trkpt lat="52.262462200596929" lon="7.860909383744001">
        <ele>67.83984375</ele>
        <time>2026-03-09T12:06:35Z</time>
      </trkpt>
      <trkpt lat="52.262275451794267" lon="7.860942659899592">
        <ele>68.046875</ele>
        <time>2026-03-09T12:06:39Z</time>
      </trkpt>
      <trkpt lat="52.262011924758554" lon="7.860976355150342">
        <ele>69.01171875</ele>
        <time>2026-03-09T12:06:45Z</time>
      </trkpt>
      <trkpt lat="52.26183045655489" lon="7.860991358757019">
        <ele>69.67578125</ele>
        <time>2026-03-09T12:06:49Z</time>
      </trkpt>
      <trkpt lat="52.261650497093797" lon="7.861000327393413">
        <ele>70.33203125</ele>
        <time>2026-03-09T12:06:53Z</time>
      </trkpt>
      <trkpt lat="52.261457378044724" lon="7.860995046794415">
        <ele>70.84765625</ele>
        <time>2026-03-09T12:06:57Z</time>
      </trkpt>
      <trkpt lat="52.261200975626707" lon="7.860960345715284">
        <ele>70.5234375</ele>
        <time>2026-03-09T12:07:03Z</time>
      </trkpt>
      <trkpt lat="52.261019758880138" lon="7.860974259674549">
        <ele>70.36328125</ele>
        <time>2026-03-09T12:07:07Z</time>
      </trkpt>
      <trkpt lat="52.260829322040081" lon="7.86098943091929">
        <ele>70.1796875</ele>
        <time>2026-03-09T12:07:11Z</time>
      </trkpt>
      <trkpt lat="52.260634694248438" lon="7.860999656841159">
        <ele>70.0546875</ele>
        <time>2026-03-09T12:07:15Z</time>
      </trkpt>
      <trkpt lat="52.260437048971653" lon="7.861000411212444">
        <ele>70.53125</ele>
        <time>2026-03-09T12:07:19Z</time>
      </trkpt>
      <trkpt lat="52.260239152237773" lon="7.861006865277886">
        <ele>71.00390625</ele>
        <time>2026-03-09T12:07:23Z</time>
      </trkpt>
      <trkpt lat="52.260031281039119" lon="7.861016588285565">
        <ele>71.50390625</ele>
        <time>2026-03-09T12:07:27Z</time>
      </trkpt>
      <trkpt lat="52.259828941896558" lon="7.861044835299254">
        <ele>71.98828125</ele>
        <time>2026-03-09T12:07:31Z</time>
      </trkpt>
      <trkpt lat="52.259628027677536" lon="7.861096551641822">
        <ele>72.140625</ele>
        <time>2026-03-09T12:07:35Z</time>
      </trkpt>
      <trkpt lat="52.259423257783055" lon="7.861150782555342">
        <ele>72.34765625</ele>
        <time>2026-03-09T12:07:39Z</time>
      </trkpt>
      <trkpt lat="52.259240029379725" lon="7.861223118379712">
        <ele>72.57421875</ele>
        <time>2026-03-09T12:07:43Z</time>
      </trkpt>
      <trkpt lat="52.259138440713286" lon="7.861477257683873">
        <ele>72.640625</ele>
        <time>2026-03-09T12:07:47Z</time>
      </trkpt>
      <trkpt lat="52.259109690785408" lon="7.861897442489862">
        <ele>72.62109375</ele>
        <time>2026-03-09T12:07:51Z</time>
      </trkpt>
      <trkpt lat="52.259081108495593" lon="7.862349143251777">
        <ele>73.6953125</ele>
        <time>2026-03-09T12:07:55Z</time>
      </trkpt>
      <trkpt lat="52.259061997756362" lon="7.862770585343242">
        <ele>74.72265625</ele>
        <time>2026-03-09T12:07:59Z</time>
      </trkpt>
      <trkpt lat="52.259024949744344" lon="7.863145424053073">
        <ele>75.83203125</ele>
        <time>2026-03-09T12:08:03Z</time>
      </trkpt>
      <trkpt lat="52.259002150967717" lon="7.863453542813659">
        <ele>76.71875</ele>
        <time>2026-03-09T12:08:07Z</time>
      </trkpt>
      <trkpt lat="52.258980609476566" lon="7.863761996850371">
        <ele>77.30859375</ele>
        <time>2026-03-09T12:08:11Z</time>
      </trkpt>
      <trkpt lat="52.258945740759373" lon="7.864075060933828">
        <ele>77.84375</ele>
        <time>2026-03-09T12:08:15Z</time>
      </trkpt>
      <trkpt lat="52.258920259773731" lon="7.864377982914448">
        <ele>78.3515625</ele>
        <time>2026-03-09T12:08:19Z</time>
      </trkpt>
      <trkpt lat="52.258911794051528" lon="7.864707307890058">
        <ele>78.78515625</ele>
        <time>2026-03-09T12:08:23Z</time>
      </trkpt>
      <trkpt lat="52.258911961689591" lon="7.865041410550475">
        <ele>79.1875</ele>
        <time>2026-03-09T12:08:27Z</time>
      </trkpt>
      <trkpt lat="52.258931659162045" lon="7.865396803244948">
        <ele>79.08203125</ele>
        <time>2026-03-09T12:08:31Z</time>
      </trkpt>
      <trkpt lat="52.258968790993094" lon="7.865767786279321">
        <ele>78.4609375</ele>
        <time>2026-03-09T12:08:35Z</time>
      </trkpt>
      <trkpt lat="52.259020339697599" lon="7.866147318854928">
        <ele>77.80859375</ele>
        <time>2026-03-09T12:08:39Z</time>
      </trkpt>
      <trkpt lat="52.259079599753022" lon="7.86652852781117">
        <ele>77.265625</ele>
        <time>2026-03-09T12:08:43Z</time>
      </trkpt>
      <trkpt lat="52.259131148457527" lon="7.866947958245874">
        <ele>76.83203125</ele>
        <time>2026-03-09T12:08:47Z</time>
      </trkpt>
      <trkpt lat="52.259196192026138" lon="7.867364455014467">
        <ele>76.75390625</ele>
        <time>2026-03-09T12:08:51Z</time>
      </trkpt>
      <trkpt lat="52.25926517508924" lon="7.867759075015783">
        <ele>76.7578125</ele>
        <time>2026-03-09T12:08:55Z</time>
      </trkpt>
      <trkpt lat="52.259324602782726" lon="7.868170123547316">
        <ele>77.26953125</ele>
        <time>2026-03-09T12:08:59Z</time>
      </trkpt>
      <trkpt lat="52.259392328560352" lon="7.868591649457812">
        <ele>77.59375</ele>
        <time>2026-03-09T12:09:03Z</time>
      </trkpt>
      <trkpt lat="52.259458210319281" lon="7.869023736566305">
        <ele>77.578125</ele>
        <time>2026-03-09T12:09:07Z</time>
      </trkpt>
      <trkpt lat="52.259519062936306" lon="7.869445765390992">
        <ele>77.4375</ele>
        <time>2026-03-09T12:09:11Z</time>
      </trkpt>
      <trkpt lat="52.259587710723281" lon="7.869847426190972">
        <ele>76.9765625</ele>
        <time>2026-03-09T12:09:15Z</time>
      </trkpt>
      <trkpt lat="52.259652838110924" lon="7.870228635147214">
        <ele>76.66796875</ele>
        <time>2026-03-09T12:09:19Z</time>
      </trkpt>
      <trkpt lat="52.259716456755996" lon="7.870608335360885">
        <ele>77.234375</ele>
        <time>2026-03-09T12:09:23Z</time>
      </trkpt>
      <trkpt lat="52.259792229160666" lon="7.870992394164205">
        <ele>77.93359375</ele>
        <time>2026-03-09T12:09:27Z</time>
      </trkpt>
      <trkpt lat="52.259868672117591" lon="7.871396485716105">
        <ele>79.42578125</ele>
        <time>2026-03-09T12:09:31Z</time>
      </trkpt>
      <trkpt lat="52.259937403723598" lon="7.871802756562829">
        <ele>80.640625</ele>
        <time>2026-03-09T12:09:35Z</time>
      </trkpt>
      <trkpt lat="52.260032538324594" lon="7.872164016589522">
        <ele>80.09765625</ele>
        <time>2026-03-09T12:09:39Z</time>
      </trkpt>
      <trkpt lat="52.260144017636776" lon="7.872503651306033">
        <ele>79.2265625</ele>
        <time>2026-03-09T12:09:43Z</time>
      </trkpt>
      <trkpt lat="52.260270500555634" lon="7.872802466154099">
        <ele>78.44140625</ele>
        <time>2026-03-09T12:09:47Z</time>
      </trkpt>
      <trkpt lat="52.260379130020738" lon="7.873127348721027">
        <ele>78.19140625</ele>
        <time>2026-03-09T12:09:51Z</time>
      </trkpt>
      <trkpt lat="52.260519359260798" lon="7.873492799699307">
        <ele>77.90234375</ele>
        <time>2026-03-09T12:09:55Z</time>
      </trkpt>
      <trkpt lat="52.260629748925567" lon="7.873904434964061">
        <ele>77.6171875</ele>
        <time>2026-03-09T12:09:59Z</time>
      </trkpt>
      <trkpt lat="52.260729661211371" lon="7.874338449910283">
        <ele>77.6171875</ele>
        <time>2026-03-09T12:10:03Z</time>
      </trkpt>
      <trkpt lat="52.260829070582986" lon="7.874736674129963">
        <ele>76.4765625</ele>
        <time>2026-03-09T12:10:07Z</time>
      </trkpt>
      <trkpt lat="52.260928815230727" lon="7.875220226123929">
        <ele>75.3515625</ele>
        <time>2026-03-09T12:10:11Z</time>
      </trkpt>
      <trkpt lat="52.260998049750924" lon="7.875687181949616">
        <ele>75.18359375</ele>
        <time>2026-03-09T12:10:15Z</time>
      </trkpt>
      <trkpt lat="52.261070720851421" lon="7.876108288764954">
        <ele>74.875</ele>
        <time>2026-03-09T12:10:19Z</time>
      </trkpt>
      <trkpt lat="52.26117817685008" lon="7.876482289284468">
        <ele>74.14453125</ele>
        <time>2026-03-09T12:10:23Z</time>
      </trkpt>
      <trkpt lat="52.261335169896483" lon="7.876829132437706">
        <ele>73.83984375</ele>
        <time>2026-03-09T12:10:27Z</time>
      </trkpt>
      <trkpt lat="52.26152996532619" lon="7.877165833488107">
        <ele>73.12890625</ele>
        <time>2026-03-09T12:10:31Z</time>
      </trkpt>
      <trkpt lat="52.26172786206007" lon="7.87748015485704">
        <ele>71.80859375</ele>
        <time>2026-03-09T12:10:35Z</time>
      </trkpt>
      <trkpt lat="52.261920562013984" lon="7.877802439033985">
        <ele>71.15234375</ele>
        <time>2026-03-09T12:10:39Z</time>
      </trkpt>
      <trkpt lat="52.262103371322155" lon="7.878096476197243">
        <ele>71.35546875</ele>
        <time>2026-03-09T12:10:43Z</time>
      </trkpt>
      <trkpt lat="52.262309147045016" lon="7.878424795344472">
        <ele>71.76171875</ele>
        <time>2026-03-09T12:10:47Z</time>
      </trkpt>
      <trkpt lat="52.262490866705775" lon="7.878788905218244">
        <ele>71.84375</ele>
        <time>2026-03-09T12:10:51Z</time>
      </trkpt>
      <trkpt lat="52.26263428106904" lon="7.879214957356453">
        <ele>71.765625</ele>
        <time>2026-03-09T12:10:55Z</time>
      </trkpt>
      <trkpt lat="52.262721369042993" lon="7.879642769694328">
        <ele>71.234375</ele>
        <time>2026-03-09T12:10:59Z</time>
      </trkpt>
      <trkpt lat="52.262769229710102" lon="7.880055075511336">
        <ele>70.56640625</ele>
        <time>2026-03-09T12:11:03Z</time>
      </trkpt>
      <trkpt lat="52.262835530564189" lon="7.880491185933352">
        <ele>70.5078125</ele>
        <time>2026-03-09T12:11:07Z</time>
      </trkpt>
      <trkpt lat="52.262904429808259" lon="7.880967361852527">
        <ele>70.83203125</ele>
        <time>2026-03-09T12:11:11Z</time>
      </trkpt>
      <trkpt lat="52.26298363879323" lon="7.881465665996075">
        <ele>71.359375</ele>
        <time>2026-03-09T12:11:15Z</time>
      </trkpt>
      <trkpt lat="52.263069720938802" lon="7.881948631256819">
        <ele>71.65234375</ele>
        <time>2026-03-09T12:11:19Z</time>
      </trkpt>
      <trkpt lat="52.263154210522771" lon="7.882449449971318">
        <ele>71.72265625</ele>
        <time>2026-03-09T12:11:23Z</time>
      </trkpt>
      <trkpt lat="52.263219840824604" lon="7.882959404960275">
        <ele>71.328125</ele>
        <time>2026-03-09T12:11:27Z</time>
      </trkpt>
      <trkpt lat="52.263293601572514" lon="7.88345661945641">
        <ele>70.4140625</ele>
        <time>2026-03-09T12:11:31Z</time>
      </trkpt>
      <trkpt lat="52.263358309864998" lon="7.883944613859057">
        <ele>68.8984375</ele>
        <time>2026-03-09T12:11:35Z</time>
      </trkpt>
      <trkpt lat="52.263423688709736" lon="7.884380305185914">
        <ele>67.671875</ele>
        <time>2026-03-09T12:11:39Z</time>
      </trkpt>
      <trkpt lat="52.26346249692142" lon="7.884699320420623">
        <ele>67.484375</ele>
        <time>2026-03-09T12:11:42Z</time>
      </trkpt>
      <trkpt lat="52.2635118663311" lon="7.885112296789885">
        <ele>67.1875</ele>
        <time>2026-03-09T12:11:46Z</time>
      </trkpt>
      <trkpt lat="52.263580430299044" lon="7.885530218482018">
        <ele>67.3828125</ele>
        <time>2026-03-09T12:11:50Z</time>
      </trkpt>
      <trkpt lat="52.263641450554132" lon="7.885937998071313">
        <ele>67.7265625</ele>
        <time>2026-03-09T12:11:54Z</time>
      </trkpt>
      <trkpt lat="52.263689143583179" lon="7.886338988319039">
        <ele>67.85546875</ele>
        <time>2026-03-09T12:11:58Z</time>
      </trkpt>
      <trkpt lat="52.263738429173827" lon="7.886728746816516">
        <ele>67.85546875</ele>
        <time>2026-03-09T12:12:02Z</time>
      </trkpt>
      <trkpt lat="52.263795845210552" lon="7.887133592739701">
        <ele>67.87109375</ele>
        <time>2026-03-09T12:12:06Z</time>
      </trkpt>
      <trkpt lat="52.263878993690014" lon="7.887544138357043">
        <ele>68</ele>
        <time>2026-03-09T12:12:10Z</time>
      </trkpt>
      <trkpt lat="52.263945881277323" lon="7.887977566570044">
        <ele>67.74609375</ele>
        <time>2026-03-09T12:12:14Z</time>
      </trkpt>
      <trkpt lat="52.264016540721059" lon="7.888408312574029">
        <ele>67.07421875</ele>
        <time>2026-03-09T12:12:18Z</time>
      </trkpt>
      <trkpt lat="52.264084769412875" lon="7.888827659189701">
        <ele>66.76953125</ele>
        <time>2026-03-09T12:12:22Z</time>
      </trkpt>
      <trkpt lat="52.264144700020552" lon="7.889270475134254">
        <ele>66.625</ele>
        <time>2026-03-09T12:12:26Z</time>
      </trkpt>
      <trkpt lat="52.26421007886529" lon="7.889731731265783">
        <ele>66.3515625</ele>
        <time>2026-03-09T12:12:30Z</time>
      </trkpt>
      <trkpt lat="52.264273948967457" lon="7.890175804495812">
        <ele>65.98046875</ele>
        <time>2026-03-09T12:12:34Z</time>
      </trkpt>
      <trkpt lat="52.264336058869958" lon="7.89059548638761">
        <ele>65.75</ele>
        <time>2026-03-09T12:12:38Z</time>
      </trkpt>
      <trkpt lat="52.264383500441909" lon="7.891020532697439">
        <ele>65.578125</ele>
        <time>2026-03-09T12:12:42Z</time>
      </trkpt>
      <trkpt lat="52.264408310875297" lon="7.891452871263027">
        <ele>65.75</ele>
        <time>2026-03-09T12:12:46Z</time>
      </trkpt>
      <trkpt lat="52.264402527362108" lon="7.891892585903406">
        <ele>66.0078125</ele>
        <time>2026-03-09T12:12:50Z</time>
      </trkpt>
      <trkpt lat="52.264362210407853" lon="7.892318805679679">
        <ele>66.046875</ele>
        <time>2026-03-09T12:12:54Z</time>
      </trkpt>
      <trkpt lat="52.26430437527597" lon="7.892722142860293">
        <ele>66</ele>
        <time>2026-03-09T12:12:58Z</time>
      </trkpt>
      <trkpt lat="52.264255341142416" lon="7.893108800053597">
        <ele>66</ele>
        <time>2026-03-09T12:13:02Z</time>
      </trkpt>
      <trkpt lat="52.264138581231236" lon="7.893462432548404">
        <ele>66</ele>
        <time>2026-03-09T12:13:06Z</time>
      </trkpt>
      <trkpt lat="52.264020312577486" lon="7.893776586279273">
        <ele>66.01171875</ele>
        <time>2026-03-09T12:13:10Z</time>
      </trkpt>
      <trkpt lat="52.263906570151448" lon="7.894108174368739">
        <ele>65.96875</ele>
        <time>2026-03-09T12:13:16Z</time>
      </trkpt>
      <trkpt lat="52.263902798295021" lon="7.894408497959375">
        <ele>66.125</ele>
        <time>2026-03-09T12:13:22Z</time>
      </trkpt>
      <trkpt lat="52.264013271778822" lon="7.894643945619464">
        <ele>66.69921875</ele>
        <time>2026-03-09T12:13:28Z</time>
      </trkpt>
      <trkpt lat="52.264170181006193" lon="7.894910741597414">
        <ele>67.2578125</ele>
        <time>2026-03-09T12:13:34Z</time>
      </trkpt>
      <trkpt lat="52.264298843219876" lon="7.895133616402745">
        <ele>67.54296875</ele>
        <time>2026-03-09T12:13:38Z</time>
      </trkpt>
      <trkpt lat="52.264421638101339" lon="7.895436035469174">
        <ele>67.765625</ele>
        <time>2026-03-09T12:13:42Z</time>
      </trkpt>
      <trkpt lat="52.264504367485642" lon="7.895768377929926">
        <ele>67.91015625</ele>
        <time>2026-03-09T12:13:46Z</time>
      </trkpt>
      <trkpt lat="52.264579720795155" lon="7.896126536652446">
        <ele>68.16015625</ele>
        <time>2026-03-09T12:13:50Z</time>
      </trkpt>
      <trkpt lat="52.264686841517687" lon="7.896498944610357">
        <ele>68.7265625</ele>
        <time>2026-03-09T12:13:54Z</time>
      </trkpt>
      <trkpt lat="52.264785161241889" lon="7.896887864917517">
        <ele>69.37890625</ele>
        <time>2026-03-09T12:13:58Z</time>
      </trkpt>
      <trkpt lat="52.264849031344056" lon="7.897261027246714">
        <ele>71.1953125</ele>
        <time>2026-03-09T12:14:02Z</time>
      </trkpt>
      <trkpt lat="52.264928659424186" lon="7.897644499316812">
        <ele>72.4921875</ele>
        <time>2026-03-09T12:14:06Z</time>
      </trkpt>
      <trkpt lat="52.265030415728688" lon="7.898043897002935">
        <ele>72.4609375</ele>
        <time>2026-03-09T12:14:10Z</time>
      </trkpt>
      <trkpt lat="52.265094537287951" lon="7.898456119000912">
        <ele>72.58984375</ele>
        <time>2026-03-09T12:14:14Z</time>
      </trkpt>
      <trkpt lat="52.265140051022172" lon="7.898848811164498">
        <ele>72.4296875</ele>
        <time>2026-03-09T12:14:18Z</time>
      </trkpt>
      <trkpt lat="52.26520056836307" lon="7.899214345961809">
        <ele>71.92578125</ele>
        <time>2026-03-09T12:14:22Z</time>
      </trkpt>
      <trkpt lat="52.265261504799128" lon="7.89958038367331">
        <ele>70.8828125</ele>
        <time>2026-03-09T12:14:26Z</time>
      </trkpt>
      <trkpt lat="52.265327051281929" lon="7.899985732510686">
        <ele>69.51953125</ele>
        <time>2026-03-09T12:14:30Z</time>
      </trkpt>
      <trkpt lat="52.265381282195449" lon="7.900399630889297">
        <ele>68.61328125</ele>
        <time>2026-03-09T12:14:34Z</time>
      </trkpt>
      <trkpt lat="52.265460072085261" lon="7.900799782946706">
        <ele>67.57421875</ele>
        <time>2026-03-09T12:14:38Z</time>
      </trkpt>
      <trkpt lat="52.265549087896943" lon="7.901189373806119">
        <ele>65.96484375</ele>
        <time>2026-03-09T12:14:42Z</time>
      </trkpt>
      <trkpt lat="52.265671379864216" lon="7.901567816734314">
        <ele>63.67578125</ele>
        <time>2026-03-09T12:14:46Z</time>
      </trkpt>
      <trkpt lat="52.265819739550352" lon="7.901886077597737">
        <ele>63.171875</ele>
        <time>2026-03-09T12:14:50Z</time>
      </trkpt>
      <trkpt lat="52.265963573008776" lon="7.902117585763335">
        <ele>63.2890625</ele>
        <time>2026-03-09T12:14:54Z</time>
      </trkpt>
      <trkpt lat="52.266111932694912" lon="7.902328222990036">
        <ele>63.60546875</ele>
        <time>2026-03-09T12:14:58Z</time>
      </trkpt>
      <trkpt lat="52.266261298209429" lon="7.902524275705218">
        <ele>64.09765625</ele>
        <time>2026-03-09T12:15:02Z</time>
      </trkpt>
      <trkpt lat="52.266414603218436" lon="7.902692249044776">
        <ele>64.73828125</ele>
        <time>2026-03-09T12:15:06Z</time>
      </trkpt>
      <trkpt lat="52.266633622348309" lon="7.902922499924898">
        <ele>65.57421875</ele>
        <time>2026-03-09T12:15:12Z</time>
      </trkpt>
      <trkpt lat="52.266855323687196" lon="7.903128694742918">
        <ele>66.55859375</ele>
        <time>2026-03-09T12:15:18Z</time>
      </trkpt>
      <trkpt lat="52.267074342817068" lon="7.903254926204681">
        <ele>67.59375</ele>
        <time>2026-03-09T12:15:24Z</time>
      </trkpt>
      <trkpt lat="52.267304761335254" lon="7.903356682509184">
        <ele>68.734375</ele>
        <time>2026-03-09T12:15:30Z</time>
      </trkpt>
      <trkpt lat="52.26751078851521" lon="7.903460618108511">
        <ele>69.6171875</ele>
        <time>2026-03-09T12:15:36Z</time>
      </trkpt>
      <trkpt lat="52.267744475975633" lon="7.90357637219131">
        <ele>70.59765625</ele>
        <time>2026-03-09T12:15:42Z</time>
      </trkpt>
      <trkpt lat="52.267947401851416" lon="7.903658514842391">
        <ele>71.51171875</ele>
        <time>2026-03-09T12:15:46Z</time>
      </trkpt>
      <trkpt lat="52.268155189231038" lon="7.903758343309164">
        <ele>72.578125</ele>
        <time>2026-03-09T12:15:50Z</time>
      </trkpt>
      <trkpt lat="52.268361300230026" lon="7.903897650539875">
        <ele>73.02734375</ele>
        <time>2026-03-09T12:15:54Z</time>
      </trkpt>
      <trkpt lat="52.268556347116828" lon="7.904084147885442">
        <ele>73.6875</ele>
        <time>2026-03-09T12:15:58Z</time>
      </trkpt>
      <trkpt lat="52.268735887482762" lon="7.904325546696782">
        <ele>74.6171875</ele>
        <time>2026-03-09T12:16:02Z</time>
      </trkpt>
      <trkpt lat="52.268886342644691" lon="7.904562167823315">
        <ele>75.1328125</ele>
        <time>2026-03-09T12:16:06Z</time>
      </trkpt>
      <trkpt lat="52.269014585763216" lon="7.904804572463036">
        <ele>75.6328125</ele>
        <time>2026-03-09T12:16:10Z</time>
      </trkpt>
      <trkpt lat="52.269129082560539" lon="7.90505250915885">
        <ele>76.33203125</ele>
        <time>2026-03-09T12:16:14Z</time>
      </trkpt>
      <trkpt lat="52.269239388406277" lon="7.905299188569188">
        <ele>76.73046875</ele>
        <time>2026-03-09T12:16:18Z</time>
      </trkpt>
      <trkpt lat="52.269314909353852" lon="7.905595237389207">
        <ele>76.49609375</ele>
        <time>2026-03-09T12:16:22Z</time>
      </trkpt>
      <trkpt lat="52.269328320398927" lon="7.905922215431929">
        <ele>75.98046875</ele>
        <time>2026-03-09T12:16:26Z</time>
      </trkpt>
      <trkpt lat="52.269329074770212" lon="7.906271824613214">
        <ele>75.64453125</ele>
        <time>2026-03-09T12:16:30Z</time>
      </trkpt>
      <trkpt lat="52.26933041587472" lon="7.9066092800349">
        <ele>75.41015625</ele>
        <time>2026-03-09T12:16:34Z</time>
      </trkpt>
      <trkpt lat="52.269333181902766" lon="7.906932150945067">
        <ele>75.30859375</ele>
        <time>2026-03-09T12:16:38Z</time>
      </trkpt>
      <trkpt lat="52.269338294863701" lon="7.907235408201814">
        <ele>75.53515625</ele>
        <time>2026-03-09T12:16:42Z</time>
      </trkpt>
      <trkpt lat="52.269337708130479" lon="7.907556686550379">
        <ele>75.7578125</ele>
        <time>2026-03-09T12:16:46Z</time>
      </trkpt>
      <trkpt lat="52.269337959587574" lon="7.907890873029828">
        <ele>75.8828125</ele>
        <time>2026-03-09T12:16:50Z</time>
      </trkpt>
      <trkpt lat="52.269349610432982" lon="7.908217599615455">
        <ele>75.953125</ele>
        <time>2026-03-09T12:16:54Z</time>
      </trkpt>
      <trkpt lat="52.269363692030311" lon="7.908544493839145">
        <ele>76.10546875</ele>
        <time>2026-03-09T12:16:58Z</time>
      </trkpt>
      <trkpt lat="52.269370649009943" lon="7.908851942047477">
        <ele>77.21484375</ele>
        <time>2026-03-09T12:17:02Z</time>
      </trkpt>
      <trkpt lat="52.269383054226637" lon="7.90916433557868">
        <ele>78.33984375</ele>
        <time>2026-03-09T12:17:06Z</time>
      </trkpt>
      <trkpt lat="52.269386071711779" lon="7.909487709403038">
        <ele>78.9140625</ele>
        <time>2026-03-09T12:17:10Z</time>
      </trkpt>
      <trkpt lat="52.269401829689741" lon="7.909815357998014">
        <ele>78.71875</ele>
        <time>2026-03-09T12:17:14Z</time>
      </trkpt>
      <trkpt lat="52.269423371180892" lon="7.910122722387314">
        <ele>78.55859375</ele>
        <time>2026-03-09T12:17:18Z</time>
      </trkpt>
      <trkpt lat="52.269425550475717" lon="7.910429332405329">
        <ele>78.68359375</ele>
        <time>2026-03-09T12:17:22Z</time>
      </trkpt>
      <trkpt lat="52.269442565739155" lon="7.910734266042709">
        <ele>78.9140625</ele>
        <time>2026-03-09T12:17:26Z</time>
      </trkpt>
      <trkpt lat="52.269454300403595" lon="7.911032745614648">
        <ele>79.1328125</ele>
        <time>2026-03-09T12:17:30Z</time>
      </trkpt>
      <trkpt lat="52.269467292353511" lon="7.911465419456363">
        <ele>79.3828125</ele>
        <time>2026-03-09T12:17:36Z</time>
      </trkpt>
      <trkpt lat="52.269489420577884" lon="7.911882000043988">
        <ele>79.6640625</ele>
        <time>2026-03-09T12:17:42Z</time>
      </trkpt>
      <trkpt lat="52.2695058491081" lon="7.912281481549144">
        <ele>80.34375</ele>
        <time>2026-03-09T12:17:48Z</time>
      </trkpt>
      <trkpt lat="52.269515069201589" lon="7.912716418504715">
        <ele>81.02734375</ele>
        <time>2026-03-09T12:17:54Z</time>
      </trkpt>
      <trkpt lat="52.269526300951838" lon="7.913139117881656">
        <ele>81.359375</ele>
        <time>2026-03-09T12:18:00Z</time>
      </trkpt>
      <trkpt lat="52.269545830786228" lon="7.913517644628882">
        <ele>81.6875</ele>
        <time>2026-03-09T12:18:06Z</time>
      </trkpt>
      <trkpt lat="52.269551027566195" lon="7.913839844986796">
        <ele>82.46484375</ele>
        <time>2026-03-09T12:18:12Z</time>
      </trkpt>
      <trkpt lat="52.269754037261009" lon="7.913955599069595">
        <ele>82.98828125</ele>
        <time>2026-03-09T12:18:18Z</time>
      </trkpt>
      <trkpt lat="52.269956292584538" lon="7.91396020911634">
        <ele>83.31640625</ele>
        <time>2026-03-09T12:18:22Z</time>
      </trkpt>
      <trkpt lat="52.27016600780189" lon="7.91398074477911">
        <ele>83.7265625</ele>
        <time>2026-03-09T12:18:26Z</time>
      </trkpt>
      <trkpt lat="52.270313864573836" lon="7.914138827472925">
        <ele>84.24609375</ele>
        <time>2026-03-09T12:18:30Z</time>
      </trkpt>
      <trkpt lat="52.270295508205891" lon="7.914560856297612">
        <ele>84.53515625</ele>
        <time>2026-03-09T12:18:36Z</time>
      </trkpt>
      <trkpt lat="52.270295927301049" lon="7.914865706115961">
        <ele>84.48046875</ele>
        <time>2026-03-09T12:18:40Z</time>
      </trkpt>
      <trkpt lat="52.270300202071667" lon="7.91520475409925">
        <ele>84.37109375</ele>
        <time>2026-03-09T12:18:44Z</time>
      </trkpt>
      <trkpt lat="52.270304393023252" lon="7.915573306381702">
        <ele>83.6640625</ele>
        <time>2026-03-09T12:18:48Z</time>
      </trkpt>
      <trkpt lat="52.270311014726758" lon="7.915955018252134">
        <ele>82.92578125</ele>
        <time>2026-03-09T12:18:52Z</time>
      </trkpt>
      <trkpt lat="52.270313110202551" lon="7.916365647688508">
        <ele>82.640625</ele>
        <time>2026-03-09T12:18:56Z</time>
      </trkpt>
      <trkpt lat="52.270315205678344" lon="7.916756914928556">
        <ele>82.4453125</ele>
        <time>2026-03-09T12:19:00Z</time>
      </trkpt>
      <trkpt lat="52.270320570096374" lon="7.917158072814345">
        <ele>82.01953125</ele>
        <time>2026-03-09T12:19:04Z</time>
      </trkpt>
      <trkpt lat="52.270329371094704" lon="7.917526038363576">
        <ele>81.56640625</ele>
        <time>2026-03-09T12:19:08Z</time>
      </trkpt>
      <trkpt lat="52.270340016111732" lon="7.917880592867732">
        <ele>81.28125</ele>
        <time>2026-03-09T12:19:12Z</time>
      </trkpt>
      <trkpt lat="52.270342027768493" lon="7.918236907571554">
        <ele>81.12109375</ele>
        <time>2026-03-09T12:19:16Z</time>
      </trkpt>
      <trkpt lat="52.270341189578176" lon="7.918611075729132">
        <ele>81.109375</ele>
        <time>2026-03-09T12:19:20Z</time>
      </trkpt>
      <trkpt lat="52.270343117415905" lon="7.918963534757495">
        <ele>81.484375</ele>
        <time>2026-03-09T12:19:24Z</time>
      </trkpt>
      <trkpt lat="52.270354265347123" lon="7.919292440637946">
        <ele>81.875</ele>
        <time>2026-03-09T12:19:28Z</time>
      </trkpt>
      <trkpt lat="52.270355019718409" lon="7.91963123716414">
        <ele>81.58203125</ele>
        <time>2026-03-09T12:19:32Z</time>
      </trkpt>
      <trkpt lat="52.270373292267323" lon="7.919950755313039">
        <ele>81.265625</ele>
        <time>2026-03-09T12:19:36Z</time>
      </trkpt>
      <trkpt lat="52.270382093265653" lon="7.920310841873288">
        <ele>80.86328125</ele>
        <time>2026-03-09T12:19:40Z</time>
      </trkpt>
      <trkpt lat="52.270382679998875" lon="7.920686434954405">
        <ele>80.4140625</ele>
        <time>2026-03-09T12:19:44Z</time>
      </trkpt>
      <trkpt lat="52.270391648635268" lon="7.921077031642199">
        <ele>80.0625</ele>
        <time>2026-03-09T12:19:48Z</time>
      </trkpt>
      <trkpt lat="52.270390558987856" lon="7.921459833160043">
        <ele>80.05859375</ele>
        <time>2026-03-09T12:19:52Z</time>
      </trkpt>
      <trkpt lat="52.270407658070326" lon="7.921823440119624">
        <ele>80.12109375</ele>
        <time>2026-03-09T12:19:56Z</time>
      </trkpt>
      <trkpt lat="52.270581498742104" lon="7.922030221670866">
        <ele>80.74609375</ele>
        <time>2026-03-09T12:20:00Z</time>
      </trkpt>
      <trkpt lat="52.270794482901692" lon="7.922117980197072">
        <ele>81.2265625</ele>
        <time>2026-03-09T12:20:04Z</time>
      </trkpt>
      <trkpt lat="52.270988188683987" lon="7.922222083434463">
        <ele>81.58984375</ele>
        <time>2026-03-09T12:20:08Z</time>
      </trkpt>
      <trkpt lat="52.271164879202843" lon="7.922343369573355">
        <ele>81.98828125</ele>
        <time>2026-03-09T12:20:12Z</time>
      </trkpt>
      <trkpt lat="52.271340228617191" lon="7.92247362434864">
        <ele>82.45703125</ele>
        <time>2026-03-09T12:20:16Z</time>
      </trkpt>
      <trkpt lat="52.271524798125029" lon="7.922611087560654">
        <ele>82.78515625</ele>
        <time>2026-03-09T12:20:20Z</time>
      </trkpt>
      <trkpt lat="52.271713642403483" lon="7.922770762816072">
        <ele>81.94140625</ele>
        <time>2026-03-09T12:20:24Z</time>
      </trkpt>
      <trkpt lat="52.271913969889283" lon="7.922920798882842">
        <ele>80.859375</ele>
        <time>2026-03-09T12:20:28Z</time>
      </trkpt>
      <trkpt lat="52.272105161100626" lon="7.923090448603034">
        <ele>79.76171875</ele>
        <time>2026-03-09T12:20:32Z</time>
      </trkpt>
      <trkpt lat="52.272260058671236" lon="7.923358334228396">
        <ele>78.5625</ele>
        <time>2026-03-09T12:20:36Z</time>
      </trkpt>
      <trkpt lat="52.272401377558708" lon="7.923656813800335">
        <ele>77.65625</ele>
        <time>2026-03-09T12:20:40Z</time>
      </trkpt>
      <trkpt lat="52.272550910711288" lon="7.923949845135212">
        <ele>77.08203125</ele>
        <time>2026-03-09T12:20:44Z</time>
      </trkpt>
      <trkpt lat="52.272755010053515" lon="7.92413642629981">
        <ele>76.8828125</ele>
        <time>2026-03-09T12:20:48Z</time>
      </trkpt>
      <trkpt lat="52.273000599816442" lon="7.924228878691793">
        <ele>76.9765625</ele>
        <time>2026-03-09T12:20:52Z</time>
      </trkpt>
      <trkpt lat="52.273200424388051" lon="7.92428445070982">
        <ele>77.00390625</ele>
        <time>2026-03-09T12:20:56Z</time>
      </trkpt>
      <trkpt lat="52.273392369970679" lon="7.924456782639027">
        <ele>76.80859375</ele>
        <time>2026-03-09T12:21:12Z</time>
      </trkpt>
      <trkpt lat="52.273567719385028" lon="7.924532219767571">
        <ele>76.61328125</ele>
        <time>2026-03-09T12:21:16Z</time>
      </trkpt>
      <trkpt lat="52.273779446259141" lon="7.92458058334887">
        <ele>76.31640625</ele>
        <time>2026-03-09T12:21:20Z</time>
      </trkpt>
      <trkpt lat="52.27400366216898" lon="7.924694158136845">
        <ele>75.92578125</ele>
        <time>2026-03-09T12:21:24Z</time>
      </trkpt>
      <trkpt lat="52.274257550016046" lon="7.924840170890093">
        <ele>75.01171875</ele>
        <time>2026-03-09T12:21:28Z</time>
      </trkpt>
      <trkpt lat="52.274512862786651" lon="7.925013341009617">
        <ele>74.09375</ele>
        <time>2026-03-09T12:21:32Z</time>
      </trkpt>
      <trkpt lat="52.274752920493484" lon="7.925216434523463">
        <ele>73.328125</ele>
        <time>2026-03-09T12:21:36Z</time>
      </trkpt>
      <trkpt lat="52.274990798905492" lon="7.925402680411935">
        <ele>73.078125</ele>
        <time>2026-03-09T12:21:40Z</time>
      </trkpt>
      <trkpt lat="52.275209398940206" lon="7.925585405901074">
        <ele>72.81640625</ele>
        <time>2026-03-09T12:21:44Z</time>
      </trkpt>
      <trkpt lat="52.275454150512815" lon="7.925796126946807">
        <ele>72.39453125</ele>
        <time>2026-03-09T12:21:48Z</time>
      </trkpt>
      <trkpt lat="52.275702087208629" lon="7.92599419131875">
        <ele>71.796875</ele>
        <time>2026-03-09T12:21:52Z</time>
      </trkpt>
      <trkpt lat="52.275949101895094" lon="7.926163002848625">
        <ele>71.30078125</ele>
        <time>2026-03-09T12:21:56Z</time>
      </trkpt>
      <trkpt lat="52.276192428544164" lon="7.92639140971005">
        <ele>70.97265625</ele>
        <time>2026-03-09T12:22:00Z</time>
      </trkpt>
      <trkpt lat="52.276443550363183" lon="7.926591234281659">
        <ele>70.546875</ele>
        <time>2026-03-09T12:22:04Z</time>
      </trkpt>
      <trkpt lat="52.276686960831285" lon="7.926815114915371">
        <ele>70.4609375</ele>
        <time>2026-03-09T12:22:08Z</time>
      </trkpt>
      <trkpt lat="52.276946380734444" lon="7.926987865939736">
        <ele>69.984375</ele>
        <time>2026-03-09T12:22:12Z</time>
      </trkpt>
      <trkpt lat="52.277207309380174" lon="7.927152402698994">
        <ele>69.5859375</ele>
        <time>2026-03-09T12:22:16Z</time>
      </trkpt>
      <trkpt lat="52.277448205277324" lon="7.927309814840555">
        <ele>69.15625</ele>
        <time>2026-03-09T12:22:20Z</time>
      </trkpt>
      <trkpt lat="52.277674684301019" lon="7.92748499661684">
        <ele>68.578125</ele>
        <time>2026-03-09T12:22:24Z</time>
      </trkpt>
      <trkpt lat="52.277919268235564" lon="7.927685407921672">
        <ele>67.84765625</ele>
        <time>2026-03-09T12:22:28Z</time>
      </trkpt>
      <trkpt lat="52.278000991791487" lon="7.928062928840518">
        <ele>68.3046875</ele>
        <time>2026-03-09T12:22:32Z</time>
      </trkpt>
      <trkpt lat="52.277991268783808" lon="7.928440282121301">
        <ele>69.06640625</ele>
        <time>2026-03-09T12:22:36Z</time>
      </trkpt>
      <trkpt lat="52.277965620160103" lon="7.928749155253172">
        <ele>69.74609375</ele>
        <time>2026-03-09T12:22:40Z</time>
      </trkpt>
      <trkpt lat="52.278061844408512" lon="7.92900706641376">
        <ele>70.25390625</ele>
        <time>2026-03-09T12:22:46Z</time>
      </trkpt>
      <trkpt lat="52.278244821354747" lon="7.929054340347648">
        <ele>70.24609375</ele>
        <time>2026-03-09T12:22:50Z</time>
      </trkpt>
      <trkpt lat="52.278485130518675" lon="7.929151654243469">
        <ele>70.2421875</ele>
        <time>2026-03-09T12:22:54Z</time>
      </trkpt>
      <trkpt lat="52.278725858777761" lon="7.929228600114584">
        <ele>70.13671875</ele>
        <time>2026-03-09T12:22:58Z</time>
      </trkpt>
      <trkpt lat="52.278976812958717" lon="7.929318454116583">
        <ele>69.984375</ele>
        <time>2026-03-09T12:23:02Z</time>
      </trkpt>
      <trkpt lat="52.279206560924649" lon="7.929421300068498">
        <ele>69.0546875</ele>
        <time>2026-03-09T12:23:06Z</time>
      </trkpt>
      <trkpt lat="52.27946950122714" lon="7.929506292566657">
        <ele>67.91015625</ele>
        <time>2026-03-09T12:23:10Z</time>
      </trkpt>
      <trkpt lat="52.279719198122621" lon="7.929588435217738">
        <ele>66.765625</ele>
        <time>2026-03-09T12:23:14Z</time>
      </trkpt>
      <trkpt lat="52.279978198930621" lon="7.929632188752294">
        <ele>66.2890625</ele>
        <time>2026-03-09T12:23:18Z</time>
      </trkpt>
      <trkpt lat="52.280272822827101" lon="7.929703686386347">
        <ele>66.1171875</ele>
        <time>2026-03-09T12:23:22Z</time>
      </trkpt>
      <trkpt lat="52.280540456995368" lon="7.929775351658464">
        <ele>65.9453125</ele>
        <time>2026-03-09T12:23:26Z</time>
      </trkpt>
      <trkpt lat="52.280796188861132" lon="7.929829666391015">
        <ele>65.9609375</ele>
        <time>2026-03-09T12:23:30Z</time>
      </trkpt>
      <trkpt lat="52.281051920726895" lon="7.929869648069143">
        <ele>66.06640625</ele>
        <time>2026-03-09T12:23:34Z</time>
      </trkpt>
      <trkpt lat="52.28131502866745" lon="7.929905354976654">
        <ele>66.13671875</ele>
        <time>2026-03-09T12:23:38Z</time>
      </trkpt>
      <trkpt lat="52.281574364751577" lon="7.929874174296856">
        <ele>66.3984375</ele>
        <time>2026-03-09T12:23:42Z</time>
      </trkpt>
      <trkpt lat="52.281820038333535" lon="7.929708464071155">
        <ele>66.671875</ele>
        <time>2026-03-09T12:23:46Z</time>
      </trkpt>
      <trkpt lat="52.282057581469417" lon="7.929513165727258">
        <ele>66.25390625</ele>
        <time>2026-03-09T12:23:50Z</time>
      </trkpt>
      <trkpt lat="52.282315408810973" lon="7.929400177672505">
        <ele>65.18359375</ele>
        <time>2026-03-09T12:23:54Z</time>
      </trkpt>
      <trkpt lat="52.282583629712462" lon="7.929429095238447">
        <ele>67.07421875</ele>
        <time>2026-03-09T12:23:58Z</time>
      </trkpt>
      <trkpt lat="52.282833075150847" lon="7.929488187655807">
        <ele>68.78125</ele>
        <time>2026-03-09T12:24:02Z</time>
      </trkpt>
      <trkpt lat="52.283053351566195" lon="7.929532360285521">
        <ele>70.1875</ele>
        <time>2026-03-09T12:24:06Z</time>
      </trkpt>
      <trkpt lat="52.283243369311094" lon="7.929557003080845">
        <ele>70.3125</ele>
        <time>2026-03-09T12:24:10Z</time>
      </trkpt>
      <trkpt lat="52.283460628241301" lon="7.92961391620338">
        <ele>69.2734375</ele>
        <time>2026-03-09T12:24:14Z</time>
      </trkpt>
      <trkpt lat="52.283717365935445" lon="7.929710475727916">
        <ele>67.8671875</ele>
        <time>2026-03-09T12:24:18Z</time>
      </trkpt>
      <trkpt lat="52.284009559080005" lon="7.929739309474826">
        <ele>66.5078125</ele>
        <time>2026-03-09T12:24:22Z</time>
      </trkpt>
      <trkpt lat="52.284281551837921" lon="7.929816339164972">
        <ele>65.90234375</ele>
        <time>2026-03-09T12:24:26Z</time>
      </trkpt>
      <trkpt lat="52.284539630636573" lon="7.929885992780328">
        <ele>65.33984375</ele>
        <time>2026-03-09T12:24:30Z</time>
      </trkpt>
      <trkpt lat="52.284764181822538" lon="7.92991784401238">
        <ele>64.95703125</ele>
        <time>2026-03-09T12:24:34Z</time>
      </trkpt>
      <trkpt lat="52.285006167367101" lon="7.929932428523898">
        <ele>64.6484375</ele>
        <time>2026-03-09T12:24:38Z</time>
      </trkpt>
      <trkpt lat="52.285258630290627" lon="7.929997723549604">
        <ele>64.28515625</ele>
        <time>2026-03-09T12:24:42Z</time>
      </trkpt>
      <trkpt lat="52.285496341064572" lon="7.930068634450436">
        <ele>64.0625</ele>
        <time>2026-03-09T12:24:46Z</time>
      </trkpt>
      <trkpt lat="52.285717707127333" lon="7.930139293894172">
        <ele>63.91015625</ele>
        <time>2026-03-09T12:24:50Z</time>
      </trkpt>
      <trkpt lat="52.2859369777143" lon="7.930185478180647">
        <ele>63.66796875</ele>
        <time>2026-03-09T12:24:54Z</time>
      </trkpt>
      <trkpt lat="52.286154152825475" lon="7.930237278342247">
        <ele>63.46875</ele>
        <time>2026-03-09T12:24:58Z</time>
      </trkpt>
      <trkpt lat="52.286373591050506" lon="7.930286731570959">
        <ele>63.265625</ele>
        <time>2026-03-09T12:25:02Z</time>
      </trkpt>
      <trkpt lat="52.286584731191397" lon="7.930343225598335">
        <ele>63.3125</ele>
        <time>2026-03-09T12:25:06Z</time>
      </trkpt>
      <trkpt lat="52.28676863014698" lon="7.930393433198333">
        <ele>63.52734375</ele>
        <time>2026-03-09T12:25:10Z</time>
      </trkpt>
      <trkpt lat="52.286969712004066" lon="7.930581858381629">
        <ele>63.796875</ele>
        <time>2026-03-09T12:25:16Z</time>
      </trkpt>
      <trkpt lat="52.286962838843465" lon="7.93092543259263">
        <ele>63.9609375</ele>
        <time>2026-03-09T12:25:20Z</time>
      </trkpt>
      <trkpt lat="52.286955462768674" lon="7.931284513324499">
        <ele>64.53515625</ele>
        <time>2026-03-09T12:25:24Z</time>
      </trkpt>
      <trkpt lat="52.286965101957321" lon="7.931661950424314">
        <ele>65.26171875</ele>
        <time>2026-03-09T12:25:28Z</time>
      </trkpt>
      <trkpt lat="52.286983290687203" lon="7.932013487443328">
        <ele>65.7421875</ele>
        <time>2026-03-09T12:25:32Z</time>
      </trkpt>
      <trkpt lat="52.286996869370341" lon="7.932328647002578">
        <ele>65.99609375</ele>
        <time>2026-03-09T12:25:36Z</time>
      </trkpt>
      <trkpt lat="52.287015141919255" lon="7.932647662237287">
        <ele>66.28125</ele>
        <time>2026-03-09T12:25:40Z</time>
      </trkpt>
      <trkpt lat="52.287030396983027" lon="7.932955529540777">
        <ele>66.33203125</ele>
        <time>2026-03-09T12:25:44Z</time>
      </trkpt>
      <trkpt lat="52.287047244608402" lon="7.933293823152781">
        <ele>66.37109375</ele>
        <time>2026-03-09T12:25:48Z</time>
      </trkpt>
      <trkpt lat="52.287056380882859" lon="7.933654244989157">
        <ele>66.5078125</ele>
        <time>2026-03-09T12:25:52Z</time>
      </trkpt>
      <trkpt lat="52.287072222679853" lon="7.934018857777119">
        <ele>66.78515625</ele>
        <time>2026-03-09T12:25:56Z</time>
      </trkpt>
      <trkpt lat="52.287091920152307" lon="7.934382716193795">
        <ele>67.1796875</ele>
        <time>2026-03-09T12:26:00Z</time>
      </trkpt>
      <trkpt lat="52.287105498835444" lon="7.934742970392108">
        <ele>68.48046875</ele>
        <time>2026-03-09T12:26:04Z</time>
      </trkpt>
      <trkpt lat="52.287125531584024" lon="7.935090316459537">
        <ele>69.73046875</ele>
        <time>2026-03-09T12:26:08Z</time>
      </trkpt>
      <trkpt lat="52.287152772769332" lon="7.935393992811441">
        <ele>70.37890625</ele>
        <time>2026-03-09T12:26:12Z</time>
      </trkpt>
      <trkpt lat="52.28729928843677" lon="7.93572667054832">
        <ele>70.6875</ele>
        <time>2026-03-09T12:26:18Z</time>
      </trkpt>
      <trkpt lat="52.287509255111217" lon="7.935814093798399">
        <ele>69.38671875</ele>
        <time>2026-03-09T12:26:22Z</time>
      </trkpt>
      <trkpt lat="52.28774000890553" lon="7.935836473479867">
        <ele>67.796875</ele>
        <time>2026-03-09T12:26:26Z</time>
      </trkpt>
      <trkpt lat="52.288004541769624" lon="7.935785595327616">
        <ele>65.94140625</ele>
        <time>2026-03-09T12:26:30Z</time>
      </trkpt>
      <trkpt lat="52.288254909217358" lon="7.935696328058839">
        <ele>64.640625</ele>
        <time>2026-03-09T12:26:34Z</time>
      </trkpt>
      <trkpt lat="52.288503097370267" lon="7.935615358874202">
        <ele>63.89453125</ele>
        <time>2026-03-09T12:26:38Z</time>
      </trkpt>
      <trkpt lat="52.288765031844378" lon="7.935670595616102">
        <ele>63.046875</ele>
        <time>2026-03-09T12:26:42Z</time>
      </trkpt>
      <trkpt lat="52.288977513089776" lon="7.93581660836935">
        <ele>62.2109375</ele>
        <time>2026-03-09T12:26:46Z</time>
      </trkpt>
      <trkpt lat="52.289143977686763" lon="7.935983575880528">
        <ele>61.80859375</ele>
        <time>2026-03-09T12:26:52Z</time>
      </trkpt>
      <trkpt lat="52.289290241897106" lon="7.936154901981354">
        <ele>61.69140625</ele>
        <time>2026-03-09T12:27:26Z</time>
      </trkpt>
      <trkpt lat="52.289435667917132" lon="7.936373502016068">
        <ele>61.6953125</ele>
        <time>2026-03-09T12:27:40Z</time>
      </trkpt>
      <trkpt lat="52.289555780589581" lon="7.936597717925906">
        <ele>61.8046875</ele>
        <time>2026-03-09T12:43:49Z</time>
      </trkpt>
      <trkpt lat="52.289737164974213" lon="7.936763009056449">
        <ele>61.92578125</ele>
        <time>2026-03-09T12:44:11Z</time>
      </trkpt>
      <trkpt lat="52.289925338700414" lon="7.936804667115212">
        <ele>61.828125</ele>
        <time>2026-03-09T12:44:17Z</time>
      </trkpt>
      <trkpt lat="52.290181489661336" lon="7.936832495033741">
        <ele>61.55078125</ele>
        <time>2026-03-09T12:44:23Z</time>
      </trkpt>
      <trkpt lat="52.290361281484365" lon="7.936853701248765">
        <ele>61.3515625</ele>
        <time>2026-03-09T12:44:27Z</time>
      </trkpt>
      <trkpt lat="52.290559345856309" lon="7.936853785067797">
        <ele>61.12109375</ele>
        <time>2026-03-09T12:44:31Z</time>
      </trkpt>
      <trkpt lat="52.290820442140102" lon="7.936876751482487">
        <ele>61.0546875</ele>
        <time>2026-03-09T12:44:37Z</time>
      </trkpt>
      <trkpt lat="52.291007610037923" lon="7.936921929940581">
        <ele>61.109375</ele>
        <time>2026-03-09T12:44:41Z</time>
      </trkpt>
      <trkpt lat="52.291198885068297" lon="7.936960989609361">
        <ele>61.15625</ele>
        <time>2026-03-09T12:44:45Z</time>
      </trkpt>
      <trkpt lat="52.291383789852262" lon="7.937011867761612">
        <ele>61.21875</ele>
        <time>2026-03-09T12:44:49Z</time>
      </trkpt>
      <trkpt lat="52.291614962741733" lon="7.937164502218366">
        <ele>61.46875</ele>
        <time>2026-03-09T12:44:55Z</time>
      </trkpt>
      <trkpt lat="52.29158797301352" lon="7.937481757253408">
        <ele>61.890625</ele>
        <time>2026-03-09T12:44:59Z</time>
      </trkpt>
      <trkpt lat="52.291542626917362" lon="7.937825163826346">
        <ele>62.0859375</ele>
        <time>2026-03-09T12:45:03Z</time>
      </trkpt>
      <trkpt lat="52.291510859504342" lon="7.938150549307466">
        <ele>62.046875</ele>
        <time>2026-03-09T12:45:07Z</time>
      </trkpt>
      <trkpt lat="52.291478924453259" lon="7.938488759100437">
        <ele>62.0078125</ele>
        <time>2026-03-09T12:45:11Z</time>
      </trkpt>
      <trkpt lat="52.291451515629888" lon="7.938828812912107">
        <ele>62.390625</ele>
        <time>2026-03-09T12:45:15Z</time>
      </trkpt>
      <trkpt lat="52.291422849521041" lon="7.939182529225946">
        <ele>62.7734375</ele>
        <time>2026-03-09T12:45:19Z</time>
      </trkpt>
      <trkpt lat="52.291396278887987" lon="7.939558876678348">
        <ele>62.91015625</ele>
        <time>2026-03-09T12:45:23Z</time>
      </trkpt>
      <trkpt lat="52.291371216997504" lon="7.939958609640598">
        <ele>62.87890625</ele>
        <time>2026-03-09T12:45:27Z</time>
      </trkpt>
      <trkpt lat="52.291339030489326" lon="7.940339231863618">
        <ele>63.05078125</ele>
        <time>2026-03-09T12:45:31Z</time>
      </trkpt>
      <trkpt lat="52.291346406564116" lon="7.940710466355085">
        <ele>63.5078125</ele>
        <time>2026-03-09T12:45:35Z</time>
      </trkpt>
      <trkpt lat="52.291308771818876" lon="7.941155042499304">
        <ele>63.76171875</ele>
        <time>2026-03-09T12:45:39Z</time>
      </trkpt>
      <trkpt lat="52.291258899495006" lon="7.941568940877914">
        <ele>63.76171875</ele>
        <time>2026-03-09T12:45:43Z</time>
      </trkpt>
      <trkpt lat="52.291176589205861" lon="7.942008906975389">
        <ele>63.78515625</ele>
        <time>2026-03-09T12:45:47Z</time>
      </trkpt>
      <trkpt lat="52.291120681911707" lon="7.942414591088891">
        <ele>63.453125</ele>
        <time>2026-03-09T12:45:51Z</time>
      </trkpt>
      <trkpt lat="52.291045999154449" lon="7.942797979339957">
        <ele>63.0625</ele>
        <time>2026-03-09T12:45:55Z</time>
      </trkpt>
      <trkpt lat="52.29099964722991" lon="7.943187737837434">
        <ele>61.85546875</ele>
        <time>2026-03-09T12:45:59Z</time>
      </trkpt>
      <trkpt lat="52.290975507348776" lon="7.943623345345259">
        <ele>60.4765625</ele>
        <time>2026-03-09T12:46:03Z</time>
      </trkpt>
      <trkpt lat="52.290999060496688" lon="7.944034980610013">
        <ele>59.40625</ele>
        <time>2026-03-09T12:46:07Z</time>
      </trkpt>
      <trkpt lat="52.291052285581827" lon="7.944434629753232">
        <ele>58.44921875</ele>
        <time>2026-03-09T12:46:11Z</time>
      </trkpt>
      <trkpt lat="52.291107270866632" lon="7.944831261411309">
        <ele>58.05078125</ele>
        <time>2026-03-09T12:46:15Z</time>
      </trkpt>
      <trkpt lat="52.291145911440253" lon="7.945170225575566">
        <ele>57.8046875</ele>
        <time>2026-03-09T12:46:19Z</time>
      </trkpt>
      <trkpt lat="52.291164519265294" lon="7.945557972416282">
        <ele>58.51953125</ele>
        <time>2026-03-09T12:46:25Z</time>
      </trkpt>
      <trkpt lat="52.291336599737406" lon="7.945720413699746">
        <ele>58.56640625</ele>
        <time>2026-03-09T12:46:29Z</time>
      </trkpt>
      <trkpt lat="52.291555283591151" lon="7.945856368169189">
        <ele>59.0390625</ele>
        <time>2026-03-09T12:46:33Z</time>
      </trkpt>
      <trkpt lat="52.29173893108964" lon="7.945979665964842">
        <ele>60.2421875</ele>
        <time>2026-03-09T12:46:37Z</time>
      </trkpt>
      <trkpt lat="52.291923919692636" lon="7.946099527180195">
        <ele>61.16796875</ele>
        <time>2026-03-09T12:46:41Z</time>
      </trkpt>
      <trkpt lat="52.292106142267585" lon="7.946213940158486">
        <ele>62.04296875</ele>
        <time>2026-03-09T12:46:45Z</time>
      </trkpt>
      <trkpt lat="52.292308062314987" lon="7.946313684806228">
        <ele>63</ele>
        <time>2026-03-09T12:46:49Z</time>
      </trkpt>
      <trkpt lat="52.292521381750703" lon="7.946418626233935">
        <ele>63.0078125</ele>
        <time>2026-03-09T12:46:53Z</time>
      </trkpt>
      <trkpt lat="52.292744172737002" lon="7.946560196578503">
        <ele>63.19140625</ele>
        <time>2026-03-09T12:46:57Z</time>
      </trkpt>
      <trkpt lat="52.29296394623816" lon="7.946710316464305">
        <ele>63.57421875</ele>
        <time>2026-03-09T12:47:01Z</time>
      </trkpt>
      <trkpt lat="52.293105097487569" lon="7.947046849876642">
        <ele>64.2265625</ele>
        <time>2026-03-09T12:47:05Z</time>
      </trkpt>
      <trkpt lat="52.293086322024465" lon="7.94749042019248">
        <ele>64.73828125</ele>
        <time>2026-03-09T12:47:09Z</time>
      </trkpt>
      <trkpt lat="52.293050028383732" lon="7.947874227538705">
        <ele>64.89453125</ele>
        <time>2026-03-09T12:47:13Z</time>
      </trkpt>
      <trkpt lat="52.29299571365118" lon="7.948191901668906">
        <ele>64.828125</ele>
        <time>2026-03-09T12:47:17Z</time>
      </trkpt>
      <trkpt lat="52.292934693396091" lon="7.948523573577404">
        <ele>64.74609375</ele>
        <time>2026-03-09T12:47:21Z</time>
      </trkpt>
      <trkpt lat="52.292844420298934" lon="7.948844349011779">
        <ele>64.49609375</ele>
        <time>2026-03-09T12:47:25Z</time>
      </trkpt>
      <trkpt lat="52.292677368968725" lon="7.949108462780714">
        <ele>64.03515625</ele>
        <time>2026-03-09T12:47:29Z</time>
      </trkpt>
      <trkpt lat="52.292517861351371" lon="7.94938581995666">
        <ele>63.66015625</ele>
        <time>2026-03-09T12:47:33Z</time>
      </trkpt>
      <trkpt lat="52.292370088398457" lon="7.949672983959317">
        <ele>63.99609375</ele>
        <time>2026-03-09T12:47:37Z</time>
      </trkpt>
      <trkpt lat="52.292233379557729" lon="7.949968278408051">
        <ele>64.421875</ele>
        <time>2026-03-09T12:47:41Z</time>
      </trkpt>
      <trkpt lat="52.292098766192794" lon="7.950287880375981">
        <ele>65.1484375</ele>
        <time>2026-03-09T12:47:45Z</time>
      </trkpt>
      <trkpt lat="52.291927440091968" lon="7.950541097670794">
        <ele>65.890625</ele>
        <time>2026-03-09T12:47:49Z</time>
      </trkpt>
      <trkpt lat="52.291801460087299" lon="7.950815269723535">
        <ele>66.9375</ele>
        <time>2026-03-09T12:47:53Z</time>
      </trkpt>
      <trkpt lat="52.29176583699882" lon="7.951163705438376">
        <ele>67.7109375</ele>
        <time>2026-03-09T12:47:57Z</time>
      </trkpt>
      <trkpt lat="52.291783690452576" lon="7.951478362083435">
        <ele>67.7734375</ele>
        <time>2026-03-09T12:48:01Z</time>
      </trkpt>
      <trkpt lat="52.291828785091639" lon="7.951783379539847">
        <ele>67.7109375</ele>
        <time>2026-03-09T12:48:05Z</time>
      </trkpt>
      <trkpt lat="52.291879998520017" lon="7.952113961800933">
        <ele>68.0546875</ele>
        <time>2026-03-09T12:48:09Z</time>
      </trkpt>
      <trkpt lat="52.291912687942386" lon="7.952469186857343">
        <ele>68.6015625</ele>
        <time>2026-03-09T12:48:13Z</time>
      </trkpt>
      <trkpt lat="52.291926015168428" lon="7.952827261760831">
        <ele>69.0234375</ele>
        <time>2026-03-09T12:48:17Z</time>
      </trkpt>
      <trkpt lat="52.29192023165524" lon="7.953163543716073">
        <ele>69.25390625</ele>
        <time>2026-03-09T12:48:21Z</time>
      </trkpt>
      <trkpt lat="52.291896929964423" lon="7.953503597527742">
        <ele>69.47265625</ele>
        <time>2026-03-09T12:48:25Z</time>
      </trkpt>
      <trkpt lat="52.291887877508998" lon="7.953833090141416">
        <ele>69.0859375</ele>
        <time>2026-03-09T12:48:31Z</time>
      </trkpt>
      <trkpt lat="52.291951831430197" lon="7.954212790355086">
        <ele>68.68359375</ele>
        <time>2026-03-09T12:48:37Z</time>
      </trkpt>
      <trkpt lat="52.29197395965457" lon="7.954646721482277">
        <ele>69.1484375</ele>
        <time>2026-03-09T12:48:43Z</time>
      </trkpt>
      <trkpt lat="52.291987454518676" lon="7.954957606270909">
        <ele>69.67578125</ele>
        <time>2026-03-09T12:48:47Z</time>
      </trkpt>
      <trkpt lat="52.292020311579108" lon="7.955396650359035">
        <ele>71.453125</ele>
        <time>2026-03-09T12:48:53Z</time>
      </trkpt>
      <trkpt lat="52.292054425925016" lon="7.955688424408436">
        <ele>73.27734375</ele>
        <time>2026-03-09T12:48:57Z</time>
      </trkpt>
      <trkpt lat="52.292138244956732" lon="7.95600819401443">
        <ele>75.49609375</ele>
        <time>2026-03-09T12:49:03Z</time>
      </trkpt>
      <trkpt lat="52.292245449498296" lon="7.956284293904901">
        <ele>77.16796875</ele>
        <time>2026-03-09T12:49:09Z</time>
      </trkpt>
      <trkpt lat="52.292327340692282" lon="7.956561902537942">
        <ele>78.7578125</ele>
        <time>2026-03-09T12:49:15Z</time>
      </trkpt>
      <trkpt lat="52.292401771992445" lon="7.956881923601031">
        <ele>80.3984375</ele>
        <time>2026-03-09T12:49:21Z</time>
      </trkpt>
      <trkpt lat="52.29248165152967" lon="7.957178391516209">
        <ele>82.34375</ele>
        <time>2026-03-09T12:49:27Z</time>
      </trkpt>
      <trkpt lat="52.292564129456878" lon="7.957514002919197">
        <ele>84.6953125</ele>
        <time>2026-03-09T12:49:33Z</time>
      </trkpt>
      <trkpt lat="52.292606709524989" lon="7.957804938778281">
        <ele>86.14453125</ele>
        <time>2026-03-09T12:49:37Z</time>
      </trkpt>
      <trkpt lat="52.292649038136005" lon="7.958176005631685">
        <ele>87.1953125</ele>
        <time>2026-03-09T12:49:41Z</time>
      </trkpt>
      <trkpt lat="52.292713578790426" lon="7.958495188504458">
        <ele>87.98828125</ele>
        <time>2026-03-09T12:49:45Z</time>
      </trkpt>
      <trkpt lat="52.292780047282577" lon="7.958893580362201">
        <ele>87.64453125</ele>
        <time>2026-03-09T12:49:51Z</time>
      </trkpt>
      <trkpt lat="52.292832350358367" lon="7.959228102117777">
        <ele>87.58203125</ele>
        <time>2026-03-09T12:49:57Z</time>
      </trkpt>
      <trkpt lat="52.292892783880234" lon="7.95960838906467">
        <ele>87.86328125</ele>
        <time>2026-03-09T12:50:03Z</time>
      </trkpt>
      <trkpt lat="52.292973501607776" lon="7.960005523636937">
        <ele>88.546875</ele>
        <time>2026-03-09T12:50:09Z</time>
      </trkpt>
      <trkpt lat="52.293051620945334" lon="7.96038237400353">
        <ele>89.9765625</ele>
        <time>2026-03-09T12:50:15Z</time>
      </trkpt>
      <trkpt lat="52.293111719191074" lon="7.960798032581806">
        <ele>91.45703125</ele>
        <time>2026-03-09T12:50:21Z</time>
      </trkpt>
      <trkpt lat="52.293130662292242" lon="7.961151665076613">
        <ele>92.39453125</ele>
        <time>2026-03-09T12:50:25Z</time>
      </trkpt>
      <trkpt lat="52.293152119964361" lon="7.961449725553393">
        <ele>93.08203125</ele>
        <time>2026-03-09T12:50:29Z</time>
      </trkpt>
      <trkpt lat="52.293159328401089" lon="7.961880471557379">
        <ele>93.98046875</ele>
        <time>2026-03-09T12:50:35Z</time>
      </trkpt>
      <trkpt lat="52.29312471114099" lon="7.962249610573053">
        <ele>94.0234375</ele>
        <time>2026-03-09T12:50:41Z</time>
      </trkpt>
      <trkpt lat="52.293079867959023" lon="7.962615061551333">
        <ele>94.13671875</ele>
        <time>2026-03-09T12:50:47Z</time>
      </trkpt>
      <trkpt lat="52.293034689500928" lon="7.962902896106243">
        <ele>93.1796875</ele>
        <time>2026-03-09T12:50:51Z</time>
      </trkpt>
      <trkpt lat="52.29303183965385" lon="7.963292235508561">
        <ele>91.54296875</ele>
        <time>2026-03-09T12:50:57Z</time>
      </trkpt>
      <trkpt lat="52.293052291497588" lon="7.963667828589678">
        <ele>90.5234375</ele>
        <time>2026-03-09T12:51:03Z</time>
      </trkpt>
      <trkpt lat="52.29308171197772" lon="7.964090025052428">
        <ele>90.03515625</ele>
        <time>2026-03-09T12:51:09Z</time>
      </trkpt>
      <trkpt lat="52.293067211285233" lon="7.964449608698487">
        <ele>90.1875</ele>
        <time>2026-03-09T12:51:15Z</time>
      </trkpt>
      <trkpt lat="52.293059499934316" lon="7.964742975309491">
        <ele>91.3125</ele>
        <time>2026-03-09T12:51:19Z</time>
      </trkpt>
      <trkpt lat="52.293046759441495" lon="7.965134074911475">
        <ele>92.83984375</ele>
        <time>2026-03-09T12:51:25Z</time>
      </trkpt>
      <trkpt lat="52.293035360053182" lon="7.965529784560204">
        <ele>94.42578125</ele>
        <time>2026-03-09T12:51:31Z</time>
      </trkpt>
      <trkpt lat="52.293042568489909" lon="7.965826252475381">
        <ele>95.61328125</ele>
        <time>2026-03-09T12:51:35Z</time>
      </trkpt>
      <trkpt lat="52.293005688115954" lon="7.96623126603663">
        <ele>96.4140625</ele>
        <time>2026-03-09T12:51:41Z</time>
      </trkpt>
      <trkpt lat="52.292976099997759" lon="7.966645667329431">
        <ele>96.69921875</ele>
        <time>2026-03-09T12:51:47Z</time>
      </trkpt>
      <trkpt lat="52.2929497808218" lon="7.967011453583837">
        <ele>96.71875</ele>
        <time>2026-03-09T12:51:53Z</time>
      </trkpt>
      <trkpt lat="52.292947098612785" lon="7.967393752187491">
        <ele>96.37890625</ele>
        <time>2026-03-09T12:51:59Z</time>
      </trkpt>
      <trkpt lat="52.292939554899931" lon="7.967751994729042">
        <ele>96.3203125</ele>
        <time>2026-03-09T12:52:07Z</time>
      </trkpt>
      <trkpt lat="52.292848192155361" lon="7.967956513166428">
        <ele>97.11328125</ele>
        <time>2026-03-09T12:52:25Z</time>
      </trkpt>
      <trkpt lat="52.292867721989751" lon="7.968247532844544">
        <ele>97.34765625</ele>
        <time>2026-03-09T12:52:31Z</time>
      </trkpt>
      <trkpt lat="52.292870320379734" lon="7.968632429838181">
        <ele>98.421875</ele>
        <time>2026-03-09T12:52:37Z</time>
      </trkpt>
      <trkpt lat="52.292867470532656" lon="7.969042723998427">
        <ele>100.58984375</ele>
        <time>2026-03-09T12:52:43Z</time>
      </trkpt>
      <trkpt lat="52.292876103892922" lon="7.969426028430462">
        <ele>101.96484375</ele>
        <time>2026-03-09T12:52:49Z</time>
      </trkpt>
      <trkpt lat="52.29288674890995" lon="7.969813104718924">
        <ele>101.875</ele>
        <time>2026-03-09T12:52:55Z</time>
      </trkpt>
      <trkpt lat="52.29289747774601" lon="7.970148716121912">
        <ele>101.82421875</ele>
        <time>2026-03-09T12:53:01Z</time>
      </trkpt>
      <trkpt lat="52.292883228510618" lon="7.970494637265801">
        <ele>100.25390625</ele>
        <time>2026-03-09T12:53:07Z</time>
      </trkpt>
      <trkpt lat="52.292865458875895" lon="7.970814155414701">
        <ele>98.75</ele>
        <time>2026-03-09T12:53:13Z</time>
      </trkpt>
      <trkpt lat="52.292870990931988" lon="7.971199974417687">
        <ele>97.3671875</ele>
        <time>2026-03-09T12:53:19Z</time>
      </trkpt>
      <trkpt lat="52.29289554990828" lon="7.971603563055396">
        <ele>96.30859375</ele>
        <time>2026-03-09T12:53:24Z</time>
      </trkpt>
      <trkpt lat="52.292915750294924" lon="7.971970522776246">
        <ele>95.52734375</ele>
        <time>2026-03-09T12:53:28Z</time>
      </trkpt>
      <trkpt lat="52.292937627062201" lon="7.972352234646678">
        <ele>94.92578125</ele>
        <time>2026-03-09T12:53:32Z</time>
      </trkpt>
      <trkpt lat="52.292968221008778" lon="7.972737969830632">
        <ele>94.2265625</ele>
        <time>2026-03-09T12:53:36Z</time>
      </trkpt>
      <trkpt lat="52.292999066412449" lon="7.973184054717422">
        <ele>92.87890625</ele>
        <time>2026-03-09T12:53:40Z</time>
      </trkpt>
      <trkpt lat="52.293036449700594" lon="7.973703816533089">
        <ele>91.046875</ele>
        <time>2026-03-09T12:53:44Z</time>
      </trkpt>
      <trkpt lat="52.293090261518955" lon="7.97427068464458">
        <ele>88.77734375</ele>
        <time>2026-03-09T12:53:48Z</time>
      </trkpt>
      <trkpt lat="52.293139463290572" lon="7.97486680559814">
        <ele>86.984375</ele>
        <time>2026-03-09T12:53:52Z</time>
      </trkpt>
      <trkpt lat="52.293186150491238" lon="7.975189089775085">
        <ele>85.6015625</ele>
        <time>2026-03-09T12:53:54Z</time>
      </trkpt>
      <trkpt lat="52.293208027258515" lon="7.975512882694602">
        <ele>83.671875</ele>
        <time>2026-03-09T12:53:56Z</time>
      </trkpt>
      <trkpt lat="52.293214481323957" lon="7.975835166871548">
        <ele>81.80078125</ele>
        <time>2026-03-09T12:53:58Z</time>
      </trkpt>
      <trkpt lat="52.293193275108933" lon="7.976151248440146">
        <ele>80.1328125</ele>
        <time>2026-03-09T12:54:00Z</time>
      </trkpt>
      <trkpt lat="52.293165028095245" lon="7.976472778245807">
        <ele>78.58203125</ele>
        <time>2026-03-09T12:54:02Z</time>
      </trkpt>
      <trkpt lat="52.293141642585397" lon="7.976803947240114">
        <ele>77.0078125</ele>
        <time>2026-03-09T12:54:04Z</time>
      </trkpt>
      <trkpt lat="52.293113898485899" lon="7.9771120660007">
        <ele>76.34375</ele>
        <time>2026-03-09T12:54:06Z</time>
      </trkpt>
      <trkpt lat="52.293085819110274" lon="7.977435188367963">
        <ele>75.6328125</ele>
        <time>2026-03-09T12:54:08Z</time>
      </trkpt>
      <trkpt lat="52.293058829382062" lon="7.977750096470118">
        <ele>75.1640625</ele>
        <time>2026-03-09T12:54:10Z</time>
      </trkpt>
      <trkpt lat="52.293011471629143" lon="7.978341104462743">
        <ele>75.046875</ele>
        <time>2026-03-09T12:54:14Z</time>
      </trkpt>
      <trkpt lat="52.293010130524635" lon="7.978873439133167">
        <ele>75.2578125</ele>
        <time>2026-03-09T12:54:18Z</time>
      </trkpt>
      <trkpt lat="52.293032929301262" lon="7.979308040812612">
        <ele>75.61328125</ele>
        <time>2026-03-09T12:54:22Z</time>
      </trkpt>
      <trkpt lat="52.29308464564383" lon="7.979720933362842">
        <ele>74.90625</ele>
        <time>2026-03-09T12:54:26Z</time>
      </trkpt>
      <trkpt lat="52.293140888214111" lon="7.980080265551806">
        <ele>74.14453125</ele>
        <time>2026-03-09T12:54:30Z</time>
      </trkpt>
      <trkpt lat="52.2932243719697" lon="7.980422750115395">
        <ele>73.48828125</ele>
        <time>2026-03-09T12:54:34Z</time>
      </trkpt>
      <trkpt lat="52.293320428580046" lon="7.980748554691672">
        <ele>72.80859375</ele>
        <time>2026-03-09T12:54:38Z</time>
      </trkpt>
      <trkpt lat="52.293368792161345" lon="7.981033371761441">
        <ele>72.03125</ele>
        <time>2026-03-09T12:54:42Z</time>
      </trkpt>
      <trkpt lat="52.293317830190063" lon="7.981320787221193">
        <ele>70.86328125</ele>
        <time>2026-03-09T12:54:46Z</time>
      </trkpt>
      <trkpt lat="52.293191598728299" lon="7.981608873233199">
        <ele>69.71484375</ele>
        <time>2026-03-09T12:54:50Z</time>
      </trkpt>
      <trkpt lat="52.293053213506937" lon="7.9819714743644">
        <ele>68.6796875</ele>
        <time>2026-03-09T12:54:54Z</time>
      </trkpt>
      <trkpt lat="52.292959503829479" lon="7.982402388006449">
        <ele>67.62109375</ele>
        <time>2026-03-09T12:54:58Z</time>
      </trkpt>
      <trkpt lat="52.292944919317961" lon="7.982851071283221">
        <ele>66.68359375</ele>
        <time>2026-03-09T12:55:02Z</time>
      </trkpt>
      <trkpt lat="52.292951960116625" lon="7.983307968825102">
        <ele>66.01171875</ele>
        <time>2026-03-09T12:55:06Z</time>
      </trkpt>
      <trkpt lat="52.292964030057192" lon="7.983765201643109">
        <ele>65.078125</ele>
        <time>2026-03-09T12:55:10Z</time>
      </trkpt>
      <trkpt lat="52.292975848540664" lon="7.984227882698178">
        <ele>63.984375</ele>
        <time>2026-03-09T12:55:14Z</time>
      </trkpt>
      <trkpt lat="52.292998898774385" lon="7.984669441357255">
        <ele>63.390625</ele>
        <time>2026-03-09T12:55:18Z</time>
      </trkpt>
      <trkpt lat="52.293008202686906" lon="7.985106892883778">
        <ele>62.87890625</ele>
        <time>2026-03-09T12:55:22Z</time>
      </trkpt>
      <trkpt lat="52.293005520477891" lon="7.985547780990601">
        <ele>62.76171875</ele>
        <time>2026-03-09T12:55:26Z</time>
      </trkpt>
      <trkpt lat="52.292993785813451" lon="7.985981209203601">
        <ele>62.6796875</ele>
        <time>2026-03-09T12:55:30Z</time>
      </trkpt>
      <trkpt lat="52.292954893782735" lon="7.98638965934515">
        <ele>63.3515625</ele>
        <time>2026-03-09T12:55:34Z</time>
      </trkpt>
      <trkpt lat="52.292908290401101" lon="7.986781429499388">
        <ele>63.86328125</ele>
        <time>2026-03-09T12:55:38Z</time>
      </trkpt>
      <trkpt lat="52.292860681191087" lon="7.987124333158135">
        <ele>65.22265625</ele>
        <time>2026-03-09T12:55:42Z</time>
      </trkpt>
      <trkpt lat="52.292841318994761" lon="7.987426165491343">
        <ele>66.578125</ele>
        <time>2026-03-09T12:55:46Z</time>
      </trkpt>
      <trkpt lat="52.292830673977733" lon="7.987744007259607">
        <ele>67.01953125</ele>
        <time>2026-03-09T12:55:50Z</time>
      </trkpt>
      <trkpt lat="52.292792201042175" lon="7.98806662671268">
        <ele>65.51171875</ele>
        <time>2026-03-09T12:55:54Z</time>
      </trkpt>
      <trkpt lat="52.292763702571392" lon="7.988455379381776">
        <ele>63.94140625</ele>
        <time>2026-03-09T12:55:58Z</time>
      </trkpt>
      <trkpt lat="52.292693210765719" lon="7.98884061165154">
        <ele>62.9609375</ele>
        <time>2026-03-09T12:56:02Z</time>
      </trkpt>
      <trkpt lat="52.292648702859879" lon="7.989197345450521">
        <ele>62.05859375</ele>
        <time>2026-03-09T12:56:06Z</time>
      </trkpt>
      <trkpt lat="52.292631519958377" lon="7.989527005702257">
        <ele>62.75390625</ele>
        <time>2026-03-09T12:56:10Z</time>
      </trkpt>
      <trkpt lat="52.292620204389095" lon="7.989834034815431">
        <ele>64.03515625</ele>
        <time>2026-03-09T12:56:14Z</time>
      </trkpt>
      <trkpt lat="52.292578127235174" lon="7.990137208253145">
        <ele>65.375</ele>
        <time>2026-03-09T12:56:18Z</time>
      </trkpt>
      <trkpt lat="52.292543342337012" lon="7.990433173254132">
        <ele>67.03125</ele>
        <time>2026-03-09T12:56:22Z</time>
      </trkpt>
      <trkpt lat="52.292516520246863" lon="7.990728216245771">
        <ele>68.7109375</ele>
        <time>2026-03-09T12:56:26Z</time>
      </trkpt>
      <trkpt lat="52.292439993470907" lon="7.991041699424386">
        <ele>70.26171875</ele>
        <time>2026-03-09T12:56:30Z</time>
      </trkpt>
      <trkpt lat="52.292355000972748" lon="7.991324756294489">
        <ele>70.328125</ele>
        <time>2026-03-09T12:56:34Z</time>
      </trkpt>
      <trkpt lat="52.292314600199461" lon="7.991632875055075">
        <ele>70.15234375</ele>
        <time>2026-03-09T12:56:38Z</time>
      </trkpt>
      <trkpt lat="52.292268332093954" lon="7.991944346576929">
        <ele>69.79296875</ele>
        <time>2026-03-09T12:56:42Z</time>
      </trkpt>
      <trkpt lat="52.292221058160067" lon="7.992274342104793">
        <ele>68.859375</ele>
        <time>2026-03-09T12:56:46Z</time>
      </trkpt>
      <trkpt lat="52.292169760912657" lon="7.992592351511121">
        <ele>67.81640625</ele>
        <time>2026-03-09T12:56:50Z</time>
      </trkpt>
      <trkpt lat="52.292109411209822" lon="7.992913126945496">
        <ele>67.44140625</ele>
        <time>2026-03-09T12:56:54Z</time>
      </trkpt>
      <trkpt lat="52.292073620483279" lon="7.993229795247316">
        <ele>66.9921875</ele>
        <time>2026-03-09T12:56:58Z</time>
      </trkpt>
      <trkpt lat="52.292030788958073" lon="7.993546295911074">
        <ele>66.76171875</ele>
        <time>2026-03-09T12:57:02Z</time>
      </trkpt>
      <trkpt lat="52.291973708197474" lon="7.993883918970823">
        <ele>67.203125</ele>
        <time>2026-03-09T12:57:06Z</time>
      </trkpt>
      <trkpt lat="52.291929619386792" lon="7.994202179834247">
        <ele>67.4765625</ele>
        <time>2026-03-09T12:57:10Z</time>
      </trkpt>
      <trkpt lat="52.29186792857945" lon="7.994558662176132">
        <ele>68.12109375</ele>
        <time>2026-03-09T12:57:14Z</time>
      </trkpt>
      <trkpt lat="52.291815960779786" lon="7.994927633553743">
        <ele>69.0625</ele>
        <time>2026-03-09T12:57:18Z</time>
      </trkpt>
      <trkpt lat="52.2917599696666" lon="7.995303645730019">
        <ele>69.51171875</ele>
        <time>2026-03-09T12:57:22Z</time>
      </trkpt>
      <trkpt lat="52.291724598035216" lon="7.995680663734675">
        <ele>69.296875</ele>
        <time>2026-03-09T12:57:26Z</time>
      </trkpt>
      <trkpt lat="52.291698781773448" lon="7.996025159955025">
        <ele>69.0859375</ele>
        <time>2026-03-09T12:57:30Z</time>
      </trkpt>
      <trkpt lat="52.291650250554085" lon="7.996380552649498">
        <ele>68.75</ele>
        <time>2026-03-09T12:57:34Z</time>
      </trkpt>
      <trkpt lat="52.291593421250582" lon="7.996760085225105">
        <ele>68.46484375</ele>
        <time>2026-03-09T12:57:38Z</time>
      </trkpt>
      <trkpt lat="52.291522342711687" lon="7.997124530375004">
        <ele>67.24609375</ele>
        <time>2026-03-09T12:57:42Z</time>
      </trkpt>
      <trkpt lat="52.291461657732725" lon="7.997493334114552">
        <ele>65.74609375</ele>
        <time>2026-03-09T12:57:46Z</time>
      </trkpt>
      <trkpt lat="52.291390411555767" lon="7.997870100662112">
        <ele>66.38671875</ele>
        <time>2026-03-09T12:57:50Z</time>
      </trkpt>
      <trkpt lat="52.291337102651596" lon="7.998238569125533">
        <ele>67.57421875</ele>
        <time>2026-03-09T12:57:54Z</time>
      </trkpt>
      <trkpt lat="52.291281865909696" lon="7.998590357601643">
        <ele>69.21875</ele>
        <time>2026-03-09T12:57:58Z</time>
      </trkpt>
      <trkpt lat="52.291221348568797" lon="7.998947091400623">
        <ele>71.66796875</ele>
        <time>2026-03-09T12:58:02Z</time>
      </trkpt>
      <trkpt lat="52.291181199252605" lon="7.999305166304112">
        <ele>73.69140625</ele>
        <time>2026-03-09T12:58:06Z</time>
      </trkpt>
      <trkpt lat="52.291155550628901" lon="7.99965888261795">
        <ele>74.76953125</ele>
        <time>2026-03-09T12:58:10Z</time>
      </trkpt>
      <trkpt lat="52.291105007752776" lon="8.00000287592411">
        <ele>75.7421875</ele>
        <time>2026-03-09T12:58:14Z</time>
      </trkpt>
      <trkpt lat="52.291046837344766" lon="8.000340331345797">
        <ele>76.76171875</ele>
        <time>2026-03-09T12:58:18Z</time>
      </trkpt>
      <trkpt lat="52.291001072153449" lon="8.000665633007884">
        <ele>77.984375</ele>
        <time>2026-03-09T12:58:22Z</time>
      </trkpt>
      <trkpt lat="52.29095421731472" lon="8.00096788443625">
        <ele>79.22265625</ele>
        <time>2026-03-09T12:58:26Z</time>
      </trkpt>
      <trkpt lat="52.290897807106376" lon="8.001267118379474">
        <ele>78.640625</ele>
        <time>2026-03-09T12:58:30Z</time>
      </trkpt>
      <trkpt lat="52.290876936167479" lon="8.001583367586136">
        <ele>77.9296875</ele>
        <time>2026-03-09T12:58:34Z</time>
      </trkpt>
      <trkpt lat="52.290823124349117" lon="8.001893414184451">
        <ele>76.82421875</ele>
        <time>2026-03-09T12:58:38Z</time>
      </trkpt>
      <trkpt lat="52.290763193741441" lon="8.002178901806474">
        <ele>74.91015625</ele>
        <time>2026-03-09T12:58:42Z</time>
      </trkpt>
      <trkpt lat="52.290696641430259" lon="8.002500431612134">
        <ele>72.75390625</ele>
        <time>2026-03-09T12:58:46Z</time>
      </trkpt>
      <trkpt lat="52.290628999471664" lon="8.002820368856192">
        <ele>71.3203125</ele>
        <time>2026-03-09T12:58:50Z</time>
      </trkpt>
      <trkpt lat="52.290550712496042" lon="8.003149777650833">
        <ele>70.38671875</ele>
        <time>2026-03-09T12:58:54Z</time>
      </trkpt>
      <trkpt lat="52.290464630350471" lon="8.003487903624773">
        <ele>69.70703125</ele>
        <time>2026-03-09T12:58:58Z</time>
      </trkpt>
      <trkpt lat="52.290378296747804" lon="8.003844134509563">
        <ele>70.87109375</ele>
        <time>2026-03-09T12:59:02Z</time>
      </trkpt>
      <trkpt lat="52.290307134389877" lon="8.004215369001031">
        <ele>72.01953125</ele>
        <time>2026-03-09T12:59:06Z</time>
      </trkpt>
      <trkpt lat="52.290231948718429" lon="8.004571264609695">
        <ele>72.3046875</ele>
        <time>2026-03-09T12:59:10Z</time>
      </trkpt>
      <trkpt lat="52.2901626303792" lon="8.004923555999994">
        <ele>72.28125</ele>
        <time>2026-03-09T12:59:14Z</time>
      </trkpt>
      <trkpt lat="52.290078559890389" lon="8.005280792713165">
        <ele>72.02734375</ele>
        <time>2026-03-09T12:59:18Z</time>
      </trkpt>
      <trkpt lat="52.289998177438974" lon="8.00562696531415">
        <ele>71.28125</ele>
        <time>2026-03-09T12:59:22Z</time>
      </trkpt>
      <trkpt lat="52.289895582944155" lon="8.00597095862031">
        <ele>70.23828125</ele>
        <time>2026-03-09T12:59:26Z</time>
      </trkpt>
      <trkpt lat="52.289812099188566" lon="8.006318723782897">
        <ele>70.45703125</ele>
        <time>2026-03-09T12:59:30Z</time>
      </trkpt>
      <trkpt lat="52.289737667888403" lon="8.006675373762846">
        <ele>70.578125</ele>
        <time>2026-03-09T12:59:34Z</time>
      </trkpt>
      <trkpt lat="52.289647646248341" lon="8.00702934153378">
        <ele>70.5234375</ele>
        <time>2026-03-09T12:59:38Z</time>
      </trkpt>
      <trkpt lat="52.289541531354189" lon="8.007379537448287">
        <ele>70.43359375</ele>
        <time>2026-03-09T12:59:42Z</time>
      </trkpt>
      <trkpt lat="52.289423011243343" lon="8.007745491340756">
        <ele>70.14453125</ele>
        <time>2026-03-09T12:59:46Z</time>
      </trkpt>
      <trkpt lat="52.289323769509792" lon="8.008090239018202">
        <ele>69.76953125</ele>
        <time>2026-03-09T12:59:50Z</time>
      </trkpt>
      <trkpt lat="52.2892059199512" lon="8.008403889834881">
        <ele>69.53125</ele>
        <time>2026-03-09T12:59:54Z</time>
      </trkpt>
      <trkpt lat="52.289101984351873" lon="8.008713852614164">
        <ele>69.2578125</ele>
        <time>2026-03-09T12:59:58Z</time>
      </trkpt>
      <trkpt lat="52.288986230269074" lon="8.008970003575087">
        <ele>69.01953125</ele>
        <time>2026-03-09T13:00:02Z</time>
      </trkpt>
      <trkpt lat="52.288856897503138" lon="8.009266555309296">
        <ele>69.27734375</ele>
        <time>2026-03-09T13:00:06Z</time>
      </trkpt>
      <trkpt lat="52.288749106228352" lon="8.009589090943337">
        <ele>69.5390625</ele>
        <time>2026-03-09T13:00:10Z</time>
      </trkpt>
      <trkpt lat="52.288664197549224" lon="8.009902741760016">
        <ele>69.74609375</ele>
        <time>2026-03-09T13:00:14Z</time>
      </trkpt>
      <trkpt lat="52.288567805662751" lon="8.010235251858831">
        <ele>69.9765625</ele>
        <time>2026-03-09T13:00:18Z</time>
      </trkpt>
      <trkpt lat="52.288471581414342" lon="8.010553680360317">
        <ele>70.20703125</ele>
        <time>2026-03-09T13:00:22Z</time>
      </trkpt>
      <trkpt lat="52.288371501490474" lon="8.010860290378332">
        <ele>70.4453125</ele>
        <time>2026-03-09T13:00:26Z</time>
      </trkpt>
      <trkpt lat="52.288289191201329" lon="8.011145107448101">
        <ele>70.6875</ele>
        <time>2026-03-09T13:00:30Z</time>
      </trkpt>
      <trkpt lat="52.28818223811686" lon="8.011388434097171">
        <ele>70.92578125</ele>
        <time>2026-03-09T13:00:34Z</time>
      </trkpt>
      <trkpt lat="52.288070591166615" lon="8.011739049106836">
        <ele>70.75390625</ele>
        <time>2026-03-09T13:00:40Z</time>
      </trkpt>
      <trkpt lat="52.288043517619371" lon="8.012053538113833">
        <ele>70.1171875</ele>
        <time>2026-03-09T13:00:44Z</time>
      </trkpt>
      <trkpt lat="52.288005128502846" lon="8.0123729724437">
        <ele>69.4453125</ele>
        <time>2026-03-09T13:00:48Z</time>
      </trkpt>
      <trkpt lat="52.287961039692163" lon="8.012769604101777">
        <ele>68.79296875</ele>
        <time>2026-03-09T13:00:54Z</time>
      </trkpt>
      <trkpt lat="52.287888368591666" lon="8.013185765594244">
        <ele>68.46484375</ele>
        <time>2026-03-09T13:01:00Z</time>
      </trkpt>
      <trkpt lat="52.287845620885491" lon="8.013473097234964">
        <ele>68.41796875</ele>
        <time>2026-03-09T13:01:04Z</time>
      </trkpt>
      <trkpt lat="52.287804717198014" lon="8.013792363926768">
        <ele>68.6171875</ele>
        <time>2026-03-09T13:01:10Z</time>
      </trkpt>
      <trkpt lat="52.287755431607366" lon="8.014205759391189">
        <ele>68.8515625</ele>
        <time>2026-03-09T13:01:18Z</time>
      </trkpt>
      <trkpt lat="52.287700027227402" lon="8.014597445726395">
        <ele>68.91796875</ele>
        <time>2026-03-09T13:01:24Z</time>
      </trkpt>
      <trkpt lat="52.287665577605367" lon="8.014893410727382">
        <ele>68.8671875</ele>
        <time>2026-03-09T13:01:28Z</time>
      </trkpt>
      <trkpt lat="52.287609418854117" lon="8.015319965779781">
        <ele>69.4921875</ele>
        <time>2026-03-09T13:01:34Z</time>
      </trkpt>
      <trkpt lat="52.287541776895523" lon="8.015753645449877">
        <ele>70.90234375</ele>
        <time>2026-03-09T13:01:40Z</time>
      </trkpt>
      <trkpt lat="52.287496933713555" lon="8.01604843698442">
        <ele>71.73046875</ele>
        <time>2026-03-09T13:01:44Z</time>
      </trkpt>
      <trkpt lat="52.287475056946278" lon="8.016359405592084">
        <ele>72.38671875</ele>
        <time>2026-03-09T13:01:48Z</time>
      </trkpt>
      <trkpt lat="52.287475727498531" lon="8.016658974811435">
        <ele>72.9609375</ele>
        <time>2026-03-09T13:01:52Z</time>
      </trkpt>
      <trkpt lat="52.287457287311554" lon="8.017113693058491">
        <ele>73.9375</ele>
        <time>2026-03-09T13:01:58Z</time>
      </trkpt>
      <trkpt lat="52.287431973963976" lon="8.017441090196371">
        <ele>74.75390625</ele>
        <time>2026-03-09T13:02:02Z</time>
      </trkpt>
      <trkpt lat="52.287393752485514" lon="8.017780808731914">
        <ele>75.1875</ele>
        <time>2026-03-09T13:02:06Z</time>
      </trkpt>
      <trkpt lat="52.287354441359639" lon="8.018133938312531">
        <ele>75.046875</ele>
        <time>2026-03-09T13:02:10Z</time>
      </trkpt>
      <trkpt lat="52.287269113585353" lon="8.01851212978363">
        <ele>74.75</ele>
        <time>2026-03-09T13:02:14Z</time>
      </trkpt>
      <trkpt lat="52.287202309817076" lon="8.018914544954896">
        <ele>73.1015625</ele>
        <time>2026-03-09T13:02:18Z</time>
      </trkpt>
      <trkpt lat="52.287146234884858" lon="8.019314277917147">
        <ele>71.72265625</ele>
        <time>2026-03-09T13:02:22Z</time>
      </trkpt>
      <trkpt lat="52.287092171609402" lon="8.019716525450349">
        <ele>71.2421875</ele>
        <time>2026-03-09T13:02:26Z</time>
      </trkpt>
      <trkpt lat="52.287041461095214" lon="8.020128663629293">
        <ele>70.625</ele>
        <time>2026-03-09T13:02:30Z</time>
      </trkpt>
      <trkpt lat="52.287003826349974" lon="8.020528564229608">
        <ele>70.18359375</ele>
        <time>2026-03-09T13:02:34Z</time>
      </trkpt>
      <trkpt lat="52.286972561851144" lon="8.02089904434979">
        <ele>69.6640625</ele>
        <time>2026-03-09T13:02:38Z</time>
      </trkpt>
      <trkpt lat="52.286925371736288" lon="8.021292993798852">
        <ele>68.70703125</ele>
        <time>2026-03-09T13:02:42Z</time>
      </trkpt>
      <trkpt lat="52.286886731162667" lon="8.021649643778801">
        <ele>67.8046875</ele>
        <time>2026-03-09T13:02:46Z</time>
      </trkpt>
      <trkpt lat="52.286851610988379" lon="8.022048538550735">
        <ele>67.3046875</ele>
        <time>2026-03-09T13:02:50Z</time>
      </trkpt>
      <trkpt lat="52.286826968193054" lon="8.022422036156058">
        <ele>67.09765625</ele>
        <time>2026-03-09T13:02:54Z</time>
      </trkpt>
      <trkpt lat="52.286795703694224" lon="8.02279544994235">
        <ele>67.13671875</ele>
        <time>2026-03-09T13:02:58Z</time>
      </trkpt>
      <trkpt lat="52.286760918796062" lon="8.02318437024951">
        <ele>67.453125</ele>
        <time>2026-03-09T13:03:02Z</time>
      </trkpt>
      <trkpt lat="52.286717081442475" lon="8.02354252897203">
        <ele>67.66015625</ele>
        <time>2026-03-09T13:03:06Z</time>
      </trkpt>
      <trkpt lat="52.286672741174698" lon="8.023890629410744">
        <ele>67.48046875</ele>
        <time>2026-03-09T13:03:10Z</time>
      </trkpt>
      <trkpt lat="52.286636028438807" lon="8.024251805618405">
        <ele>67.2109375</ele>
        <time>2026-03-09T13:03:14Z</time>
      </trkpt>
      <trkpt lat="52.286600908264518" lon="8.024598145857453">
        <ele>67.3046875</ele>
        <time>2026-03-09T13:03:18Z</time>
      </trkpt>
      <trkpt lat="52.286586659029126" lon="8.024957561865449">
        <ele>67.515625</ele>
        <time>2026-03-09T13:03:22Z</time>
      </trkpt>
      <trkpt lat="52.286559669300914" lon="8.025306416675448">
        <ele>68.09765625</ele>
        <time>2026-03-09T13:03:26Z</time>
      </trkpt>
      <trkpt lat="52.286518597975373" lon="8.02560162730515">
        <ele>68.93359375</ele>
        <time>2026-03-09T13:03:30Z</time>
      </trkpt>
      <trkpt lat="52.286478532478213" lon="8.025926426053047">
        <ele>69.9375</ele>
        <time>2026-03-09T13:03:34Z</time>
      </trkpt>
      <trkpt lat="52.286476939916611" lon="8.026238568127155">
        <ele>69.28125</ele>
        <time>2026-03-09T13:03:38Z</time>
      </trkpt>
      <trkpt lat="52.286469312384725" lon="8.026545094326139">
        <ele>68.56640625</ele>
        <time>2026-03-09T13:03:42Z</time>
      </trkpt>
      <trkpt lat="52.286468390375376" lon="8.026846591383219">
        <ele>67.84765625</ele>
        <time>2026-03-09T13:03:46Z</time>
      </trkpt>
      <trkpt lat="52.286455649882555" lon="8.027164516970515">
        <ele>67.125</ele>
        <time>2026-03-09T13:03:50Z</time>
      </trkpt>
      <trkpt lat="52.286497391760349" lon="8.027453189715743">
        <ele>66.3125</ele>
        <time>2026-03-09T13:03:58Z</time>
      </trkpt>
      <trkpt lat="52.286490853875875" lon="8.027795925736427">
        <ele>65.96484375</ele>
        <time>2026-03-09T13:04:16Z</time>
      </trkpt>
      <trkpt lat="52.286436287686229" lon="8.028173614293337">
        <ele>66.171875</ele>
        <time>2026-03-09T13:04:20Z</time>
      </trkpt>
      <trkpt lat="52.286355569958687" lon="8.028512829914689">
        <ele>66.8203125</ele>
        <time>2026-03-09T13:04:24Z</time>
      </trkpt>
      <trkpt lat="52.286266135051847" lon="8.028835114091635">
        <ele>68.3046875</ele>
        <time>2026-03-09T13:04:28Z</time>
      </trkpt>
      <trkpt lat="52.286188770085573" lon="8.029196877032518">
        <ele>69.78515625</ele>
        <time>2026-03-09T13:04:32Z</time>
      </trkpt>
      <trkpt lat="52.286109728738666" lon="8.029557801783085">
        <ele>70.31640625</ele>
        <time>2026-03-09T13:04:36Z</time>
      </trkpt>
      <trkpt lat="52.2860337048769" lon="8.029922666028142">
        <ele>70.58984375</ele>
        <time>2026-03-09T13:04:40Z</time>
      </trkpt>
      <trkpt lat="52.285968158394098" lon="8.030297504737973">
        <ele>70.73828125</ele>
        <time>2026-03-09T13:04:44Z</time>
      </trkpt>
      <trkpt lat="52.285886686295271" lon="8.030641078948975">
        <ele>70.93359375</ele>
        <time>2026-03-09T13:04:48Z</time>
      </trkpt>
      <trkpt lat="52.285796832293272" lon="8.030975433066487">
        <ele>71.25390625</ele>
        <time>2026-03-09T13:04:52Z</time>
      </trkpt>
      <trkpt lat="52.285732962191105" lon="8.031289167702198">
        <ele>71.51953125</ele>
        <time>2026-03-09T13:04:56Z</time>
      </trkpt>
      <trkpt lat="52.285668672993779" lon="8.031607763841748">
        <ele>71.8515625</ele>
        <time>2026-03-09T13:05:00Z</time>
      </trkpt>
      <trkpt lat="52.285597510635853" lon="8.031940022483468">
        <ele>71.8984375</ele>
        <time>2026-03-09T13:05:04Z</time>
      </trkpt>
      <trkpt lat="52.285506902262568" lon="8.032235819846392">
        <ele>71.6796875</ele>
        <time>2026-03-09T13:05:08Z</time>
      </trkpt>
      <trkpt lat="52.285420149564743" lon="8.032545279711485">
        <ele>71.359375</ele>
        <time>2026-03-09T13:05:12Z</time>
      </trkpt>
      <trkpt lat="52.285311939194798" lon="8.03285825997591">
        <ele>70.546875</ele>
        <time>2026-03-09T13:05:16Z</time>
      </trkpt>
      <trkpt lat="52.285170368850231" lon="8.033182555809617">
        <ele>69.9765625</ele>
        <time>2026-03-09T13:05:20Z</time>
      </trkpt>
      <trkpt lat="52.285109013319016" lon="8.033541301265359">
        <ele>69.0703125</ele>
        <time>2026-03-09T13:05:24Z</time>
      </trkpt>
      <trkpt lat="52.284910948947072" lon="8.033802816644311">
        <ele>68.765625</ele>
        <time>2026-03-09T13:05:28Z</time>
      </trkpt>
      <trkpt lat="52.28464649990201" lon="8.033982189372182">
        <ele>69.56640625</ele>
        <time>2026-03-09T13:05:32Z</time>
      </trkpt>
      <trkpt lat="52.284393785521388" lon="8.034180421382189">
        <ele>70.43359375</ele>
        <time>2026-03-09T13:05:36Z</time>
      </trkpt>
      <trkpt lat="52.284129755571485" lon="8.034350406378508">
        <ele>71.57421875</ele>
        <time>2026-03-09T13:05:40Z</time>
      </trkpt>
      <trkpt lat="52.283896487206221" lon="8.034550817683339">
        <ele>71.8515625</ele>
        <time>2026-03-09T13:05:44Z</time>
      </trkpt>
      <trkpt lat="52.283667745068669" lon="8.034721305593848">
        <ele>71.3515625</ele>
        <time>2026-03-09T13:05:48Z</time>
      </trkpt>
      <trkpt lat="52.283447720110416" lon="8.034874107688665">
        <ele>70.6328125</ele>
        <time>2026-03-09T13:05:52Z</time>
      </trkpt>
      <trkpt lat="52.283233059570193" lon="8.035029256716371">
        <ele>69.6015625</ele>
        <time>2026-03-09T13:05:56Z</time>
      </trkpt>
      <trkpt lat="52.283026948571205" lon="8.035195553675294">
        <ele>69.75390625</ele>
        <time>2026-03-09T13:06:00Z</time>
      </trkpt>
      <trkpt lat="52.282819161191583" lon="8.03536637686193">
        <ele>70.7734375</ele>
        <time>2026-03-09T13:06:04Z</time>
      </trkpt>
      <trkpt lat="52.282614223659039" lon="8.035531584173441">
        <ele>71.390625</ele>
        <time>2026-03-09T13:06:08Z</time>
      </trkpt>
      <trkpt lat="52.282399646937847" lon="8.035676758736372">
        <ele>71.69921875</ele>
        <time>2026-03-09T13:06:12Z</time>
      </trkpt>
      <trkpt lat="52.282194960862398" lon="8.035838780924678">
        <ele>71.54296875</ele>
        <time>2026-03-09T13:06:16Z</time>
      </trkpt>
      <trkpt lat="52.281972002238035" lon="8.03598009981215">
        <ele>71.23046875</ele>
        <time>2026-03-09T13:06:20Z</time>
      </trkpt>
      <trkpt lat="52.281746109947562" lon="8.036141786724329">
        <ele>70.7734375</ele>
        <time>2026-03-09T13:06:24Z</time>
      </trkpt>
      <trkpt lat="52.281520301476121" lon="8.036313951015472">
        <ele>70.1640625</ele>
        <time>2026-03-09T13:06:28Z</time>
      </trkpt>
      <trkpt lat="52.281281417235732" lon="8.036459377035499">
        <ele>70.2890625</ele>
        <time>2026-03-09T13:06:32Z</time>
      </trkpt>
      <trkpt lat="52.28105653077364" lon="8.036564653739333">
        <ele>70.6328125</ele>
        <time>2026-03-09T13:06:36Z</time>
      </trkpt>
      <trkpt lat="52.280841367319226" lon="8.036683425307274">
        <ele>70.7890625</ele>
        <time>2026-03-09T13:06:40Z</time>
      </trkpt>
      <trkpt lat="52.280634250491858" lon="8.036806220188737">
        <ele>70.8984375</ele>
        <time>2026-03-09T13:06:44Z</time>
      </trkpt>
      <trkpt lat="52.280430821701884" lon="8.036934295669198">
        <ele>70.92578125</ele>
        <time>2026-03-09T13:06:48Z</time>
      </trkpt>
      <trkpt lat="52.280227309092879" lon="8.037119032815099">
        <ele>70.74609375</ele>
        <time>2026-03-09T13:06:52Z</time>
      </trkpt>
      <trkpt lat="52.280019605532289" lon="8.03729547187686">
        <ele>70.609375</ele>
        <time>2026-03-09T13:06:56Z</time>
      </trkpt>
      <trkpt lat="52.279822882264853" lon="8.037502840161324">
        <ele>70.3359375</ele>
        <time>2026-03-09T13:07:00Z</time>
      </trkpt>
      <trkpt lat="52.279622973874211" lon="8.037721021100879">
        <ele>70.23828125</ele>
        <time>2026-03-09T13:07:04Z</time>
      </trkpt>
      <trkpt lat="52.279429603368044" lon="8.037914307788014">
        <ele>70.515625</ele>
        <time>2026-03-09T13:07:08Z</time>
      </trkpt>
      <trkpt lat="52.279262552037835" lon="8.038103152066469">
        <ele>70.9140625</ele>
        <time>2026-03-09T13:07:12Z</time>
      </trkpt>
      <trkpt lat="52.279057530686259" lon="8.038323344662786">
        <ele>71.65234375</ele>
        <time>2026-03-09T13:07:18Z</time>
      </trkpt>
      <trkpt lat="52.278903890401125" lon="8.038607994094491">
        <ele>71.703125</ele>
        <time>2026-03-09T13:07:50Z</time>
      </trkpt>
      <trkpt lat="52.278811940923333" lon="8.038966152817011">
        <ele>71.16015625</ele>
        <time>2026-03-09T13:07:56Z</time>
      </trkpt>
      <trkpt lat="52.27877413854003" lon="8.039284832775593">
        <ele>70.734375</ele>
        <time>2026-03-09T13:08:00Z</time>
      </trkpt>
      <trkpt lat="52.278696857392788" lon="8.039592700079083">
        <ele>70.26953125</ele>
        <time>2026-03-09T13:08:04Z</time>
      </trkpt>
      <trkpt lat="52.278603482991457" lon="8.039892101660371">
        <ele>69.80078125</ele>
        <time>2026-03-09T13:08:08Z</time>
      </trkpt>
      <trkpt lat="52.278445232659578" lon="8.040120173245668">
        <ele>69.3125</ele>
        <time>2026-03-09T13:08:12Z</time>
      </trkpt>
      <trkpt lat="52.278245240449905" lon="8.040387388318777">
        <ele>68.65234375</ele>
        <time>2026-03-09T13:08:16Z</time>
      </trkpt>
      <trkpt lat="52.278023539111018" lon="8.040610263124108">
        <ele>68.66015625</ele>
        <time>2026-03-09T13:08:20Z</time>
      </trkpt>
      <trkpt lat="52.277820780873299" lon="8.040748061612248">
        <ele>69.13671875</ele>
        <time>2026-03-09T13:08:24Z</time>
      </trkpt>
      <trkpt lat="52.277634618803859" lon="8.040889380499721">
        <ele>69.80078125</ele>
        <time>2026-03-09T13:08:28Z</time>
      </trkpt>
      <trkpt lat="52.277461783960462" lon="8.041024161502719">
        <ele>70.46875</ele>
        <time>2026-03-09T13:08:32Z</time>
      </trkpt>
    </trkseg>
  </trk>

</gpx>